<?xml version="1.0" encoding="UTF-8" standalone="no" ?>
<gpx xmlns="http://www.topografix.com/GPX/1/1" xmlns:xsi="http://www.w3.org/2001/XMLSchema-instance" xsi:schemaLocation="http://www.topografix.com/GPX/1/1 http://www.topografix.com/GPX/1/1/gpx.xsd" version="1.1" creator="VisuGPX - https://www.visugpx.com">
  <metadata>
    <name>150218ROBMinots </name>
    <desc><![CDATA[Belle sortie aquatique]]></desc>
  </metadata>
  <trk>
    <name><![CDATA[150218ROBMinots]]></name>
    <trkseg>
      <trkpt lat="43.41581" lon="6.07038">
        <ele>214</ele>
        <time>2015-02-18T12:38:26Z</time>
      </trkpt>
      <trkpt lat="43.41581" lon="6.07038">
        <ele>214.19999694824</ele>
        <time>2015-02-18T12:38:37Z</time>
      </trkpt>
      <trkpt lat="43.41581" lon="6.07038">
        <ele>214</ele>
        <time>2015-02-18T12:38:43Z</time>
      </trkpt>
      <trkpt lat="43.41582" lon="6.07046">
        <ele>214</ele>
        <time>2015-02-18T12:38:49Z</time>
      </trkpt>
      <trkpt lat="43.41583" lon="6.07066">
        <ele>213.80000305176</ele>
        <time>2015-02-18T12:38:56Z</time>
      </trkpt>
      <trkpt lat="43.41586" lon="6.07092">
        <ele>214</ele>
        <time>2015-02-18T12:39:04Z</time>
      </trkpt>
      <trkpt lat="43.41586" lon="6.07097">
        <ele>213.80000305176</ele>
        <time>2015-02-18T12:39:07Z</time>
      </trkpt>
      <trkpt lat="43.41584" lon="6.07099">
        <ele>213.60000610352</ele>
        <time>2015-02-18T12:39:09Z</time>
      </trkpt>
      <trkpt lat="43.41579" lon="6.07103">
        <ele>214</ele>
        <time>2015-02-18T12:39:13Z</time>
      </trkpt>
      <trkpt lat="43.41571" lon="6.07109">
        <ele>213.80000305176</ele>
        <time>2015-02-18T12:39:18Z</time>
      </trkpt>
      <trkpt lat="43.41566" lon="6.07111">
        <ele>213.80000305176</ele>
        <time>2015-02-18T12:39:20Z</time>
      </trkpt>
      <trkpt lat="43.41549" lon="6.07109">
        <ele>213.80000305176</ele>
        <time>2015-02-18T12:39:26Z</time>
      </trkpt>
      <trkpt lat="43.41547" lon="6.07098">
        <ele>213.39999389648</ele>
        <time>2015-02-18T12:39:29Z</time>
      </trkpt>
      <trkpt lat="43.41542" lon="6.07077">
        <ele>213.39999389648</ele>
        <time>2015-02-18T12:39:35Z</time>
      </trkpt>
      <trkpt lat="43.41536" lon="6.07073">
        <ele>213.19999694824</ele>
        <time>2015-02-18T12:39:37Z</time>
      </trkpt>
      <trkpt lat="43.41528" lon="6.07074">
        <ele>212.60000610352</ele>
        <time>2015-02-18T12:39:39Z</time>
      </trkpt>
      <trkpt lat="43.41509" lon="6.07079">
        <ele>212.39999389648</ele>
        <time>2015-02-18T12:39:44Z</time>
      </trkpt>
      <trkpt lat="43.41504" lon="6.07082">
        <ele>212.19999694824</ele>
        <time>2015-02-18T12:39:46Z</time>
      </trkpt>
      <trkpt lat="43.41493" lon="6.07082">
        <ele>212.39999389648</ele>
        <time>2015-02-18T12:39:50Z</time>
      </trkpt>
      <trkpt lat="43.41483" lon="6.07076">
        <ele>212</ele>
        <time>2015-02-18T12:39:55Z</time>
      </trkpt>
      <trkpt lat="43.41479" lon="6.07077">
        <ele>212</ele>
        <time>2015-02-18T12:40:00Z</time>
      </trkpt>
      <trkpt lat="43.41479" lon="6.07078">
        <ele>211.80000305176</ele>
        <time>2015-02-18T12:40:10Z</time>
      </trkpt>
      <trkpt lat="43.41478" lon="6.07077">
        <ele>211.80000305176</ele>
        <time>2015-02-18T12:40:27Z</time>
      </trkpt>
      <trkpt lat="43.41474" lon="6.07075">
        <ele>211.80000305176</ele>
        <time>2015-02-18T12:40:32Z</time>
      </trkpt>
      <trkpt lat="43.41472" lon="6.07075">
        <ele>211.80000305176</ele>
        <time>2015-02-18T12:40:33Z</time>
      </trkpt>
      <trkpt lat="43.41469" lon="6.07071">
        <ele>211.39999389648</ele>
        <time>2015-02-18T12:40:39Z</time>
      </trkpt>
      <trkpt lat="43.41468" lon="6.07071">
        <ele>211.19999694824</ele>
        <time>2015-02-18T12:40:42Z</time>
      </trkpt>
      <trkpt lat="43.41469" lon="6.0707">
        <ele>211.19999694824</ele>
        <time>2015-02-18T12:40:45Z</time>
      </trkpt>
      <trkpt lat="43.41469" lon="6.0707">
        <ele>211.19999694824</ele>
        <time>2015-02-18T12:40:59Z</time>
      </trkpt>
      <trkpt lat="43.41466" lon="6.07069">
        <ele>211</ele>
        <time>2015-02-18T12:41:09Z</time>
      </trkpt>
      <trkpt lat="43.41458" lon="6.07077">
        <ele>211.19999694824</ele>
        <time>2015-02-18T12:41:14Z</time>
      </trkpt>
      <trkpt lat="43.41451" lon="6.07097">
        <ele>210.80000305176</ele>
        <time>2015-02-18T12:41:20Z</time>
      </trkpt>
      <trkpt lat="43.41441" lon="6.07122">
        <ele>210.80000305176</ele>
        <time>2015-02-18T12:41:26Z</time>
      </trkpt>
      <trkpt lat="43.41433" lon="6.07146">
        <ele>210.80000305176</ele>
        <time>2015-02-18T12:41:30Z</time>
      </trkpt>
      <trkpt lat="43.41429" lon="6.07159">
        <ele>210.60000610352</ele>
        <time>2015-02-18T12:41:32Z</time>
      </trkpt>
      <trkpt lat="43.41417" lon="6.07201">
        <ele>211</ele>
        <time>2015-02-18T12:41:38Z</time>
      </trkpt>
      <trkpt lat="43.41398" lon="6.07257">
        <ele>210</ele>
        <time>2015-02-18T12:41:47Z</time>
      </trkpt>
      <trkpt lat="43.41384" lon="6.07308">
        <ele>210</ele>
        <time>2015-02-18T12:41:55Z</time>
      </trkpt>
      <trkpt lat="43.41374" lon="6.07347">
        <ele>209.39999389648</ele>
        <time>2015-02-18T12:42:01Z</time>
      </trkpt>
      <trkpt lat="43.41366" lon="6.07383">
        <ele>208.80000305176</ele>
        <time>2015-02-18T12:42:07Z</time>
      </trkpt>
      <trkpt lat="43.41364" lon="6.07396">
        <ele>208.60000610352</ele>
        <time>2015-02-18T12:42:09Z</time>
      </trkpt>
      <trkpt lat="43.41357" lon="6.07428">
        <ele>207.60000610352</ele>
        <time>2015-02-18T12:42:14Z</time>
      </trkpt>
      <trkpt lat="43.41351" lon="6.07458">
        <ele>207.39999389648</ele>
        <time>2015-02-18T12:42:19Z</time>
      </trkpt>
      <trkpt lat="43.41344" lon="6.07496">
        <ele>207.19999694824</ele>
        <time>2015-02-18T12:42:25Z</time>
      </trkpt>
      <trkpt lat="43.41333" lon="6.0755">
        <ele>207</ele>
        <time>2015-02-18T12:42:33Z</time>
      </trkpt>
      <trkpt lat="43.41325" lon="6.07576">
        <ele>206.60000610352</ele>
        <time>2015-02-18T12:42:37Z</time>
      </trkpt>
      <trkpt lat="43.4132" lon="6.07593">
        <ele>206.60000610352</ele>
        <time>2015-02-18T12:42:40Z</time>
      </trkpt>
      <trkpt lat="43.41314" lon="6.07616">
        <ele>206.39999389648</ele>
        <time>2015-02-18T12:42:44Z</time>
      </trkpt>
      <trkpt lat="43.41307" lon="6.07637">
        <ele>206.60000610352</ele>
        <time>2015-02-18T12:42:48Z</time>
      </trkpt>
      <trkpt lat="43.41294" lon="6.07683">
        <ele>206.19999694824</ele>
        <time>2015-02-18T12:42:56Z</time>
      </trkpt>
      <trkpt lat="43.4129" lon="6.07714">
        <ele>205.80000305176</ele>
        <time>2015-02-18T12:43:01Z</time>
      </trkpt>
      <trkpt lat="43.41289" lon="6.07727">
        <ele>205.60000610352</ele>
        <time>2015-02-18T12:43:03Z</time>
      </trkpt>
      <trkpt lat="43.41292" lon="6.07756">
        <ele>206.19999694824</ele>
        <time>2015-02-18T12:43:07Z</time>
      </trkpt>
      <trkpt lat="43.41296" lon="6.07771">
        <ele>205.80000305176</ele>
        <time>2015-02-18T12:43:09Z</time>
      </trkpt>
      <trkpt lat="43.41298" lon="6.07778">
        <ele>205.60000610352</ele>
        <time>2015-02-18T12:43:10Z</time>
      </trkpt>
      <trkpt lat="43.41311" lon="6.07826">
        <ele>204.80000305176</ele>
        <time>2015-02-18T12:43:17Z</time>
      </trkpt>
      <trkpt lat="43.41315" lon="6.07844">
        <ele>204.39999389648</ele>
        <time>2015-02-18T12:43:20Z</time>
      </trkpt>
      <trkpt lat="43.41326" lon="6.07876">
        <ele>205</ele>
        <time>2015-02-18T12:43:26Z</time>
      </trkpt>
      <trkpt lat="43.4133" lon="6.07897">
        <ele>205.39999389648</ele>
        <time>2015-02-18T12:43:30Z</time>
      </trkpt>
      <trkpt lat="43.4133" lon="6.07901">
        <ele>205.60000610352</ele>
        <time>2015-02-18T12:43:32Z</time>
      </trkpt>
      <trkpt lat="43.4133" lon="6.07907">
        <ele>206</ele>
        <time>2015-02-18T12:43:37Z</time>
      </trkpt>
      <trkpt lat="43.41329" lon="6.07909">
        <ele>206.19999694824</ele>
        <time>2015-02-18T12:43:43Z</time>
      </trkpt>
      <trkpt lat="43.41329" lon="6.07914">
        <ele>206.19999694824</ele>
        <time>2015-02-18T12:43:51Z</time>
      </trkpt>
      <trkpt lat="43.4133" lon="6.07922">
        <ele>206.19999694824</ele>
        <time>2015-02-18T12:43:56Z</time>
      </trkpt>
      <trkpt lat="43.41332" lon="6.07925">
        <ele>206</ele>
        <time>2015-02-18T12:43:57Z</time>
      </trkpt>
      <trkpt lat="43.41343" lon="6.07933">
        <ele>206</ele>
        <time>2015-02-18T12:44:00Z</time>
      </trkpt>
      <trkpt lat="43.41347" lon="6.07936">
        <ele>206</ele>
        <time>2015-02-18T12:44:01Z</time>
      </trkpt>
      <trkpt lat="43.41369" lon="6.07956">
        <ele>205.60000610352</ele>
        <time>2015-02-18T12:44:06Z</time>
      </trkpt>
      <trkpt lat="43.41373" lon="6.07962">
        <ele>205.60000610352</ele>
        <time>2015-02-18T12:44:07Z</time>
      </trkpt>
      <trkpt lat="43.41386" lon="6.0798">
        <ele>205.60000610352</ele>
        <time>2015-02-18T12:44:10Z</time>
      </trkpt>
      <trkpt lat="43.4139" lon="6.07987">
        <ele>205.60000610352</ele>
        <time>2015-02-18T12:44:11Z</time>
      </trkpt>
      <trkpt lat="43.41403" lon="6.08008">
        <ele>205.60000610352</ele>
        <time>2015-02-18T12:44:14Z</time>
      </trkpt>
      <trkpt lat="43.41423" lon="6.08043">
        <ele>205.19999694824</ele>
        <time>2015-02-18T12:44:19Z</time>
      </trkpt>
      <trkpt lat="43.41436" lon="6.08062">
        <ele>204.80000305176</ele>
        <time>2015-02-18T12:44:23Z</time>
      </trkpt>
      <trkpt lat="43.41444" lon="6.08076">
        <ele>205</ele>
        <time>2015-02-18T12:44:26Z</time>
      </trkpt>
      <trkpt lat="43.41465" lon="6.08109">
        <ele>204.80000305176</ele>
        <time>2015-02-18T12:44:33Z</time>
      </trkpt>
      <trkpt lat="43.41486" lon="6.08145">
        <ele>205.19999694824</ele>
        <time>2015-02-18T12:44:41Z</time>
      </trkpt>
      <trkpt lat="43.41499" lon="6.08167">
        <ele>205</ele>
        <time>2015-02-18T12:44:47Z</time>
      </trkpt>
      <trkpt lat="43.41509" lon="6.08188">
        <ele>205</ele>
        <time>2015-02-18T12:44:52Z</time>
      </trkpt>
      <trkpt lat="43.41512" lon="6.08194">
        <ele>205</ele>
        <time>2015-02-18T12:44:53Z</time>
      </trkpt>
      <trkpt lat="43.4153" lon="6.08227">
        <ele>204.60000610352</ele>
        <time>2015-02-18T12:44:59Z</time>
      </trkpt>
      <trkpt lat="43.41533" lon="6.08232">
        <ele>204.39999389648</ele>
        <time>2015-02-18T12:45:00Z</time>
      </trkpt>
      <trkpt lat="43.41546" lon="6.08265">
        <ele>204.19999694824</ele>
        <time>2015-02-18T12:45:06Z</time>
      </trkpt>
      <trkpt lat="43.41557" lon="6.08316">
        <ele>204.19999694824</ele>
        <time>2015-02-18T12:45:15Z</time>
      </trkpt>
      <trkpt lat="43.41564" lon="6.08352">
        <ele>204.39999389648</ele>
        <time>2015-02-18T12:45:22Z</time>
      </trkpt>
      <trkpt lat="43.41575" lon="6.08406">
        <ele>204.80000305176</ele>
        <time>2015-02-18T12:45:32Z</time>
      </trkpt>
      <trkpt lat="43.41583" lon="6.08454">
        <ele>204.80000305176</ele>
        <time>2015-02-18T12:45:41Z</time>
      </trkpt>
      <trkpt lat="43.41588" lon="6.08491">
        <ele>205</ele>
        <time>2015-02-18T12:45:48Z</time>
      </trkpt>
      <trkpt lat="43.4159" lon="6.08502">
        <ele>205</ele>
        <time>2015-02-18T12:45:50Z</time>
      </trkpt>
      <trkpt lat="43.41593" lon="6.08521">
        <ele>205</ele>
        <time>2015-02-18T12:45:54Z</time>
      </trkpt>
      <trkpt lat="43.41595" lon="6.08536">
        <ele>205</ele>
        <time>2015-02-18T12:45:57Z</time>
      </trkpt>
      <trkpt lat="43.41602" lon="6.08585">
        <ele>205</ele>
        <time>2015-02-18T12:46:06Z</time>
      </trkpt>
      <trkpt lat="43.4161" lon="6.08634">
        <ele>204.80000305176</ele>
        <time>2015-02-18T12:46:14Z</time>
      </trkpt>
      <trkpt lat="43.41625" lon="6.08676">
        <ele>204.39999389648</ele>
        <time>2015-02-18T12:46:21Z</time>
      </trkpt>
      <trkpt lat="43.41648" lon="6.0872">
        <ele>204.19999694824</ele>
        <time>2015-02-18T12:46:30Z</time>
      </trkpt>
      <trkpt lat="43.41665" lon="6.08752">
        <ele>204.19999694824</ele>
        <time>2015-02-18T12:46:36Z</time>
      </trkpt>
      <trkpt lat="43.41674" lon="6.08769">
        <ele>203.80000305176</ele>
        <time>2015-02-18T12:46:39Z</time>
      </trkpt>
      <trkpt lat="43.41689" lon="6.08796">
        <ele>203.80000305176</ele>
        <time>2015-02-18T12:46:44Z</time>
      </trkpt>
      <trkpt lat="43.417" lon="6.08818">
        <ele>203.60000610352</ele>
        <time>2015-02-18T12:46:48Z</time>
      </trkpt>
      <trkpt lat="43.41719" lon="6.08852">
        <ele>203.80000305176</ele>
        <time>2015-02-18T12:46:54Z</time>
      </trkpt>
      <trkpt lat="43.41726" lon="6.08864">
        <ele>203.80000305176</ele>
        <time>2015-02-18T12:46:56Z</time>
      </trkpt>
      <trkpt lat="43.41733" lon="6.08882">
        <ele>203.80000305176</ele>
        <time>2015-02-18T12:46:59Z</time>
      </trkpt>
      <trkpt lat="43.41736" lon="6.08896">
        <ele>203.60000610352</ele>
        <time>2015-02-18T12:47:01Z</time>
      </trkpt>
      <trkpt lat="43.41737" lon="6.08911">
        <ele>203.60000610352</ele>
        <time>2015-02-18T12:47:03Z</time>
      </trkpt>
      <trkpt lat="43.41736" lon="6.08939">
        <ele>203.80000305176</ele>
        <time>2015-02-18T12:47:07Z</time>
      </trkpt>
      <trkpt lat="43.41727" lon="6.0901">
        <ele>204.19999694824</ele>
        <time>2015-02-18T12:47:17Z</time>
      </trkpt>
      <trkpt lat="43.41722" lon="6.09049">
        <ele>204</ele>
        <time>2015-02-18T12:47:23Z</time>
      </trkpt>
      <trkpt lat="43.41721" lon="6.09085">
        <ele>204.19999694824</ele>
        <time>2015-02-18T12:47:28Z</time>
      </trkpt>
      <trkpt lat="43.4172" lon="6.09128">
        <ele>203.80000305176</ele>
        <time>2015-02-18T12:47:34Z</time>
      </trkpt>
      <trkpt lat="43.4172" lon="6.09202">
        <ele>203.80000305176</ele>
        <time>2015-02-18T12:47:44Z</time>
      </trkpt>
      <trkpt lat="43.41722" lon="6.09246">
        <ele>203.60000610352</ele>
        <time>2015-02-18T12:47:50Z</time>
      </trkpt>
      <trkpt lat="43.41722" lon="6.09281">
        <ele>203.60000610352</ele>
        <time>2015-02-18T12:47:55Z</time>
      </trkpt>
      <trkpt lat="43.41724" lon="6.09316">
        <ele>203.39999389648</ele>
        <time>2015-02-18T12:48:00Z</time>
      </trkpt>
      <trkpt lat="43.41728" lon="6.09353">
        <ele>203.19999694824</ele>
        <time>2015-02-18T12:48:05Z</time>
      </trkpt>
      <trkpt lat="43.41733" lon="6.09378">
        <ele>203.60000610352</ele>
        <time>2015-02-18T12:48:08Z</time>
      </trkpt>
      <trkpt lat="43.4174" lon="6.09407">
        <ele>203.39999389648</ele>
        <time>2015-02-18T12:48:12Z</time>
      </trkpt>
      <trkpt lat="43.41755" lon="6.09472">
        <ele>203.39999389648</ele>
        <time>2015-02-18T12:48:22Z</time>
      </trkpt>
      <trkpt lat="43.41772" lon="6.09533">
        <ele>203.60000610352</ele>
        <time>2015-02-18T12:48:31Z</time>
      </trkpt>
      <trkpt lat="43.418" lon="6.09593">
        <ele>204</ele>
        <time>2015-02-18T12:48:41Z</time>
      </trkpt>
      <trkpt lat="43.41819" lon="6.09631">
        <ele>203.80000305176</ele>
        <time>2015-02-18T12:48:48Z</time>
      </trkpt>
      <trkpt lat="43.41835" lon="6.09646">
        <ele>204.19999694824</ele>
        <time>2015-02-18T12:48:52Z</time>
      </trkpt>
      <trkpt lat="43.41843" lon="6.09651">
        <ele>204.39999389648</ele>
        <time>2015-02-18T12:48:54Z</time>
      </trkpt>
      <trkpt lat="43.41849" lon="6.09652">
        <ele>204.39999389648</ele>
        <time>2015-02-18T12:48:55Z</time>
      </trkpt>
      <trkpt lat="43.41869" lon="6.09655">
        <ele>204.39999389648</ele>
        <time>2015-02-18T12:48:59Z</time>
      </trkpt>
      <trkpt lat="43.41906" lon="6.09659">
        <ele>204.19999694824</ele>
        <time>2015-02-18T12:49:06Z</time>
      </trkpt>
      <trkpt lat="43.41928" lon="6.0966">
        <ele>203.39999389648</ele>
        <time>2015-02-18T12:49:10Z</time>
      </trkpt>
      <trkpt lat="43.41951" lon="6.09662">
        <ele>203.39999389648</ele>
        <time>2015-02-18T12:49:14Z</time>
      </trkpt>
      <trkpt lat="43.41962" lon="6.09664">
        <ele>203.39999389648</ele>
        <time>2015-02-18T12:49:16Z</time>
      </trkpt>
      <trkpt lat="43.41968" lon="6.09665">
        <ele>203.19999694824</ele>
        <time>2015-02-18T12:49:17Z</time>
      </trkpt>
      <trkpt lat="43.42" lon="6.0967">
        <ele>203</ele>
        <time>2015-02-18T12:49:23Z</time>
      </trkpt>
      <trkpt lat="43.4201" lon="6.09671">
        <ele>203.39999389648</ele>
        <time>2015-02-18T12:49:25Z</time>
      </trkpt>
      <trkpt lat="43.42023" lon="6.09677">
        <ele>203.80000305176</ele>
        <time>2015-02-18T12:49:28Z</time>
      </trkpt>
      <trkpt lat="43.42028" lon="6.0968">
        <ele>203.80000305176</ele>
        <time>2015-02-18T12:49:29Z</time>
      </trkpt>
      <trkpt lat="43.42032" lon="6.09683">
        <ele>203.80000305176</ele>
        <time>2015-02-18T12:49:30Z</time>
      </trkpt>
      <trkpt lat="43.4205" lon="6.09697">
        <ele>204.19999694824</ele>
        <time>2015-02-18T12:49:34Z</time>
      </trkpt>
      <trkpt lat="43.42072" lon="6.09728">
        <ele>204</ele>
        <time>2015-02-18T12:49:40Z</time>
      </trkpt>
      <trkpt lat="43.42075" lon="6.09735">
        <ele>204.19999694824</ele>
        <time>2015-02-18T12:49:41Z</time>
      </trkpt>
      <trkpt lat="43.42083" lon="6.09758">
        <ele>204.39999389648</ele>
        <time>2015-02-18T12:49:44Z</time>
      </trkpt>
      <trkpt lat="43.42087" lon="6.09775">
        <ele>204.39999389648</ele>
        <time>2015-02-18T12:49:46Z</time>
      </trkpt>
      <trkpt lat="43.42089" lon="6.09783">
        <ele>204.39999389648</ele>
        <time>2015-02-18T12:49:47Z</time>
      </trkpt>
      <trkpt lat="43.4209" lon="6.09792">
        <ele>204.39999389648</ele>
        <time>2015-02-18T12:49:48Z</time>
      </trkpt>
      <trkpt lat="43.42091" lon="6.09801">
        <ele>204.60000610352</ele>
        <time>2015-02-18T12:49:49Z</time>
      </trkpt>
      <trkpt lat="43.42093" lon="6.09816">
        <ele>204.39999389648</ele>
        <time>2015-02-18T12:49:51Z</time>
      </trkpt>
      <trkpt lat="43.42092" lon="6.09823">
        <ele>204.39999389648</ele>
        <time>2015-02-18T12:49:52Z</time>
      </trkpt>
      <trkpt lat="43.42092" lon="6.09837">
        <ele>204.39999389648</ele>
        <time>2015-02-18T12:49:54Z</time>
      </trkpt>
      <trkpt lat="43.42089" lon="6.09865">
        <ele>204.80000305176</ele>
        <time>2015-02-18T12:49:58Z</time>
      </trkpt>
      <trkpt lat="43.42086" lon="6.09878">
        <ele>204.80000305176</ele>
        <time>2015-02-18T12:50:00Z</time>
      </trkpt>
      <trkpt lat="43.42082" lon="6.0989">
        <ele>205</ele>
        <time>2015-02-18T12:50:02Z</time>
      </trkpt>
      <trkpt lat="43.4208" lon="6.09896">
        <ele>205.19999694824</ele>
        <time>2015-02-18T12:50:03Z</time>
      </trkpt>
      <trkpt lat="43.42077" lon="6.09903">
        <ele>205.19999694824</ele>
        <time>2015-02-18T12:50:04Z</time>
      </trkpt>
      <trkpt lat="43.42075" lon="6.09909">
        <ele>205.19999694824</ele>
        <time>2015-02-18T12:50:05Z</time>
      </trkpt>
      <trkpt lat="43.42072" lon="6.09915">
        <ele>205.19999694824</ele>
        <time>2015-02-18T12:50:06Z</time>
      </trkpt>
      <trkpt lat="43.42065" lon="6.09934">
        <ele>205.80000305176</ele>
        <time>2015-02-18T12:50:09Z</time>
      </trkpt>
      <trkpt lat="43.42058" lon="6.09959">
        <ele>206</ele>
        <time>2015-02-18T12:50:13Z</time>
      </trkpt>
      <trkpt lat="43.42044" lon="6.10026">
        <ele>206</ele>
        <time>2015-02-18T12:50:22Z</time>
      </trkpt>
      <trkpt lat="43.4204" lon="6.10047">
        <ele>206</ele>
        <time>2015-02-18T12:50:25Z</time>
      </trkpt>
      <trkpt lat="43.42037" lon="6.10067">
        <ele>205.39999389648</ele>
        <time>2015-02-18T12:50:28Z</time>
      </trkpt>
      <trkpt lat="43.42029" lon="6.10126">
        <ele>205</ele>
        <time>2015-02-18T12:50:36Z</time>
      </trkpt>
      <trkpt lat="43.42022" lon="6.1018">
        <ele>204.39999389648</ele>
        <time>2015-02-18T12:50:43Z</time>
      </trkpt>
      <trkpt lat="43.42022" lon="6.10195">
        <ele>204.19999694824</ele>
        <time>2015-02-18T12:50:45Z</time>
      </trkpt>
      <trkpt lat="43.4202" lon="6.10203">
        <ele>204.19999694824</ele>
        <time>2015-02-18T12:50:46Z</time>
      </trkpt>
      <trkpt lat="43.42014" lon="6.10243">
        <ele>203.60000610352</ele>
        <time>2015-02-18T12:50:51Z</time>
      </trkpt>
      <trkpt lat="43.42009" lon="6.10273">
        <ele>203.39999389648</ele>
        <time>2015-02-18T12:50:55Z</time>
      </trkpt>
      <trkpt lat="43.42007" lon="6.10289">
        <ele>203.19999694824</ele>
        <time>2015-02-18T12:50:57Z</time>
      </trkpt>
      <trkpt lat="43.42007" lon="6.10296">
        <ele>202.80000305176</ele>
        <time>2015-02-18T12:50:58Z</time>
      </trkpt>
      <trkpt lat="43.41995" lon="6.10374">
        <ele>202.39999389648</ele>
        <time>2015-02-18T12:51:08Z</time>
      </trkpt>
      <trkpt lat="43.41988" lon="6.10428">
        <ele>202</ele>
        <time>2015-02-18T12:51:15Z</time>
      </trkpt>
      <trkpt lat="43.41986" lon="6.10445">
        <ele>202</ele>
        <time>2015-02-18T12:51:17Z</time>
      </trkpt>
      <trkpt lat="43.41985" lon="6.10502">
        <ele>201.60000610352</ele>
        <time>2015-02-18T12:51:24Z</time>
      </trkpt>
      <trkpt lat="43.41979" lon="6.10545">
        <ele>201</ele>
        <time>2015-02-18T12:51:30Z</time>
      </trkpt>
      <trkpt lat="43.41977" lon="6.10552">
        <ele>201</ele>
        <time>2015-02-18T12:51:31Z</time>
      </trkpt>
      <trkpt lat="43.41975" lon="6.10559">
        <ele>201</ele>
        <time>2015-02-18T12:51:32Z</time>
      </trkpt>
      <trkpt lat="43.41955" lon="6.10617">
        <ele>200.19999694824</ele>
        <time>2015-02-18T12:51:40Z</time>
      </trkpt>
      <trkpt lat="43.4195" lon="6.10631">
        <ele>199.80000305176</ele>
        <time>2015-02-18T12:51:42Z</time>
      </trkpt>
      <trkpt lat="43.41936" lon="6.10672">
        <ele>199.60000610352</ele>
        <time>2015-02-18T12:51:48Z</time>
      </trkpt>
      <trkpt lat="43.41918" lon="6.10723">
        <ele>199.60000610352</ele>
        <time>2015-02-18T12:51:55Z</time>
      </trkpt>
      <trkpt lat="43.41916" lon="6.10729">
        <ele>199.80000305176</ele>
        <time>2015-02-18T12:51:56Z</time>
      </trkpt>
      <trkpt lat="43.41912" lon="6.10745">
        <ele>199.80000305176</ele>
        <time>2015-02-18T12:51:58Z</time>
      </trkpt>
      <trkpt lat="43.4191" lon="6.10762">
        <ele>199.60000610352</ele>
        <time>2015-02-18T12:52:00Z</time>
      </trkpt>
      <trkpt lat="43.41908" lon="6.1078">
        <ele>199.19999694824</ele>
        <time>2015-02-18T12:52:02Z</time>
      </trkpt>
      <trkpt lat="43.41904" lon="6.1082">
        <ele>199</ele>
        <time>2015-02-18T12:52:07Z</time>
      </trkpt>
      <trkpt lat="43.41903" lon="6.10834">
        <ele>199.19999694824</ele>
        <time>2015-02-18T12:52:09Z</time>
      </trkpt>
      <trkpt lat="43.41902" lon="6.10882">
        <ele>199.19999694824</ele>
        <time>2015-02-18T12:52:16Z</time>
      </trkpt>
      <trkpt lat="43.41909" lon="6.10927">
        <ele>199.39999389648</ele>
        <time>2015-02-18T12:52:22Z</time>
      </trkpt>
      <trkpt lat="43.41911" lon="6.10934">
        <ele>199.39999389648</ele>
        <time>2015-02-18T12:52:23Z</time>
      </trkpt>
      <trkpt lat="43.41922" lon="6.10982">
        <ele>199.39999389648</ele>
        <time>2015-02-18T12:52:30Z</time>
      </trkpt>
      <trkpt lat="43.41922" lon="6.11023">
        <ele>199</ele>
        <time>2015-02-18T12:52:35Z</time>
      </trkpt>
      <trkpt lat="43.41918" lon="6.11075">
        <ele>198</ele>
        <time>2015-02-18T12:52:41Z</time>
      </trkpt>
      <trkpt lat="43.41917" lon="6.11115">
        <ele>197.60000610352</ele>
        <time>2015-02-18T12:52:46Z</time>
      </trkpt>
      <trkpt lat="43.41917" lon="6.11123">
        <ele>197.60000610352</ele>
        <time>2015-02-18T12:52:47Z</time>
      </trkpt>
      <trkpt lat="43.41924" lon="6.11151">
        <ele>197.39999389648</ele>
        <time>2015-02-18T12:52:51Z</time>
      </trkpt>
      <trkpt lat="43.41927" lon="6.11157">
        <ele>197.39999389648</ele>
        <time>2015-02-18T12:52:52Z</time>
      </trkpt>
      <trkpt lat="43.4194" lon="6.1119">
        <ele>197.39999389648</ele>
        <time>2015-02-18T12:52:57Z</time>
      </trkpt>
      <trkpt lat="43.41965" lon="6.11232">
        <ele>197</ele>
        <time>2015-02-18T12:53:04Z</time>
      </trkpt>
      <trkpt lat="43.41973" lon="6.11242">
        <ele>197</ele>
        <time>2015-02-18T12:53:06Z</time>
      </trkpt>
      <trkpt lat="43.42" lon="6.11278">
        <ele>196.80000305176</ele>
        <time>2015-02-18T12:53:13Z</time>
      </trkpt>
      <trkpt lat="43.42012" lon="6.11295">
        <ele>196.60000610352</ele>
        <time>2015-02-18T12:53:16Z</time>
      </trkpt>
      <trkpt lat="43.42037" lon="6.11335">
        <ele>196.80000305176</ele>
        <time>2015-02-18T12:53:23Z</time>
      </trkpt>
      <trkpt lat="43.42054" lon="6.11365">
        <ele>197.19999694824</ele>
        <time>2015-02-18T12:53:28Z</time>
      </trkpt>
      <trkpt lat="43.42064" lon="6.11382">
        <ele>197.39999389648</ele>
        <time>2015-02-18T12:53:31Z</time>
      </trkpt>
      <trkpt lat="43.42079" lon="6.11408">
        <ele>197.60000610352</ele>
        <time>2015-02-18T12:53:36Z</time>
      </trkpt>
      <trkpt lat="43.42095" lon="6.11435">
        <ele>197.80000305176</ele>
        <time>2015-02-18T12:53:41Z</time>
      </trkpt>
      <trkpt lat="43.42108" lon="6.11456">
        <ele>198</ele>
        <time>2015-02-18T12:53:45Z</time>
      </trkpt>
      <trkpt lat="43.42121" lon="6.11478">
        <ele>198.60000610352</ele>
        <time>2015-02-18T12:53:49Z</time>
      </trkpt>
      <trkpt lat="43.42128" lon="6.11491">
        <ele>198.39999389648</ele>
        <time>2015-02-18T12:53:51Z</time>
      </trkpt>
      <trkpt lat="43.42154" lon="6.11535">
        <ele>198.80000305176</ele>
        <time>2015-02-18T12:53:58Z</time>
      </trkpt>
      <trkpt lat="43.42166" lon="6.11554">
        <ele>198.80000305176</ele>
        <time>2015-02-18T12:54:01Z</time>
      </trkpt>
      <trkpt lat="43.42198" lon="6.1161">
        <ele>198.19999694824</ele>
        <time>2015-02-18T12:54:09Z</time>
      </trkpt>
      <trkpt lat="43.42212" lon="6.11633">
        <ele>198.19999694824</ele>
        <time>2015-02-18T12:54:13Z</time>
      </trkpt>
      <trkpt lat="43.42218" lon="6.11645">
        <ele>198.39999389648</ele>
        <time>2015-02-18T12:54:15Z</time>
      </trkpt>
      <trkpt lat="43.42235" lon="6.11672">
        <ele>198.19999694824</ele>
        <time>2015-02-18T12:54:20Z</time>
      </trkpt>
      <trkpt lat="43.42257" lon="6.11702">
        <ele>198.19999694824</ele>
        <time>2015-02-18T12:54:26Z</time>
      </trkpt>
      <trkpt lat="43.42294" lon="6.11748">
        <ele>198</ele>
        <time>2015-02-18T12:54:35Z</time>
      </trkpt>
      <trkpt lat="43.42326" lon="6.11789">
        <ele>198.39999389648</ele>
        <time>2015-02-18T12:54:43Z</time>
      </trkpt>
      <trkpt lat="43.42335" lon="6.11805">
        <ele>198.80000305176</ele>
        <time>2015-02-18T12:54:46Z</time>
      </trkpt>
      <trkpt lat="43.42344" lon="6.11825">
        <ele>199</ele>
        <time>2015-02-18T12:54:49Z</time>
      </trkpt>
      <trkpt lat="43.42346" lon="6.11832">
        <ele>199</ele>
        <time>2015-02-18T12:54:50Z</time>
      </trkpt>
      <trkpt lat="43.42365" lon="6.11897">
        <ele>198</ele>
        <time>2015-02-18T12:54:58Z</time>
      </trkpt>
      <trkpt lat="43.42367" lon="6.11906">
        <ele>198</ele>
        <time>2015-02-18T12:54:59Z</time>
      </trkpt>
      <trkpt lat="43.42382" lon="6.11965">
        <ele>197</ele>
        <time>2015-02-18T12:55:06Z</time>
      </trkpt>
      <trkpt lat="43.42395" lon="6.12019">
        <ele>196.80000305176</ele>
        <time>2015-02-18T12:55:12Z</time>
      </trkpt>
      <trkpt lat="43.42408" lon="6.12053">
        <ele>196.60000610352</ele>
        <time>2015-02-18T12:55:16Z</time>
      </trkpt>
      <trkpt lat="43.42423" lon="6.12083">
        <ele>196.60000610352</ele>
        <time>2015-02-18T12:55:20Z</time>
      </trkpt>
      <trkpt lat="43.42431" lon="6.12098">
        <ele>196.60000610352</ele>
        <time>2015-02-18T12:55:22Z</time>
      </trkpt>
      <trkpt lat="43.42436" lon="6.12105">
        <ele>196.60000610352</ele>
        <time>2015-02-18T12:55:23Z</time>
      </trkpt>
      <trkpt lat="43.42462" lon="6.12136">
        <ele>196</ele>
        <time>2015-02-18T12:55:28Z</time>
      </trkpt>
      <trkpt lat="43.42467" lon="6.12142">
        <ele>196</ele>
        <time>2015-02-18T12:55:29Z</time>
      </trkpt>
      <trkpt lat="43.42482" lon="6.12163">
        <ele>196</ele>
        <time>2015-02-18T12:55:32Z</time>
      </trkpt>
      <trkpt lat="43.42496" lon="6.12188">
        <ele>195.60000610352</ele>
        <time>2015-02-18T12:55:35Z</time>
      </trkpt>
      <trkpt lat="43.42514" lon="6.1223">
        <ele>195.60000610352</ele>
        <time>2015-02-18T12:55:40Z</time>
      </trkpt>
      <trkpt lat="43.42524" lon="6.12251">
        <ele>195.19999694824</ele>
        <time>2015-02-18T12:55:43Z</time>
      </trkpt>
      <trkpt lat="43.42535" lon="6.12279">
        <ele>195.39999389648</ele>
        <time>2015-02-18T12:55:47Z</time>
      </trkpt>
      <trkpt lat="43.42543" lon="6.12297">
        <ele>195</ele>
        <time>2015-02-18T12:55:50Z</time>
      </trkpt>
      <trkpt lat="43.42547" lon="6.12305">
        <ele>195</ele>
        <time>2015-02-18T12:55:52Z</time>
      </trkpt>
      <trkpt lat="43.42561" lon="6.12337">
        <ele>195.39999389648</ele>
        <time>2015-02-18T12:55:58Z</time>
      </trkpt>
      <trkpt lat="43.42564" lon="6.12343">
        <ele>195.60000610352</ele>
        <time>2015-02-18T12:55:59Z</time>
      </trkpt>
      <trkpt lat="43.4258" lon="6.12379">
        <ele>196</ele>
        <time>2015-02-18T12:56:05Z</time>
      </trkpt>
      <trkpt lat="43.42588" lon="6.12391">
        <ele>196.39999389648</ele>
        <time>2015-02-18T12:56:07Z</time>
      </trkpt>
      <trkpt lat="43.42615" lon="6.12429">
        <ele>196.60000610352</ele>
        <time>2015-02-18T12:56:14Z</time>
      </trkpt>
      <trkpt lat="43.42618" lon="6.12435">
        <ele>196.80000305176</ele>
        <time>2015-02-18T12:56:15Z</time>
      </trkpt>
      <trkpt lat="43.42644" lon="6.12466">
        <ele>196.60000610352</ele>
        <time>2015-02-18T12:56:21Z</time>
      </trkpt>
      <trkpt lat="43.42649" lon="6.1247">
        <ele>196.39999389648</ele>
        <time>2015-02-18T12:56:22Z</time>
      </trkpt>
      <trkpt lat="43.42662" lon="6.12477">
        <ele>196</ele>
        <time>2015-02-18T12:56:24Z</time>
      </trkpt>
      <trkpt lat="43.42669" lon="6.12479">
        <ele>195.80000305176</ele>
        <time>2015-02-18T12:56:25Z</time>
      </trkpt>
      <trkpt lat="43.42705" lon="6.12482">
        <ele>195.80000305176</ele>
        <time>2015-02-18T12:56:30Z</time>
      </trkpt>
      <trkpt lat="43.42711" lon="6.12482">
        <ele>195.60000610352</ele>
        <time>2015-02-18T12:56:31Z</time>
      </trkpt>
      <trkpt lat="43.42718" lon="6.12482">
        <ele>195.39999389648</ele>
        <time>2015-02-18T12:56:32Z</time>
      </trkpt>
      <trkpt lat="43.42739" lon="6.1248">
        <ele>194.80000305176</ele>
        <time>2015-02-18T12:56:35Z</time>
      </trkpt>
      <trkpt lat="43.42753" lon="6.12479">
        <ele>194.39999389648</ele>
        <time>2015-02-18T12:56:37Z</time>
      </trkpt>
      <trkpt lat="43.42759" lon="6.12477">
        <ele>194.39999389648</ele>
        <time>2015-02-18T12:56:38Z</time>
      </trkpt>
      <trkpt lat="43.42782" lon="6.12467">
        <ele>194.19999694824</ele>
        <time>2015-02-18T12:56:42Z</time>
      </trkpt>
      <trkpt lat="43.42802" lon="6.12454">
        <ele>193.80000305176</ele>
        <time>2015-02-18T12:56:46Z</time>
      </trkpt>
      <trkpt lat="43.42807" lon="6.1245">
        <ele>193.80000305176</ele>
        <time>2015-02-18T12:56:47Z</time>
      </trkpt>
      <trkpt lat="43.42812" lon="6.12445">
        <ele>193.80000305176</ele>
        <time>2015-02-18T12:56:48Z</time>
      </trkpt>
      <trkpt lat="43.4282" lon="6.12435">
        <ele>194</ele>
        <time>2015-02-18T12:56:50Z</time>
      </trkpt>
      <trkpt lat="43.42828" lon="6.12424">
        <ele>194.39999389648</ele>
        <time>2015-02-18T12:56:52Z</time>
      </trkpt>
      <trkpt lat="43.42839" lon="6.12407">
        <ele>194.39999389648</ele>
        <time>2015-02-18T12:56:55Z</time>
      </trkpt>
      <trkpt lat="43.4285" lon="6.1239">
        <ele>194.60000610352</ele>
        <time>2015-02-18T12:56:58Z</time>
      </trkpt>
      <trkpt lat="43.42873" lon="6.12356">
        <ele>194.80000305176</ele>
        <time>2015-02-18T12:57:04Z</time>
      </trkpt>
      <trkpt lat="43.42882" lon="6.12347">
        <ele>194.80000305176</ele>
        <time>2015-02-18T12:57:06Z</time>
      </trkpt>
      <trkpt lat="43.42896" lon="6.12335">
        <ele>195</ele>
        <time>2015-02-18T12:57:09Z</time>
      </trkpt>
      <trkpt lat="43.42902" lon="6.12333">
        <ele>195.19999694824</ele>
        <time>2015-02-18T12:57:10Z</time>
      </trkpt>
      <trkpt lat="43.42913" lon="6.12328">
        <ele>195</ele>
        <time>2015-02-18T12:57:12Z</time>
      </trkpt>
      <trkpt lat="43.42923" lon="6.12324">
        <ele>195.19999694824</ele>
        <time>2015-02-18T12:57:14Z</time>
      </trkpt>
      <trkpt lat="43.42934" lon="6.12322">
        <ele>195.19999694824</ele>
        <time>2015-02-18T12:57:16Z</time>
      </trkpt>
      <trkpt lat="43.42949" lon="6.12322">
        <ele>195.80000305176</ele>
        <time>2015-02-18T12:57:19Z</time>
      </trkpt>
      <trkpt lat="43.42958" lon="6.12324">
        <ele>196.19999694824</ele>
        <time>2015-02-18T12:57:21Z</time>
      </trkpt>
      <trkpt lat="43.42967" lon="6.12331">
        <ele>196.39999389648</ele>
        <time>2015-02-18T12:57:23Z</time>
      </trkpt>
      <trkpt lat="43.4297" lon="6.12336">
        <ele>196.60000610352</ele>
        <time>2015-02-18T12:57:24Z</time>
      </trkpt>
      <trkpt lat="43.42976" lon="6.12363">
        <ele>196.80000305176</ele>
        <time>2015-02-18T12:57:28Z</time>
      </trkpt>
      <trkpt lat="43.42977" lon="6.12369">
        <ele>197</ele>
        <time>2015-02-18T12:57:29Z</time>
      </trkpt>
      <trkpt lat="43.42986" lon="6.12406">
        <ele>196.60000610352</ele>
        <time>2015-02-18T12:57:35Z</time>
      </trkpt>
      <trkpt lat="43.42999" lon="6.12454">
        <ele>195.39999389648</ele>
        <time>2015-02-18T12:57:41Z</time>
      </trkpt>
      <trkpt lat="43.43007" lon="6.125">
        <ele>194.19999694824</ele>
        <time>2015-02-18T12:57:46Z</time>
      </trkpt>
      <trkpt lat="43.43012" lon="6.12527">
        <ele>193.39999389648</ele>
        <time>2015-02-18T12:57:49Z</time>
      </trkpt>
      <trkpt lat="43.43016" lon="6.12552">
        <ele>193.19999694824</ele>
        <time>2015-02-18T12:57:52Z</time>
      </trkpt>
      <trkpt lat="43.4302" lon="6.12595">
        <ele>192.60000610352</ele>
        <time>2015-02-18T12:57:57Z</time>
      </trkpt>
      <trkpt lat="43.43019" lon="6.12643">
        <ele>192.19999694824</ele>
        <time>2015-02-18T12:58:03Z</time>
      </trkpt>
      <trkpt lat="43.43018" lon="6.12723">
        <ele>192.19999694824</ele>
        <time>2015-02-18T12:58:13Z</time>
      </trkpt>
      <trkpt lat="43.43017" lon="6.12746">
        <ele>192.39999389648</ele>
        <time>2015-02-18T12:58:16Z</time>
      </trkpt>
      <trkpt lat="43.43019" lon="6.12812">
        <ele>192</ele>
        <time>2015-02-18T12:58:25Z</time>
      </trkpt>
      <trkpt lat="43.43032" lon="6.12873">
        <ele>192.60000610352</ele>
        <time>2015-02-18T12:58:34Z</time>
      </trkpt>
      <trkpt lat="43.43044" lon="6.12924">
        <ele>191.80000305176</ele>
        <time>2015-02-18T12:58:42Z</time>
      </trkpt>
      <trkpt lat="43.43049" lon="6.12943">
        <ele>192</ele>
        <time>2015-02-18T12:58:45Z</time>
      </trkpt>
      <trkpt lat="43.43058" lon="6.12976">
        <ele>191.80000305176</ele>
        <time>2015-02-18T12:58:50Z</time>
      </trkpt>
      <trkpt lat="43.43075" lon="6.1304">
        <ele>192</ele>
        <time>2015-02-18T12:59:00Z</time>
      </trkpt>
      <trkpt lat="43.43086" lon="6.13082">
        <ele>191.19999694824</ele>
        <time>2015-02-18T12:59:07Z</time>
      </trkpt>
      <trkpt lat="43.43088" lon="6.13093">
        <ele>191.39999389648</ele>
        <time>2015-02-18T12:59:09Z</time>
      </trkpt>
      <trkpt lat="43.43097" lon="6.13131">
        <ele>191.60000610352</ele>
        <time>2015-02-18T12:59:16Z</time>
      </trkpt>
      <trkpt lat="43.43111" lon="6.13185">
        <ele>191.39999389648</ele>
        <time>2015-02-18T12:59:25Z</time>
      </trkpt>
      <trkpt lat="43.43122" lon="6.13235">
        <ele>191.80000305176</ele>
        <time>2015-02-18T12:59:34Z</time>
      </trkpt>
      <trkpt lat="43.43129" lon="6.13293">
        <ele>191.80000305176</ele>
        <time>2015-02-18T12:59:44Z</time>
      </trkpt>
      <trkpt lat="43.43134" lon="6.1332">
        <ele>192</ele>
        <time>2015-02-18T12:59:49Z</time>
      </trkpt>
      <trkpt lat="43.4313" lon="6.13365">
        <ele>192.60000610352</ele>
        <time>2015-02-18T12:59:58Z</time>
      </trkpt>
      <trkpt lat="43.43129" lon="6.13374">
        <ele>193.19999694824</ele>
        <time>2015-02-18T13:00:00Z</time>
      </trkpt>
      <trkpt lat="43.43124" lon="6.1341">
        <ele>193.60000610352</ele>
        <time>2015-02-18T13:00:08Z</time>
      </trkpt>
      <trkpt lat="43.43121" lon="6.1344">
        <ele>194.19999694824</ele>
        <time>2015-02-18T13:00:16Z</time>
      </trkpt>
      <trkpt lat="43.43121" lon="6.13444">
        <ele>194.39999389648</ele>
        <time>2015-02-18T13:00:17Z</time>
      </trkpt>
      <trkpt lat="43.43118" lon="6.13472">
        <ele>195.19999694824</ele>
        <time>2015-02-18T13:00:24Z</time>
      </trkpt>
      <trkpt lat="43.43118" lon="6.13481">
        <ele>195.39999389648</ele>
        <time>2015-02-18T13:00:26Z</time>
      </trkpt>
      <trkpt lat="43.43121" lon="6.13515">
        <ele>196</ele>
        <time>2015-02-18T13:00:35Z</time>
      </trkpt>
      <trkpt lat="43.43126" lon="6.13532">
        <ele>196.39999389648</ele>
        <time>2015-02-18T13:00:40Z</time>
      </trkpt>
      <trkpt lat="43.43139" lon="6.13558">
        <ele>197.19999694824</ele>
        <time>2015-02-18T13:00:48Z</time>
      </trkpt>
      <trkpt lat="43.43145" lon="6.13567">
        <ele>197.19999694824</ele>
        <time>2015-02-18T13:00:51Z</time>
      </trkpt>
      <trkpt lat="43.4315" lon="6.13573">
        <ele>197.39999389648</ele>
        <time>2015-02-18T13:00:53Z</time>
      </trkpt>
      <trkpt lat="43.43158" lon="6.13586">
        <ele>197</ele>
        <time>2015-02-18T13:00:57Z</time>
      </trkpt>
      <trkpt lat="43.43173" lon="6.13607">
        <ele>197.80000305176</ele>
        <time>2015-02-18T13:01:04Z</time>
      </trkpt>
      <trkpt lat="43.4318" lon="6.13617">
        <ele>197.80000305176</ele>
        <time>2015-02-18T13:01:08Z</time>
      </trkpt>
      <trkpt lat="43.43182" lon="6.13617">
        <ele>198</ele>
        <time>2015-02-18T13:01:09Z</time>
      </trkpt>
      <trkpt lat="43.43182" lon="6.13613">
        <ele>198</ele>
        <time>2015-02-18T13:01:10Z</time>
      </trkpt>
      <trkpt lat="43.43181" lon="6.13611">
        <ele>198.19999694824</ele>
        <time>2015-02-18T13:01:11Z</time>
      </trkpt>
      <trkpt lat="43.4318" lon="6.1361">
        <ele>198.19999694824</ele>
        <time>2015-02-18T13:01:12Z</time>
      </trkpt>
      <trkpt lat="43.43178" lon="6.13613">
        <ele>197.80000305176</ele>
        <time>2015-02-18T13:01:14Z</time>
      </trkpt>
      <trkpt lat="43.43178" lon="6.13615">
        <ele>197.80000305176</ele>
        <time>2015-02-18T13:01:15Z</time>
      </trkpt>
      <trkpt lat="43.4318" lon="6.13618">
        <ele>197.80000305176</ele>
        <time>2015-02-18T13:01:16Z</time>
      </trkpt>
      <trkpt lat="43.43184" lon="6.13624">
        <ele>198</ele>
        <time>2015-02-18T13:01:18Z</time>
      </trkpt>
      <trkpt lat="43.43194" lon="6.13639">
        <ele>198.39999389648</ele>
        <time>2015-02-18T13:01:23Z</time>
      </trkpt>
      <trkpt lat="43.432" lon="6.13646">
        <ele>198.60000610352</ele>
        <time>2015-02-18T13:01:26Z</time>
      </trkpt>
      <trkpt lat="43.43201" lon="6.13649">
        <ele>198.60000610352</ele>
        <time>2015-02-18T13:01:27Z</time>
      </trkpt>
      <trkpt lat="43.43212" lon="6.13668">
        <ele>198.80000305176</ele>
        <time>2015-02-18T13:01:36Z</time>
      </trkpt>
      <trkpt lat="43.43213" lon="6.1367">
        <ele>198.80000305176</ele>
        <time>2015-02-18T13:01:37Z</time>
      </trkpt>
      <trkpt lat="43.43226" lon="6.13689">
        <ele>199.39999389648</ele>
        <time>2015-02-18T13:01:46Z</time>
      </trkpt>
      <trkpt lat="43.43229" lon="6.13694">
        <ele>199.60000610352</ele>
        <time>2015-02-18T13:01:48Z</time>
      </trkpt>
      <trkpt lat="43.43242" lon="6.13711">
        <ele>200.39999389648</ele>
        <time>2015-02-18T13:01:57Z</time>
      </trkpt>
      <trkpt lat="43.43245" lon="6.13715">
        <ele>200.60000610352</ele>
        <time>2015-02-18T13:01:59Z</time>
      </trkpt>
      <trkpt lat="43.43253" lon="6.13729">
        <ele>200.80000305176</ele>
        <time>2015-02-18T13:02:05Z</time>
      </trkpt>
      <trkpt lat="43.43263" lon="6.13745">
        <ele>201.60000610352</ele>
        <time>2015-02-18T13:02:12Z</time>
      </trkpt>
      <trkpt lat="43.43264" lon="6.13748">
        <ele>201.60000610352</ele>
        <time>2015-02-18T13:02:13Z</time>
      </trkpt>
      <trkpt lat="43.43276" lon="6.13765">
        <ele>202.39999389648</ele>
        <time>2015-02-18T13:02:21Z</time>
      </trkpt>
      <trkpt lat="43.43283" lon="6.13775">
        <ele>202.80000305176</ele>
        <time>2015-02-18T13:02:25Z</time>
      </trkpt>
      <trkpt lat="43.43289" lon="6.13785">
        <ele>203</ele>
        <time>2015-02-18T13:02:29Z</time>
      </trkpt>
      <trkpt lat="43.43303" lon="6.13806">
        <ele>203.80000305176</ele>
        <time>2015-02-18T13:02:36Z</time>
      </trkpt>
      <trkpt lat="43.43306" lon="6.13811">
        <ele>204</ele>
        <time>2015-02-18T13:02:38Z</time>
      </trkpt>
      <trkpt lat="43.43312" lon="6.13819">
        <ele>204.39999389648</ele>
        <time>2015-02-18T13:02:42Z</time>
      </trkpt>
      <trkpt lat="43.43317" lon="6.13825">
        <ele>205</ele>
        <time>2015-02-18T13:02:45Z</time>
      </trkpt>
      <trkpt lat="43.43321" lon="6.13832">
        <ele>205.19999694824</ele>
        <time>2015-02-18T13:02:49Z</time>
      </trkpt>
      <trkpt lat="43.4333" lon="6.13846">
        <ele>205.80000305176</ele>
        <time>2015-02-18T13:02:57Z</time>
      </trkpt>
      <trkpt lat="43.43336" lon="6.13853">
        <ele>206</ele>
        <time>2015-02-18T13:03:02Z</time>
      </trkpt>
      <trkpt lat="43.43338" lon="6.13855">
        <ele>206.19999694824</ele>
        <time>2015-02-18T13:03:03Z</time>
      </trkpt>
      <trkpt lat="43.43344" lon="6.13865">
        <ele>206.39999389648</ele>
        <time>2015-02-18T13:03:09Z</time>
      </trkpt>
      <trkpt lat="43.43351" lon="6.13881">
        <ele>207</ele>
        <time>2015-02-18T13:03:17Z</time>
      </trkpt>
      <trkpt lat="43.43354" lon="6.13911">
        <ele>208</ele>
        <time>2015-02-18T13:03:28Z</time>
      </trkpt>
      <trkpt lat="43.43356" lon="6.13917">
        <ele>208.19999694824</ele>
        <time>2015-02-18T13:03:30Z</time>
      </trkpt>
      <trkpt lat="43.43357" lon="6.13943">
        <ele>208.80000305176</ele>
        <time>2015-02-18T13:03:39Z</time>
      </trkpt>
      <trkpt lat="43.43358" lon="6.13981">
        <ele>210.39999389648</ele>
        <time>2015-02-18T13:03:53Z</time>
      </trkpt>
      <trkpt lat="43.43359" lon="6.13993">
        <ele>211.39999389648</ele>
        <time>2015-02-18T13:03:57Z</time>
      </trkpt>
      <trkpt lat="43.43358" lon="6.14011">
        <ele>212.39999389648</ele>
        <time>2015-02-18T13:04:03Z</time>
      </trkpt>
      <trkpt lat="43.43357" lon="6.14019">
        <ele>212.60000610352</ele>
        <time>2015-02-18T13:04:06Z</time>
      </trkpt>
      <trkpt lat="43.43358" lon="6.14038">
        <ele>213.19999694824</ele>
        <time>2015-02-18T13:04:12Z</time>
      </trkpt>
      <trkpt lat="43.43357" lon="6.14044">
        <ele>213.60000610352</ele>
        <time>2015-02-18T13:04:14Z</time>
      </trkpt>
      <trkpt lat="43.43359" lon="6.14051">
        <ele>213.60000610352</ele>
        <time>2015-02-18T13:04:16Z</time>
      </trkpt>
      <trkpt lat="43.43367" lon="6.14073">
        <ele>213.60000610352</ele>
        <time>2015-02-18T13:04:21Z</time>
      </trkpt>
      <trkpt lat="43.4337" lon="6.14083">
        <ele>213.19999694824</ele>
        <time>2015-02-18T13:04:23Z</time>
      </trkpt>
      <trkpt lat="43.43372" lon="6.14089">
        <ele>213</ele>
        <time>2015-02-18T13:04:24Z</time>
      </trkpt>
      <trkpt lat="43.43374" lon="6.14093">
        <ele>213</ele>
        <time>2015-02-18T13:04:25Z</time>
      </trkpt>
      <trkpt lat="43.43375" lon="6.14099">
        <ele>212.80000305176</ele>
        <time>2015-02-18T13:04:26Z</time>
      </trkpt>
      <trkpt lat="43.43377" lon="6.14104">
        <ele>212.39999389648</ele>
        <time>2015-02-18T13:04:27Z</time>
      </trkpt>
      <trkpt lat="43.43381" lon="6.14115">
        <ele>212.19999694824</ele>
        <time>2015-02-18T13:04:29Z</time>
      </trkpt>
      <trkpt lat="43.43386" lon="6.14124">
        <ele>212.19999694824</ele>
        <time>2015-02-18T13:04:31Z</time>
      </trkpt>
      <trkpt lat="43.4339" lon="6.14131">
        <ele>212</ele>
        <time>2015-02-18T13:04:33Z</time>
      </trkpt>
      <trkpt lat="43.43403" lon="6.14151">
        <ele>212</ele>
        <time>2015-02-18T13:04:38Z</time>
      </trkpt>
      <trkpt lat="43.43415" lon="6.14161">
        <ele>211.60000610352</ele>
        <time>2015-02-18T13:04:42Z</time>
      </trkpt>
      <trkpt lat="43.43418" lon="6.14162">
        <ele>211.60000610352</ele>
        <time>2015-02-18T13:04:43Z</time>
      </trkpt>
      <trkpt lat="43.43419" lon="6.14166">
        <ele>211.39999389648</ele>
        <time>2015-02-18T13:04:45Z</time>
      </trkpt>
      <trkpt lat="43.4342" lon="6.14168">
        <ele>211.39999389648</ele>
        <time>2015-02-18T13:04:49Z</time>
      </trkpt>
      <trkpt lat="43.4342" lon="6.14168">
        <ele>211.39999389648</ele>
        <time>2015-02-18T13:05:02Z</time>
      </trkpt>
      <trkpt lat="43.4342" lon="6.14169">
        <ele>211.60000610352</ele>
        <time>2015-02-18T13:05:12Z</time>
      </trkpt>
      <trkpt lat="43.4342" lon="6.1417">
        <ele>211.39999389648</ele>
        <time>2015-02-18T13:05:27Z</time>
      </trkpt>
      <trkpt lat="43.43419" lon="6.14169">
        <ele>211.19999694824</ele>
        <time>2015-02-18T13:05:40Z</time>
      </trkpt>
      <trkpt lat="43.43419" lon="6.14169">
        <ele>211.39999389648</ele>
        <time>2015-02-18T13:05:48Z</time>
      </trkpt>
      <trkpt lat="43.43419" lon="6.1417">
        <ele>211.39999389648</ele>
        <time>2015-02-18T13:05:49Z</time>
      </trkpt>
      <trkpt lat="43.43417" lon="6.1417">
        <ele>211.39999389648</ele>
        <time>2015-02-18T13:05:52Z</time>
      </trkpt>
      <trkpt lat="43.43417" lon="6.14167">
        <ele>211.39999389648</ele>
        <time>2015-02-18T13:05:54Z</time>
      </trkpt>
      <trkpt lat="43.43419" lon="6.14164">
        <ele>211.39999389648</ele>
        <time>2015-02-18T13:05:58Z</time>
      </trkpt>
      <trkpt lat="43.4342" lon="6.14164">
        <ele>211.39999389648</ele>
        <time>2015-02-18T13:05:59Z</time>
      </trkpt>
      <trkpt lat="43.43425" lon="6.14166">
        <ele>212</ele>
        <time>2015-02-18T13:06:03Z</time>
      </trkpt>
      <trkpt lat="43.43427" lon="6.14168">
        <ele>212.19999694824</ele>
        <time>2015-02-18T13:06:04Z</time>
      </trkpt>
      <trkpt lat="43.43438" lon="6.14171">
        <ele>212.19999694824</ele>
        <time>2015-02-18T13:06:10Z</time>
      </trkpt>
      <trkpt lat="43.43446" lon="6.14172">
        <ele>212.60000610352</ele>
        <time>2015-02-18T13:06:13Z</time>
      </trkpt>
      <trkpt lat="43.43449" lon="6.14173">
        <ele>212.80000305176</ele>
        <time>2015-02-18T13:06:15Z</time>
      </trkpt>
      <trkpt lat="43.43454" lon="6.14174">
        <ele>213</ele>
        <time>2015-02-18T13:06:17Z</time>
      </trkpt>
      <trkpt lat="43.43463" lon="6.14178">
        <ele>213.39999389648</ele>
        <time>2015-02-18T13:06:21Z</time>
      </trkpt>
      <trkpt lat="43.43473" lon="6.14184">
        <ele>213.80000305176</ele>
        <time>2015-02-18T13:06:26Z</time>
      </trkpt>
      <trkpt lat="43.43474" lon="6.14184">
        <ele>213.80000305176</ele>
        <time>2015-02-18T13:06:27Z</time>
      </trkpt>
      <trkpt lat="43.43477" lon="6.14184">
        <ele>214</ele>
        <time>2015-02-18T13:06:28Z</time>
      </trkpt>
      <trkpt lat="43.43481" lon="6.14178">
        <ele>214.39999389648</ele>
        <time>2015-02-18T13:06:31Z</time>
      </trkpt>
      <trkpt lat="43.43482" lon="6.14173">
        <ele>214.80000305176</ele>
        <time>2015-02-18T13:06:33Z</time>
      </trkpt>
      <trkpt lat="43.43483" lon="6.1417">
        <ele>215</ele>
        <time>2015-02-18T13:06:34Z</time>
      </trkpt>
      <trkpt lat="43.43482" lon="6.14161">
        <ele>215.60000610352</ele>
        <time>2015-02-18T13:06:37Z</time>
      </trkpt>
      <trkpt lat="43.43483" lon="6.14153">
        <ele>216</ele>
        <time>2015-02-18T13:06:39Z</time>
      </trkpt>
      <trkpt lat="43.43486" lon="6.14147">
        <ele>216.80000305176</ele>
        <time>2015-02-18T13:06:41Z</time>
      </trkpt>
      <trkpt lat="43.43491" lon="6.14144">
        <ele>217.19999694824</ele>
        <time>2015-02-18T13:06:43Z</time>
      </trkpt>
      <trkpt lat="43.43497" lon="6.14142">
        <ele>218.60000610352</ele>
        <time>2015-02-18T13:06:46Z</time>
      </trkpt>
      <trkpt lat="43.43498" lon="6.14141">
        <ele>218.80000305176</ele>
        <time>2015-02-18T13:06:47Z</time>
      </trkpt>
      <trkpt lat="43.43503" lon="6.14137">
        <ele>219.80000305176</ele>
        <time>2015-02-18T13:06:50Z</time>
      </trkpt>
      <trkpt lat="43.43507" lon="6.14132">
        <ele>221</ele>
        <time>2015-02-18T13:06:53Z</time>
      </trkpt>
      <trkpt lat="43.43508" lon="6.14131">
        <ele>221.39999389648</ele>
        <time>2015-02-18T13:06:54Z</time>
      </trkpt>
      <trkpt lat="43.43512" lon="6.14127">
        <ele>222</ele>
        <time>2015-02-18T13:06:57Z</time>
      </trkpt>
      <trkpt lat="43.43517" lon="6.14122">
        <ele>223</ele>
        <time>2015-02-18T13:07:01Z</time>
      </trkpt>
      <trkpt lat="43.4352" lon="6.14118">
        <ele>223.60000610352</ele>
        <time>2015-02-18T13:07:04Z</time>
      </trkpt>
      <trkpt lat="43.43524" lon="6.14114">
        <ele>223.80000305176</ele>
        <time>2015-02-18T13:07:07Z</time>
      </trkpt>
      <trkpt lat="43.43525" lon="6.14111">
        <ele>224.39999389648</ele>
        <time>2015-02-18T13:07:09Z</time>
      </trkpt>
      <trkpt lat="43.43531" lon="6.141">
        <ele>225.60000610352</ele>
        <time>2015-02-18T13:07:15Z</time>
      </trkpt>
      <trkpt lat="43.43532" lon="6.14098">
        <ele>225.60000610352</ele>
        <time>2015-02-18T13:07:16Z</time>
      </trkpt>
      <trkpt lat="43.43542" lon="6.14078">
        <ele>226.19999694824</ele>
        <time>2015-02-18T13:07:24Z</time>
      </trkpt>
      <trkpt lat="43.43548" lon="6.1407">
        <ele>226</ele>
        <time>2015-02-18T13:07:27Z</time>
      </trkpt>
      <trkpt lat="43.43555" lon="6.1406">
        <ele>226</ele>
        <time>2015-02-18T13:07:30Z</time>
      </trkpt>
      <trkpt lat="43.43561" lon="6.14054">
        <ele>226</ele>
        <time>2015-02-18T13:07:32Z</time>
      </trkpt>
      <trkpt lat="43.43573" lon="6.14035">
        <ele>225.80000305176</ele>
        <time>2015-02-18T13:07:37Z</time>
      </trkpt>
      <trkpt lat="43.43584" lon="6.14015">
        <ele>226.80000305176</ele>
        <time>2015-02-18T13:07:44Z</time>
      </trkpt>
      <trkpt lat="43.43591" lon="6.14">
        <ele>227.80000305176</ele>
        <time>2015-02-18T13:07:50Z</time>
      </trkpt>
      <trkpt lat="43.43592" lon="6.13998">
        <ele>228</ele>
        <time>2015-02-18T13:07:51Z</time>
      </trkpt>
      <trkpt lat="43.43601" lon="6.13978">
        <ele>228.60000610352</ele>
        <time>2015-02-18T13:07:58Z</time>
      </trkpt>
      <trkpt lat="43.43606" lon="6.13968">
        <ele>228.80000305176</ele>
        <time>2015-02-18T13:08:02Z</time>
      </trkpt>
      <trkpt lat="43.43609" lon="6.13961">
        <ele>229.80000305176</ele>
        <time>2015-02-18T13:08:05Z</time>
      </trkpt>
      <trkpt lat="43.43617" lon="6.13946">
        <ele>231</ele>
        <time>2015-02-18T13:08:12Z</time>
      </trkpt>
      <trkpt lat="43.4362" lon="6.1394">
        <ele>232.19999694824</ele>
        <time>2015-02-18T13:08:15Z</time>
      </trkpt>
      <trkpt lat="43.43628" lon="6.13928">
        <ele>233.19999694824</ele>
        <time>2015-02-18T13:08:21Z</time>
      </trkpt>
      <trkpt lat="43.43633" lon="6.1392">
        <ele>233.60000610352</ele>
        <time>2015-02-18T13:08:25Z</time>
      </trkpt>
      <trkpt lat="43.43637" lon="6.13913">
        <ele>234.19999694824</ele>
        <time>2015-02-18T13:08:28Z</time>
      </trkpt>
      <trkpt lat="43.43643" lon="6.13902">
        <ele>235.60000610352</ele>
        <time>2015-02-18T13:08:33Z</time>
      </trkpt>
      <trkpt lat="43.43648" lon="6.13894">
        <ele>236.39999389648</ele>
        <time>2015-02-18T13:08:37Z</time>
      </trkpt>
      <trkpt lat="43.4365" lon="6.13892">
        <ele>236.80000305176</ele>
        <time>2015-02-18T13:08:38Z</time>
      </trkpt>
      <trkpt lat="43.43661" lon="6.13881">
        <ele>238</ele>
        <time>2015-02-18T13:08:45Z</time>
      </trkpt>
      <trkpt lat="43.43668" lon="6.13871">
        <ele>238.80000305176</ele>
        <time>2015-02-18T13:08:50Z</time>
      </trkpt>
      <trkpt lat="43.43678" lon="6.13855">
        <ele>239.19999694824</ele>
        <time>2015-02-18T13:08:57Z</time>
      </trkpt>
      <trkpt lat="43.43688" lon="6.13842">
        <ele>239.39999389648</ele>
        <time>2015-02-18T13:09:03Z</time>
      </trkpt>
      <trkpt lat="43.43699" lon="6.13828">
        <ele>239.39999389648</ele>
        <time>2015-02-18T13:09:09Z</time>
      </trkpt>
      <trkpt lat="43.43705" lon="6.1382">
        <ele>239.19999694824</ele>
        <time>2015-02-18T13:09:12Z</time>
      </trkpt>
      <trkpt lat="43.43713" lon="6.13806">
        <ele>238.80000305176</ele>
        <time>2015-02-18T13:09:16Z</time>
      </trkpt>
      <trkpt lat="43.4373" lon="6.13774">
        <ele>238.80000305176</ele>
        <time>2015-02-18T13:09:24Z</time>
      </trkpt>
      <trkpt lat="43.43744" lon="6.13758">
        <ele>238</ele>
        <time>2015-02-18T13:09:29Z</time>
      </trkpt>
      <trkpt lat="43.43746" lon="6.13755">
        <ele>238</ele>
        <time>2015-02-18T13:09:30Z</time>
      </trkpt>
      <trkpt lat="43.43756" lon="6.13734">
        <ele>239</ele>
        <time>2015-02-18T13:09:35Z</time>
      </trkpt>
      <trkpt lat="43.43762" lon="6.13721">
        <ele>239.60000610352</ele>
        <time>2015-02-18T13:09:38Z</time>
      </trkpt>
      <trkpt lat="43.43768" lon="6.13709">
        <ele>240.80000305176</ele>
        <time>2015-02-18T13:09:41Z</time>
      </trkpt>
      <trkpt lat="43.43777" lon="6.13686">
        <ele>241.80000305176</ele>
        <time>2015-02-18T13:09:46Z</time>
      </trkpt>
      <trkpt lat="43.43779" lon="6.13682">
        <ele>242</ele>
        <time>2015-02-18T13:09:47Z</time>
      </trkpt>
      <trkpt lat="43.43784" lon="6.13666">
        <ele>242.39999389648</ele>
        <time>2015-02-18T13:09:50Z</time>
      </trkpt>
      <trkpt lat="43.43786" lon="6.13656">
        <ele>242.80000305176</ele>
        <time>2015-02-18T13:09:52Z</time>
      </trkpt>
      <trkpt lat="43.43787" lon="6.1365">
        <ele>243</ele>
        <time>2015-02-18T13:09:53Z</time>
      </trkpt>
      <trkpt lat="43.43792" lon="6.1363">
        <ele>243.80000305176</ele>
        <time>2015-02-18T13:09:57Z</time>
      </trkpt>
      <trkpt lat="43.43794" lon="6.13619">
        <ele>244</ele>
        <time>2015-02-18T13:09:59Z</time>
      </trkpt>
      <trkpt lat="43.438" lon="6.13598">
        <ele>244.19999694824</ele>
        <time>2015-02-18T13:10:03Z</time>
      </trkpt>
      <trkpt lat="43.43806" lon="6.13589">
        <ele>244</ele>
        <time>2015-02-18T13:10:05Z</time>
      </trkpt>
      <trkpt lat="43.4382" lon="6.1357">
        <ele>244.39999389648</ele>
        <time>2015-02-18T13:10:10Z</time>
      </trkpt>
      <trkpt lat="43.43827" lon="6.13552">
        <ele>245</ele>
        <time>2015-02-18T13:10:15Z</time>
      </trkpt>
      <trkpt lat="43.43834" lon="6.13531">
        <ele>246</ele>
        <time>2015-02-18T13:10:22Z</time>
      </trkpt>
      <trkpt lat="43.43834" lon="6.13528">
        <ele>246.19999694824</ele>
        <time>2015-02-18T13:10:23Z</time>
      </trkpt>
      <trkpt lat="43.43838" lon="6.13509">
        <ele>247.39999389648</ele>
        <time>2015-02-18T13:10:30Z</time>
      </trkpt>
      <trkpt lat="43.43839" lon="6.13494">
        <ele>248.39999389648</ele>
        <time>2015-02-18T13:10:35Z</time>
      </trkpt>
      <trkpt lat="43.43839" lon="6.13488">
        <ele>249.19999694824</ele>
        <time>2015-02-18T13:10:37Z</time>
      </trkpt>
      <trkpt lat="43.43839" lon="6.13481">
        <ele>249.80000305176</ele>
        <time>2015-02-18T13:10:40Z</time>
      </trkpt>
      <trkpt lat="43.43839" lon="6.13471">
        <ele>250.80000305176</ele>
        <time>2015-02-18T13:10:45Z</time>
      </trkpt>
      <trkpt lat="43.43839" lon="6.13469">
        <ele>251</ele>
        <time>2015-02-18T13:10:46Z</time>
      </trkpt>
      <trkpt lat="43.43839" lon="6.13463">
        <ele>251</ele>
        <time>2015-02-18T13:10:50Z</time>
      </trkpt>
      <trkpt lat="43.43839" lon="6.13457">
        <ele>251.19999694824</ele>
        <time>2015-02-18T13:10:55Z</time>
      </trkpt>
      <trkpt lat="43.43839" lon="6.13456">
        <ele>251</ele>
        <time>2015-02-18T13:10:59Z</time>
      </trkpt>
      <trkpt lat="43.43838" lon="6.13456">
        <ele>251.19999694824</ele>
        <time>2015-02-18T13:11:01Z</time>
      </trkpt>
      <trkpt lat="43.43838" lon="6.13456">
        <ele>251.19999694824</ele>
        <time>2015-02-18T13:11:06Z</time>
      </trkpt>
      <trkpt lat="43.43838" lon="6.13456">
        <ele>251</ele>
        <time>2015-02-18T13:11:12Z</time>
      </trkpt>
      <trkpt lat="43.43838" lon="6.13456">
        <ele>251</ele>
        <time>2015-02-18T13:11:18Z</time>
      </trkpt>
      <trkpt lat="43.43838" lon="6.13455">
        <ele>251.19999694824</ele>
        <time>2015-02-18T13:12:31Z</time>
      </trkpt>
      <trkpt lat="43.43838" lon="6.13455">
        <ele>251.39999389648</ele>
        <time>2015-02-18T13:12:40Z</time>
      </trkpt>
      <trkpt lat="43.43838" lon="6.13455">
        <ele>251.80000305176</ele>
        <time>2015-02-18T13:12:52Z</time>
      </trkpt>
      <trkpt lat="43.43838" lon="6.13455">
        <ele>251.60000610352</ele>
        <time>2015-02-18T13:13:17Z</time>
      </trkpt>
      <trkpt lat="43.43838" lon="6.13455">
        <ele>252</ele>
        <time>2015-02-18T13:14:04Z</time>
      </trkpt>
      <trkpt lat="43.43838" lon="6.13455">
        <ele>251.80000305176</ele>
        <time>2015-02-18T13:14:39Z</time>
      </trkpt>
      <trkpt lat="43.43838" lon="6.13454">
        <ele>252</ele>
        <time>2015-02-18T13:14:52Z</time>
      </trkpt>
      <trkpt lat="43.43837" lon="6.13454">
        <ele>251.80000305176</ele>
        <time>2015-02-18T13:15:00Z</time>
      </trkpt>
      <trkpt lat="43.43837" lon="6.13454">
        <ele>251.80000305176</ele>
        <time>2015-02-18T13:15:12Z</time>
      </trkpt>
      <trkpt lat="43.43837" lon="6.13454">
        <ele>251.60000610352</ele>
        <time>2015-02-18T13:15:14Z</time>
      </trkpt>
      <trkpt lat="43.43837" lon="6.13453">
        <ele>252.19999694824</ele>
        <time>2015-02-18T13:15:27Z</time>
      </trkpt>
      <trkpt lat="43.43837" lon="6.13452">
        <ele>252.19999694824</ele>
        <time>2015-02-18T13:15:29Z</time>
      </trkpt>
      <trkpt lat="43.43838" lon="6.13446">
        <ele>252.39999389648</ele>
        <time>2015-02-18T13:15:32Z</time>
      </trkpt>
      <trkpt lat="43.43838" lon="6.13443">
        <ele>252.39999389648</ele>
        <time>2015-02-18T13:15:33Z</time>
      </trkpt>
      <trkpt lat="43.43839" lon="6.13437">
        <ele>252.60000610352</ele>
        <time>2015-02-18T13:15:35Z</time>
      </trkpt>
      <trkpt lat="43.4384" lon="6.13434">
        <ele>252.80000305176</ele>
        <time>2015-02-18T13:15:36Z</time>
      </trkpt>
      <trkpt lat="43.43841" lon="6.13427">
        <ele>253</ele>
        <time>2015-02-18T13:15:38Z</time>
      </trkpt>
      <trkpt lat="43.43841" lon="6.13423">
        <ele>253</ele>
        <time>2015-02-18T13:15:39Z</time>
      </trkpt>
      <trkpt lat="43.43843" lon="6.13416">
        <ele>253</ele>
        <time>2015-02-18T13:15:41Z</time>
      </trkpt>
      <trkpt lat="43.43849" lon="6.13399">
        <ele>253.80000305176</ele>
        <time>2015-02-18T13:15:46Z</time>
      </trkpt>
      <trkpt lat="43.43856" lon="6.13379">
        <ele>254.39999389648</ele>
        <time>2015-02-18T13:15:52Z</time>
      </trkpt>
      <trkpt lat="43.43858" lon="6.13374">
        <ele>254.60000610352</ele>
        <time>2015-02-18T13:15:54Z</time>
      </trkpt>
      <trkpt lat="43.43858" lon="6.13371">
        <ele>255.19999694824</ele>
        <time>2015-02-18T13:15:55Z</time>
      </trkpt>
      <trkpt lat="43.43863" lon="6.13355">
        <ele>256.39999389648</ele>
        <time>2015-02-18T13:16:00Z</time>
      </trkpt>
      <trkpt lat="43.43864" lon="6.1333">
        <ele>256.60000610352</ele>
        <time>2015-02-18T13:16:07Z</time>
      </trkpt>
      <trkpt lat="43.43864" lon="6.13323">
        <ele>256.79998779297</ele>
        <time>2015-02-18T13:16:09Z</time>
      </trkpt>
      <trkpt lat="43.43863" lon="6.13311">
        <ele>257.39999389648</ele>
        <time>2015-02-18T13:16:12Z</time>
      </trkpt>
      <trkpt lat="43.43861" lon="6.13299">
        <ele>257.79998779297</ele>
        <time>2015-02-18T13:16:16Z</time>
      </trkpt>
      <trkpt lat="43.43861" lon="6.13277">
        <ele>258.79998779297</ele>
        <time>2015-02-18T13:16:22Z</time>
      </trkpt>
      <trkpt lat="43.43861" lon="6.13256">
        <ele>259.79998779297</ele>
        <time>2015-02-18T13:16:29Z</time>
      </trkpt>
      <trkpt lat="43.43862" lon="6.13241">
        <ele>260.79998779297</ele>
        <time>2015-02-18T13:16:34Z</time>
      </trkpt>
      <trkpt lat="43.43863" lon="6.1323">
        <ele>261.20001220703</ele>
        <time>2015-02-18T13:16:38Z</time>
      </trkpt>
      <trkpt lat="43.43863" lon="6.13215">
        <ele>262.20001220703</ele>
        <time>2015-02-18T13:16:45Z</time>
      </trkpt>
      <trkpt lat="43.43863" lon="6.13211">
        <ele>262.39999389648</ele>
        <time>2015-02-18T13:16:47Z</time>
      </trkpt>
      <trkpt lat="43.43864" lon="6.13198">
        <ele>262.39999389648</ele>
        <time>2015-02-18T13:16:52Z</time>
      </trkpt>
      <trkpt lat="43.43864" lon="6.13186">
        <ele>263</ele>
        <time>2015-02-18T13:16:58Z</time>
      </trkpt>
      <trkpt lat="43.43863" lon="6.13182">
        <ele>263.20001220703</ele>
        <time>2015-02-18T13:17:00Z</time>
      </trkpt>
      <trkpt lat="43.43861" lon="6.13175">
        <ele>263.39999389648</ele>
        <time>2015-02-18T13:17:04Z</time>
      </trkpt>
      <trkpt lat="43.43862" lon="6.13171">
        <ele>263.60000610352</ele>
        <time>2015-02-18T13:17:09Z</time>
      </trkpt>
      <trkpt lat="43.43862" lon="6.13169">
        <ele>264</ele>
        <time>2015-02-18T13:17:11Z</time>
      </trkpt>
      <trkpt lat="43.43861" lon="6.13162">
        <ele>264.39999389648</ele>
        <time>2015-02-18T13:17:16Z</time>
      </trkpt>
      <trkpt lat="43.43861" lon="6.13157">
        <ele>265.20001220703</ele>
        <time>2015-02-18T13:17:19Z</time>
      </trkpt>
      <trkpt lat="43.4386" lon="6.13154">
        <ele>265.60000610352</ele>
        <time>2015-02-18T13:17:21Z</time>
      </trkpt>
      <trkpt lat="43.43859" lon="6.13145">
        <ele>266.60000610352</ele>
        <time>2015-02-18T13:17:26Z</time>
      </trkpt>
      <trkpt lat="43.43858" lon="6.13132">
        <ele>267.60000610352</ele>
        <time>2015-02-18T13:17:33Z</time>
      </trkpt>
      <trkpt lat="43.43858" lon="6.1313">
        <ele>267.79998779297</ele>
        <time>2015-02-18T13:17:34Z</time>
      </trkpt>
      <trkpt lat="43.43857" lon="6.13118">
        <ele>269.60000610352</ele>
        <time>2015-02-18T13:17:41Z</time>
      </trkpt>
      <trkpt lat="43.43857" lon="6.13108">
        <ele>270.39999389648</ele>
        <time>2015-02-18T13:17:47Z</time>
      </trkpt>
      <trkpt lat="43.43856" lon="6.13098">
        <ele>271</ele>
        <time>2015-02-18T13:17:53Z</time>
      </trkpt>
      <trkpt lat="43.43856" lon="6.13095">
        <ele>271.39999389648</ele>
        <time>2015-02-18T13:17:55Z</time>
      </trkpt>
      <trkpt lat="43.43856" lon="6.13089">
        <ele>272.20001220703</ele>
        <time>2015-02-18T13:17:58Z</time>
      </trkpt>
      <trkpt lat="43.43858" lon="6.13068">
        <ele>274.39999389648</ele>
        <time>2015-02-18T13:18:10Z</time>
      </trkpt>
      <trkpt lat="43.43858" lon="6.13065">
        <ele>274.60000610352</ele>
        <time>2015-02-18T13:18:12Z</time>
      </trkpt>
      <trkpt lat="43.43859" lon="6.13059">
        <ele>275.20001220703</ele>
        <time>2015-02-18T13:18:16Z</time>
      </trkpt>
      <trkpt lat="43.43859" lon="6.13044">
        <ele>276.60000610352</ele>
        <time>2015-02-18T13:18:24Z</time>
      </trkpt>
      <trkpt lat="43.43859" lon="6.13039">
        <ele>277</ele>
        <time>2015-02-18T13:18:27Z</time>
      </trkpt>
      <trkpt lat="43.43859" lon="6.1303">
        <ele>278.20001220703</ele>
        <time>2015-02-18T13:18:32Z</time>
      </trkpt>
      <trkpt lat="43.43859" lon="6.13022">
        <ele>278.79998779297</ele>
        <time>2015-02-18T13:18:37Z</time>
      </trkpt>
      <trkpt lat="43.43859" lon="6.13017">
        <ele>279.20001220703</ele>
        <time>2015-02-18T13:18:40Z</time>
      </trkpt>
      <trkpt lat="43.43858" lon="6.13007">
        <ele>279.60000610352</ele>
        <time>2015-02-18T13:18:45Z</time>
      </trkpt>
      <trkpt lat="43.43858" lon="6.13">
        <ele>280.20001220703</ele>
        <time>2015-02-18T13:18:49Z</time>
      </trkpt>
      <trkpt lat="43.43856" lon="6.12993">
        <ele>280.79998779297</ele>
        <time>2015-02-18T13:18:53Z</time>
      </trkpt>
      <trkpt lat="43.43856" lon="6.12988">
        <ele>281.20001220703</ele>
        <time>2015-02-18T13:18:55Z</time>
      </trkpt>
      <trkpt lat="43.43854" lon="6.12982">
        <ele>282.39999389648</ele>
        <time>2015-02-18T13:18:58Z</time>
      </trkpt>
      <trkpt lat="43.43854" lon="6.1298">
        <ele>282.39999389648</ele>
        <time>2015-02-18T13:18:59Z</time>
      </trkpt>
      <trkpt lat="43.43853" lon="6.12971">
        <ele>283.39999389648</ele>
        <time>2015-02-18T13:19:03Z</time>
      </trkpt>
      <trkpt lat="43.43852" lon="6.12967">
        <ele>283.60000610352</ele>
        <time>2015-02-18T13:19:05Z</time>
      </trkpt>
      <trkpt lat="43.43852" lon="6.12958">
        <ele>284.39999389648</ele>
        <time>2015-02-18T13:19:09Z</time>
      </trkpt>
      <trkpt lat="43.43853" lon="6.12951">
        <ele>284.79998779297</ele>
        <time>2015-02-18T13:19:12Z</time>
      </trkpt>
      <trkpt lat="43.43855" lon="6.12943">
        <ele>285.60000610352</ele>
        <time>2015-02-18T13:19:16Z</time>
      </trkpt>
      <trkpt lat="43.43856" lon="6.12935">
        <ele>286.79998779297</ele>
        <time>2015-02-18T13:19:21Z</time>
      </trkpt>
      <trkpt lat="43.43859" lon="6.12927">
        <ele>287.60000610352</ele>
        <time>2015-02-18T13:19:27Z</time>
      </trkpt>
      <trkpt lat="43.43861" lon="6.12922">
        <ele>288</ele>
        <time>2015-02-18T13:19:31Z</time>
      </trkpt>
      <trkpt lat="43.4386" lon="6.12909">
        <ele>289.20001220703</ele>
        <time>2015-02-18T13:19:39Z</time>
      </trkpt>
      <trkpt lat="43.43859" lon="6.12894">
        <ele>290.20001220703</ele>
        <time>2015-02-18T13:19:46Z</time>
      </trkpt>
      <trkpt lat="43.43859" lon="6.12889">
        <ele>290.60000610352</ele>
        <time>2015-02-18T13:19:49Z</time>
      </trkpt>
      <trkpt lat="43.43859" lon="6.12887">
        <ele>290.60000610352</ele>
        <time>2015-02-18T13:19:51Z</time>
      </trkpt>
      <trkpt lat="43.43859" lon="6.12881">
        <ele>290.60000610352</ele>
        <time>2015-02-18T13:19:54Z</time>
      </trkpt>
      <trkpt lat="43.4386" lon="6.12875">
        <ele>291.20001220703</ele>
        <time>2015-02-18T13:19:57Z</time>
      </trkpt>
      <trkpt lat="43.4386" lon="6.12865">
        <ele>291</ele>
        <time>2015-02-18T13:20:02Z</time>
      </trkpt>
      <trkpt lat="43.4386" lon="6.1286">
        <ele>291</ele>
        <time>2015-02-18T13:20:04Z</time>
      </trkpt>
      <trkpt lat="43.4386" lon="6.12852">
        <ele>291.39999389648</ele>
        <time>2015-02-18T13:20:07Z</time>
      </trkpt>
      <trkpt lat="43.4386" lon="6.12845">
        <ele>291.39999389648</ele>
        <time>2015-02-18T13:20:09Z</time>
      </trkpt>
      <trkpt lat="43.43861" lon="6.12828">
        <ele>291.60000610352</ele>
        <time>2015-02-18T13:20:14Z</time>
      </trkpt>
      <trkpt lat="43.43865" lon="6.12814">
        <ele>292.39999389648</ele>
        <time>2015-02-18T13:20:20Z</time>
      </trkpt>
      <trkpt lat="43.43866" lon="6.12809">
        <ele>292.39999389648</ele>
        <time>2015-02-18T13:20:22Z</time>
      </trkpt>
      <trkpt lat="43.43872" lon="6.12795">
        <ele>293.60000610352</ele>
        <time>2015-02-18T13:20:30Z</time>
      </trkpt>
      <trkpt lat="43.43876" lon="6.12787">
        <ele>294.60000610352</ele>
        <time>2015-02-18T13:20:35Z</time>
      </trkpt>
      <trkpt lat="43.43879" lon="6.12784">
        <ele>294.60000610352</ele>
        <time>2015-02-18T13:20:37Z</time>
      </trkpt>
      <trkpt lat="43.43886" lon="6.12778">
        <ele>295.20001220703</ele>
        <time>2015-02-18T13:20:44Z</time>
      </trkpt>
      <trkpt lat="43.43888" lon="6.12775">
        <ele>295.60000610352</ele>
        <time>2015-02-18T13:20:47Z</time>
      </trkpt>
      <trkpt lat="43.4389" lon="6.12773">
        <ele>296</ele>
        <time>2015-02-18T13:20:49Z</time>
      </trkpt>
      <trkpt lat="43.43892" lon="6.1277">
        <ele>296.39999389648</ele>
        <time>2015-02-18T13:20:52Z</time>
      </trkpt>
      <trkpt lat="43.43893" lon="6.12766">
        <ele>296.79998779297</ele>
        <time>2015-02-18T13:20:55Z</time>
      </trkpt>
      <trkpt lat="43.43896" lon="6.12763">
        <ele>297.39999389648</ele>
        <time>2015-02-18T13:20:58Z</time>
      </trkpt>
      <trkpt lat="43.43896" lon="6.12762">
        <ele>297.60000610352</ele>
        <time>2015-02-18T13:20:59Z</time>
      </trkpt>
      <trkpt lat="43.43897" lon="6.12761">
        <ele>297.79998779297</ele>
        <time>2015-02-18T13:21:00Z</time>
      </trkpt>
      <trkpt lat="43.439" lon="6.12757">
        <ele>298.79998779297</ele>
        <time>2015-02-18T13:21:04Z</time>
      </trkpt>
      <trkpt lat="43.43904" lon="6.12751">
        <ele>300</ele>
        <time>2015-02-18T13:21:09Z</time>
      </trkpt>
      <trkpt lat="43.43905" lon="6.1275">
        <ele>300.39999389648</ele>
        <time>2015-02-18T13:21:10Z</time>
      </trkpt>
      <trkpt lat="43.43911" lon="6.12745">
        <ele>301.60000610352</ele>
        <time>2015-02-18T13:21:16Z</time>
      </trkpt>
      <trkpt lat="43.43913" lon="6.12744">
        <ele>301.79998779297</ele>
        <time>2015-02-18T13:21:18Z</time>
      </trkpt>
      <trkpt lat="43.43915" lon="6.12742">
        <ele>302.20001220703</ele>
        <time>2015-02-18T13:21:20Z</time>
      </trkpt>
      <trkpt lat="43.43919" lon="6.12736">
        <ele>303</ele>
        <time>2015-02-18T13:21:25Z</time>
      </trkpt>
      <trkpt lat="43.4392" lon="6.12733">
        <ele>303.20001220703</ele>
        <time>2015-02-18T13:21:27Z</time>
      </trkpt>
      <trkpt lat="43.4392" lon="6.12723">
        <ele>304.39999389648</ele>
        <time>2015-02-18T13:21:33Z</time>
      </trkpt>
      <trkpt lat="43.4392" lon="6.12722">
        <ele>304.39999389648</ele>
        <time>2015-02-18T13:21:34Z</time>
      </trkpt>
      <trkpt lat="43.43922" lon="6.12716">
        <ele>305</ele>
        <time>2015-02-18T13:21:41Z</time>
      </trkpt>
      <trkpt lat="43.43922" lon="6.12716">
        <ele>304.79998779297</ele>
        <time>2015-02-18T13:21:49Z</time>
      </trkpt>
      <trkpt lat="43.43922" lon="6.12716">
        <ele>304.60000610352</ele>
        <time>2015-02-18T13:22:11Z</time>
      </trkpt>
      <trkpt lat="43.43922" lon="6.12715">
        <ele>305</ele>
        <time>2015-02-18T13:23:44Z</time>
      </trkpt>
      <trkpt lat="43.43922" lon="6.12715">
        <ele>304.60000610352</ele>
        <time>2015-02-18T13:25:05Z</time>
      </trkpt>
      <trkpt lat="43.43922" lon="6.12715">
        <ele>304.79998779297</ele>
        <time>2015-02-18T13:25:34Z</time>
      </trkpt>
      <trkpt lat="43.43924" lon="6.12714">
        <ele>305</ele>
        <time>2015-02-18T13:25:54Z</time>
      </trkpt>
      <trkpt lat="43.43925" lon="6.12711">
        <ele>305</ele>
        <time>2015-02-18T13:25:56Z</time>
      </trkpt>
      <trkpt lat="43.43933" lon="6.127">
        <ele>304.79998779297</ele>
        <time>2015-02-18T13:26:02Z</time>
      </trkpt>
      <trkpt lat="43.43948" lon="6.12695">
        <ele>305.39999389648</ele>
        <time>2015-02-18T13:26:08Z</time>
      </trkpt>
      <trkpt lat="43.43955" lon="6.12693">
        <ele>305.20001220703</ele>
        <time>2015-02-18T13:26:10Z</time>
      </trkpt>
      <trkpt lat="43.43963" lon="6.12688">
        <ele>306.39999389648</ele>
        <time>2015-02-18T13:26:13Z</time>
      </trkpt>
      <trkpt lat="43.43966" lon="6.12686">
        <ele>306.60000610352</ele>
        <time>2015-02-18T13:26:14Z</time>
      </trkpt>
      <trkpt lat="43.43974" lon="6.12677">
        <ele>307.20001220703</ele>
        <time>2015-02-18T13:26:18Z</time>
      </trkpt>
      <trkpt lat="43.43977" lon="6.12675">
        <ele>307.20001220703</ele>
        <time>2015-02-18T13:26:19Z</time>
      </trkpt>
      <trkpt lat="43.4398" lon="6.1267">
        <ele>306.79998779297</ele>
        <time>2015-02-18T13:26:21Z</time>
      </trkpt>
      <trkpt lat="43.43981" lon="6.12669">
        <ele>306.60000610352</ele>
        <time>2015-02-18T13:26:22Z</time>
      </trkpt>
      <trkpt lat="43.43982" lon="6.12667">
        <ele>306.39999389648</ele>
        <time>2015-02-18T13:26:25Z</time>
      </trkpt>
      <trkpt lat="43.43982" lon="6.12667">
        <ele>306.39999389648</ele>
        <time>2015-02-18T13:26:26Z</time>
      </trkpt>
      <trkpt lat="43.43983" lon="6.12667">
        <ele>305.79998779297</ele>
        <time>2015-02-18T13:26:32Z</time>
      </trkpt>
      <trkpt lat="43.43983" lon="6.12666">
        <ele>305.79998779297</ele>
        <time>2015-02-18T13:26:38Z</time>
      </trkpt>
      <trkpt lat="43.43983" lon="6.12666">
        <ele>305.79998779297</ele>
        <time>2015-02-18T13:26:44Z</time>
      </trkpt>
      <trkpt lat="43.43983" lon="6.12666">
        <ele>305.79998779297</ele>
        <time>2015-02-18T13:27:06Z</time>
      </trkpt>
      <trkpt lat="43.43983" lon="6.12666">
        <ele>306</ele>
        <time>2015-02-18T13:27:13Z</time>
      </trkpt>
      <trkpt lat="43.43983" lon="6.12665">
        <ele>305.79998779297</ele>
        <time>2015-02-18T13:27:32Z</time>
      </trkpt>
      <trkpt lat="43.43983" lon="6.12664">
        <ele>305.39999389648</ele>
        <time>2015-02-18T13:27:38Z</time>
      </trkpt>
      <trkpt lat="43.43983" lon="6.12663">
        <ele>305.39999389648</ele>
        <time>2015-02-18T13:27:39Z</time>
      </trkpt>
      <trkpt lat="43.43985" lon="6.12654">
        <ele>305.39999389648</ele>
        <time>2015-02-18T13:27:42Z</time>
      </trkpt>
      <trkpt lat="43.43988" lon="6.12646">
        <ele>305</ele>
        <time>2015-02-18T13:27:44Z</time>
      </trkpt>
      <trkpt lat="43.43992" lon="6.12631">
        <ele>304</ele>
        <time>2015-02-18T13:27:47Z</time>
      </trkpt>
      <trkpt lat="43.43996" lon="6.12617">
        <ele>303.39999389648</ele>
        <time>2015-02-18T13:27:49Z</time>
      </trkpt>
      <trkpt lat="43.43998" lon="6.12609">
        <ele>303.20001220703</ele>
        <time>2015-02-18T13:27:50Z</time>
      </trkpt>
      <trkpt lat="43.44" lon="6.126">
        <ele>302.20001220703</ele>
        <time>2015-02-18T13:27:51Z</time>
      </trkpt>
      <trkpt lat="43.44003" lon="6.12591">
        <ele>301</ele>
        <time>2015-02-18T13:27:52Z</time>
      </trkpt>
      <trkpt lat="43.44007" lon="6.12574">
        <ele>299.79998779297</ele>
        <time>2015-02-18T13:27:54Z</time>
      </trkpt>
      <trkpt lat="43.4401" lon="6.12556">
        <ele>298.20001220703</ele>
        <time>2015-02-18T13:27:56Z</time>
      </trkpt>
      <trkpt lat="43.44013" lon="6.12536">
        <ele>297</ele>
        <time>2015-02-18T13:27:58Z</time>
      </trkpt>
      <trkpt lat="43.44013" lon="6.12527">
        <ele>296</ele>
        <time>2015-02-18T13:27:59Z</time>
      </trkpt>
      <trkpt lat="43.44015" lon="6.12509">
        <ele>294.79998779297</ele>
        <time>2015-02-18T13:28:01Z</time>
      </trkpt>
      <trkpt lat="43.44015" lon="6.12486">
        <ele>293.60000610352</ele>
        <time>2015-02-18T13:28:04Z</time>
      </trkpt>
      <trkpt lat="43.4401" lon="6.12461">
        <ele>292.39999389648</ele>
        <time>2015-02-18T13:28:08Z</time>
      </trkpt>
      <trkpt lat="43.4401" lon="6.12455">
        <ele>292.20001220703</ele>
        <time>2015-02-18T13:28:09Z</time>
      </trkpt>
      <trkpt lat="43.44007" lon="6.12441">
        <ele>291</ele>
        <time>2015-02-18T13:28:11Z</time>
      </trkpt>
      <trkpt lat="43.44001" lon="6.1242">
        <ele>290.79998779297</ele>
        <time>2015-02-18T13:28:14Z</time>
      </trkpt>
      <trkpt lat="43.43991" lon="6.12402">
        <ele>289.79998779297</ele>
        <time>2015-02-18T13:28:17Z</time>
      </trkpt>
      <trkpt lat="43.43988" lon="6.12396">
        <ele>289.39999389648</ele>
        <time>2015-02-18T13:28:18Z</time>
      </trkpt>
      <trkpt lat="43.43985" lon="6.1239">
        <ele>289.60000610352</ele>
        <time>2015-02-18T13:28:19Z</time>
      </trkpt>
      <trkpt lat="43.43979" lon="6.12376">
        <ele>289</ele>
        <time>2015-02-18T13:28:21Z</time>
      </trkpt>
      <trkpt lat="43.43972" lon="6.12363">
        <ele>287.20001220703</ele>
        <time>2015-02-18T13:28:23Z</time>
      </trkpt>
      <trkpt lat="43.43969" lon="6.12358">
        <ele>286.39999389648</ele>
        <time>2015-02-18T13:28:24Z</time>
      </trkpt>
      <trkpt lat="43.43968" lon="6.12354">
        <ele>286</ele>
        <time>2015-02-18T13:28:25Z</time>
      </trkpt>
      <trkpt lat="43.43967" lon="6.1235">
        <ele>285.60000610352</ele>
        <time>2015-02-18T13:28:27Z</time>
      </trkpt>
      <trkpt lat="43.43964" lon="6.1234">
        <ele>285.60000610352</ele>
        <time>2015-02-18T13:28:33Z</time>
      </trkpt>
      <trkpt lat="43.43964" lon="6.12328">
        <ele>285.20001220703</ele>
        <time>2015-02-18T13:28:41Z</time>
      </trkpt>
      <trkpt lat="43.43966" lon="6.12313">
        <ele>285.39999389648</ele>
        <time>2015-02-18T13:28:49Z</time>
      </trkpt>
      <trkpt lat="43.43966" lon="6.12299">
        <ele>285.39999389648</ele>
        <time>2015-02-18T13:28:55Z</time>
      </trkpt>
      <trkpt lat="43.43968" lon="6.12281">
        <ele>285.60000610352</ele>
        <time>2015-02-18T13:28:59Z</time>
      </trkpt>
      <trkpt lat="43.43971" lon="6.12266">
        <ele>285.20001220703</ele>
        <time>2015-02-18T13:29:02Z</time>
      </trkpt>
      <trkpt lat="43.43974" lon="6.12254">
        <ele>284.39999389648</ele>
        <time>2015-02-18T13:29:04Z</time>
      </trkpt>
      <trkpt lat="43.43977" lon="6.12239">
        <ele>283.79998779297</ele>
        <time>2015-02-18T13:29:06Z</time>
      </trkpt>
      <trkpt lat="43.43978" lon="6.12221">
        <ele>283.60000610352</ele>
        <time>2015-02-18T13:29:08Z</time>
      </trkpt>
      <trkpt lat="43.43979" lon="6.12201">
        <ele>284.79998779297</ele>
        <time>2015-02-18T13:29:10Z</time>
      </trkpt>
      <trkpt lat="43.4398" lon="6.1218">
        <ele>284.60000610352</ele>
        <time>2015-02-18T13:29:12Z</time>
      </trkpt>
      <trkpt lat="43.4398" lon="6.12169">
        <ele>283.79998779297</ele>
        <time>2015-02-18T13:29:13Z</time>
      </trkpt>
      <trkpt lat="43.43981" lon="6.12158">
        <ele>283.39999389648</ele>
        <time>2015-02-18T13:29:14Z</time>
      </trkpt>
      <trkpt lat="43.43982" lon="6.12135">
        <ele>282.79998779297</ele>
        <time>2015-02-18T13:29:16Z</time>
      </trkpt>
      <trkpt lat="43.43982" lon="6.12124">
        <ele>282.39999389648</ele>
        <time>2015-02-18T13:29:17Z</time>
      </trkpt>
      <trkpt lat="43.43985" lon="6.12102">
        <ele>281.79998779297</ele>
        <time>2015-02-18T13:29:19Z</time>
      </trkpt>
      <trkpt lat="43.43986" lon="6.12082">
        <ele>281</ele>
        <time>2015-02-18T13:29:21Z</time>
      </trkpt>
      <trkpt lat="43.43986" lon="6.12073">
        <ele>280.20001220703</ele>
        <time>2015-02-18T13:29:22Z</time>
      </trkpt>
      <trkpt lat="43.43985" lon="6.12064">
        <ele>279.39999389648</ele>
        <time>2015-02-18T13:29:23Z</time>
      </trkpt>
      <trkpt lat="43.43984" lon="6.12054">
        <ele>279.20001220703</ele>
        <time>2015-02-18T13:29:24Z</time>
      </trkpt>
      <trkpt lat="43.4398" lon="6.12036">
        <ele>279</ele>
        <time>2015-02-18T13:29:26Z</time>
      </trkpt>
      <trkpt lat="43.43974" lon="6.12017">
        <ele>279</ele>
        <time>2015-02-18T13:29:28Z</time>
      </trkpt>
      <trkpt lat="43.43967" lon="6.12">
        <ele>278.20001220703</ele>
        <time>2015-02-18T13:29:30Z</time>
      </trkpt>
      <trkpt lat="43.4396" lon="6.11972">
        <ele>278</ele>
        <time>2015-02-18T13:29:33Z</time>
      </trkpt>
      <trkpt lat="43.43957" lon="6.11963">
        <ele>276.20001220703</ele>
        <time>2015-02-18T13:29:34Z</time>
      </trkpt>
      <trkpt lat="43.43956" lon="6.11954">
        <ele>274.39999389648</ele>
        <time>2015-02-18T13:29:35Z</time>
      </trkpt>
      <trkpt lat="43.43955" lon="6.11948">
        <ele>274.20001220703</ele>
        <time>2015-02-18T13:29:36Z</time>
      </trkpt>
      <trkpt lat="43.43958" lon="6.11941">
        <ele>273.60000610352</ele>
        <time>2015-02-18T13:29:39Z</time>
      </trkpt>
      <trkpt lat="43.43959" lon="6.11939">
        <ele>273.79998779297</ele>
        <time>2015-02-18T13:29:45Z</time>
      </trkpt>
      <trkpt lat="43.43959" lon="6.11939">
        <ele>273.79998779297</ele>
        <time>2015-02-18T13:29:48Z</time>
      </trkpt>
      <trkpt lat="43.43959" lon="6.11939">
        <ele>273.79998779297</ele>
        <time>2015-02-18T13:29:52Z</time>
      </trkpt>
      <trkpt lat="43.43959" lon="6.11938">
        <ele>273.79998779297</ele>
        <time>2015-02-18T13:29:56Z</time>
      </trkpt>
      <trkpt lat="43.43959" lon="6.11939">
        <ele>273.79998779297</ele>
        <time>2015-02-18T13:30:00Z</time>
      </trkpt>
      <trkpt lat="43.43959" lon="6.11939">
        <ele>273.39999389648</ele>
        <time>2015-02-18T13:30:11Z</time>
      </trkpt>
      <trkpt lat="43.43959" lon="6.11939">
        <ele>273.60000610352</ele>
        <time>2015-02-18T13:30:20Z</time>
      </trkpt>
      <trkpt lat="43.43959" lon="6.11938">
        <ele>273.79998779297</ele>
        <time>2015-02-18T13:30:32Z</time>
      </trkpt>
      <trkpt lat="43.43959" lon="6.11938">
        <ele>273.60000610352</ele>
        <time>2015-02-18T13:30:42Z</time>
      </trkpt>
      <trkpt lat="43.4396" lon="6.11938">
        <ele>273.39999389648</ele>
        <time>2015-02-18T13:30:46Z</time>
      </trkpt>
      <trkpt lat="43.43961" lon="6.11935">
        <ele>273.79998779297</ele>
        <time>2015-02-18T13:30:48Z</time>
      </trkpt>
      <trkpt lat="43.43963" lon="6.11933">
        <ele>274.39999389648</ele>
        <time>2015-02-18T13:30:51Z</time>
      </trkpt>
      <trkpt lat="43.43962" lon="6.11933">
        <ele>274.39999389648</ele>
        <time>2015-02-18T13:30:53Z</time>
      </trkpt>
      <trkpt lat="43.43963" lon="6.11933">
        <ele>274.20001220703</ele>
        <time>2015-02-18T13:31:02Z</time>
      </trkpt>
      <trkpt lat="43.43963" lon="6.11933">
        <ele>274.39999389648</ele>
        <time>2015-02-18T13:31:12Z</time>
      </trkpt>
      <trkpt lat="43.43963" lon="6.11933">
        <ele>274.60000610352</ele>
        <time>2015-02-18T13:31:19Z</time>
      </trkpt>
      <trkpt lat="43.43966" lon="6.11929">
        <ele>274.79998779297</ele>
        <time>2015-02-18T13:31:24Z</time>
      </trkpt>
      <trkpt lat="43.43967" lon="6.11926">
        <ele>275.39999389648</ele>
        <time>2015-02-18T13:31:26Z</time>
      </trkpt>
      <trkpt lat="43.43969" lon="6.11924">
        <ele>275.79998779297</ele>
        <time>2015-02-18T13:31:27Z</time>
      </trkpt>
      <trkpt lat="43.43972" lon="6.11919">
        <ele>276.20001220703</ele>
        <time>2015-02-18T13:31:30Z</time>
      </trkpt>
      <trkpt lat="43.43974" lon="6.11915">
        <ele>277</ele>
        <time>2015-02-18T13:31:32Z</time>
      </trkpt>
      <trkpt lat="43.43978" lon="6.11907">
        <ele>277.60000610352</ele>
        <time>2015-02-18T13:31:36Z</time>
      </trkpt>
      <trkpt lat="43.43984" lon="6.11891">
        <ele>278.20001220703</ele>
        <time>2015-02-18T13:31:41Z</time>
      </trkpt>
      <trkpt lat="43.43989" lon="6.11882">
        <ele>279</ele>
        <time>2015-02-18T13:31:44Z</time>
      </trkpt>
      <trkpt lat="43.4399" lon="6.11878">
        <ele>279.39999389648</ele>
        <time>2015-02-18T13:31:45Z</time>
      </trkpt>
      <trkpt lat="43.43996" lon="6.11862">
        <ele>279.60000610352</ele>
        <time>2015-02-18T13:31:50Z</time>
      </trkpt>
      <trkpt lat="43.43999" lon="6.11853">
        <ele>279.79998779297</ele>
        <time>2015-02-18T13:31:53Z</time>
      </trkpt>
      <trkpt lat="43.44007" lon="6.11833">
        <ele>279.79998779297</ele>
        <time>2015-02-18T13:31:59Z</time>
      </trkpt>
      <trkpt lat="43.44013" lon="6.11818">
        <ele>280.60000610352</ele>
        <time>2015-02-18T13:32:04Z</time>
      </trkpt>
      <trkpt lat="43.44017" lon="6.11798">
        <ele>281.39999389648</ele>
        <time>2015-02-18T13:32:10Z</time>
      </trkpt>
      <trkpt lat="43.44019" lon="6.11791">
        <ele>281.79998779297</ele>
        <time>2015-02-18T13:32:12Z</time>
      </trkpt>
      <trkpt lat="43.44023" lon="6.11777">
        <ele>282.39999389648</ele>
        <time>2015-02-18T13:32:16Z</time>
      </trkpt>
      <trkpt lat="43.44029" lon="6.11755">
        <ele>283</ele>
        <time>2015-02-18T13:32:23Z</time>
      </trkpt>
      <trkpt lat="43.44032" lon="6.11734">
        <ele>283.39999389648</ele>
        <time>2015-02-18T13:32:29Z</time>
      </trkpt>
      <trkpt lat="43.44033" lon="6.11718">
        <ele>284</ele>
        <time>2015-02-18T13:32:34Z</time>
      </trkpt>
      <trkpt lat="43.44036" lon="6.11702">
        <ele>284.60000610352</ele>
        <time>2015-02-18T13:32:39Z</time>
      </trkpt>
      <trkpt lat="43.44038" lon="6.1169">
        <ele>285</ele>
        <time>2015-02-18T13:32:43Z</time>
      </trkpt>
      <trkpt lat="43.44039" lon="6.11685">
        <ele>285.39999389648</ele>
        <time>2015-02-18T13:32:45Z</time>
      </trkpt>
      <trkpt lat="43.44041" lon="6.11668">
        <ele>286.20001220703</ele>
        <time>2015-02-18T13:32:51Z</time>
      </trkpt>
      <trkpt lat="43.44042" lon="6.11665">
        <ele>286</ele>
        <time>2015-02-18T13:32:52Z</time>
      </trkpt>
      <trkpt lat="43.44048" lon="6.11646">
        <ele>286.60000610352</ele>
        <time>2015-02-18T13:32:59Z</time>
      </trkpt>
      <trkpt lat="43.44056" lon="6.1163">
        <ele>287.20001220703</ele>
        <time>2015-02-18T13:33:06Z</time>
      </trkpt>
      <trkpt lat="43.44057" lon="6.11629">
        <ele>287.20001220703</ele>
        <time>2015-02-18T13:33:07Z</time>
      </trkpt>
      <trkpt lat="43.44065" lon="6.11615">
        <ele>288.39999389648</ele>
        <time>2015-02-18T13:33:15Z</time>
      </trkpt>
      <trkpt lat="43.44067" lon="6.11606">
        <ele>289.60000610352</ele>
        <time>2015-02-18T13:33:20Z</time>
      </trkpt>
      <trkpt lat="43.44067" lon="6.11598">
        <ele>289.79998779297</ele>
        <time>2015-02-18T13:33:24Z</time>
      </trkpt>
      <trkpt lat="43.4406" lon="6.11592">
        <ele>290.79998779297</ele>
        <time>2015-02-18T13:33:30Z</time>
      </trkpt>
      <trkpt lat="43.44049" lon="6.1159">
        <ele>291.39999389648</ele>
        <time>2015-02-18T13:33:37Z</time>
      </trkpt>
      <trkpt lat="43.44044" lon="6.11581">
        <ele>292.20001220703</ele>
        <time>2015-02-18T13:33:43Z</time>
      </trkpt>
      <trkpt lat="43.44045" lon="6.11574">
        <ele>292.79998779297</ele>
        <time>2015-02-18T13:33:47Z</time>
      </trkpt>
      <trkpt lat="43.44046" lon="6.11562">
        <ele>293.79998779297</ele>
        <time>2015-02-18T13:33:54Z</time>
      </trkpt>
      <trkpt lat="43.44048" lon="6.11553">
        <ele>294.60000610352</ele>
        <time>2015-02-18T13:33:59Z</time>
      </trkpt>
      <trkpt lat="43.44049" lon="6.11539">
        <ele>295.79998779297</ele>
        <time>2015-02-18T13:34:07Z</time>
      </trkpt>
      <trkpt lat="43.44052" lon="6.1153">
        <ele>296.60000610352</ele>
        <time>2015-02-18T13:34:13Z</time>
      </trkpt>
      <trkpt lat="43.44052" lon="6.11528">
        <ele>296.60000610352</ele>
        <time>2015-02-18T13:34:14Z</time>
      </trkpt>
      <trkpt lat="43.44051" lon="6.11525">
        <ele>297</ele>
        <time>2015-02-18T13:34:16Z</time>
      </trkpt>
      <trkpt lat="43.4405" lon="6.11519">
        <ele>297.60000610352</ele>
        <time>2015-02-18T13:34:20Z</time>
      </trkpt>
      <trkpt lat="43.44046" lon="6.11513">
        <ele>297.79998779297</ele>
        <time>2015-02-18T13:34:25Z</time>
      </trkpt>
      <trkpt lat="43.44045" lon="6.11511">
        <ele>298</ele>
        <time>2015-02-18T13:34:27Z</time>
      </trkpt>
      <trkpt lat="43.44044" lon="6.11511">
        <ele>298</ele>
        <time>2015-02-18T13:34:28Z</time>
      </trkpt>
      <trkpt lat="43.44044" lon="6.1151">
        <ele>298</ele>
        <time>2015-02-18T13:34:29Z</time>
      </trkpt>
      <trkpt lat="43.44043" lon="6.11509">
        <ele>298.39999389648</ele>
        <time>2015-02-18T13:34:34Z</time>
      </trkpt>
      <trkpt lat="43.44043" lon="6.11509">
        <ele>298.39999389648</ele>
        <time>2015-02-18T13:34:35Z</time>
      </trkpt>
      <trkpt lat="43.44043" lon="6.11508">
        <ele>298.79998779297</ele>
        <time>2015-02-18T13:34:42Z</time>
      </trkpt>
      <trkpt lat="43.44043" lon="6.11509">
        <ele>298.60000610352</ele>
        <time>2015-02-18T13:34:56Z</time>
      </trkpt>
      <trkpt lat="43.44043" lon="6.11508">
        <ele>297.79998779297</ele>
        <time>2015-02-18T13:35:03Z</time>
      </trkpt>
      <trkpt lat="43.44043" lon="6.11508">
        <ele>297.60000610352</ele>
        <time>2015-02-18T13:35:09Z</time>
      </trkpt>
      <trkpt lat="43.44043" lon="6.11508">
        <ele>297.79998779297</ele>
        <time>2015-02-18T13:35:23Z</time>
      </trkpt>
      <trkpt lat="43.44043" lon="6.11507">
        <ele>297.20001220703</ele>
        <time>2015-02-18T13:43:21Z</time>
      </trkpt>
      <trkpt lat="43.44043" lon="6.11506">
        <ele>297.39999389648</ele>
        <time>2015-02-18T13:44:03Z</time>
      </trkpt>
      <trkpt lat="43.44043" lon="6.11506">
        <ele>297.20001220703</ele>
        <time>2015-02-18T13:44:09Z</time>
      </trkpt>
      <trkpt lat="43.44042" lon="6.11506">
        <ele>297.79998779297</ele>
        <time>2015-02-18T13:44:14Z</time>
      </trkpt>
      <trkpt lat="43.44041" lon="6.11506">
        <ele>297.79998779297</ele>
        <time>2015-02-18T13:44:20Z</time>
      </trkpt>
      <trkpt lat="43.44041" lon="6.11507">
        <ele>297.79998779297</ele>
        <time>2015-02-18T13:44:30Z</time>
      </trkpt>
      <trkpt lat="43.4403" lon="6.11507">
        <ele>298.79998779297</ele>
        <time>2015-02-18T13:44:37Z</time>
      </trkpt>
      <trkpt lat="43.44014" lon="6.1151">
        <ele>298.39999389648</ele>
        <time>2015-02-18T13:44:42Z</time>
      </trkpt>
      <trkpt lat="43.44011" lon="6.11512">
        <ele>299.20001220703</ele>
        <time>2015-02-18T13:44:43Z</time>
      </trkpt>
      <trkpt lat="43.44003" lon="6.11516">
        <ele>299.60000610352</ele>
        <time>2015-02-18T13:44:45Z</time>
      </trkpt>
      <trkpt lat="43.43994" lon="6.1152">
        <ele>300.39999389648</ele>
        <time>2015-02-18T13:44:47Z</time>
      </trkpt>
      <trkpt lat="43.43986" lon="6.11524">
        <ele>300.60000610352</ele>
        <time>2015-02-18T13:44:49Z</time>
      </trkpt>
      <trkpt lat="43.43982" lon="6.11527">
        <ele>300.60000610352</ele>
        <time>2015-02-18T13:44:50Z</time>
      </trkpt>
      <trkpt lat="43.43966" lon="6.11537">
        <ele>301.20001220703</ele>
        <time>2015-02-18T13:44:54Z</time>
      </trkpt>
      <trkpt lat="43.43962" lon="6.11541">
        <ele>301</ele>
        <time>2015-02-18T13:44:55Z</time>
      </trkpt>
      <trkpt lat="43.43955" lon="6.11556">
        <ele>301.39999389648</ele>
        <time>2015-02-18T13:44:58Z</time>
      </trkpt>
      <trkpt lat="43.43945" lon="6.11585">
        <ele>303.60000610352</ele>
        <time>2015-02-18T13:45:04Z</time>
      </trkpt>
      <trkpt lat="43.43944" lon="6.11589">
        <ele>303.39999389648</ele>
        <time>2015-02-18T13:45:05Z</time>
      </trkpt>
      <trkpt lat="43.43938" lon="6.11601">
        <ele>304</ele>
        <time>2015-02-18T13:45:08Z</time>
      </trkpt>
      <trkpt lat="43.43933" lon="6.11609">
        <ele>304.20001220703</ele>
        <time>2015-02-18T13:45:11Z</time>
      </trkpt>
      <trkpt lat="43.43911" lon="6.11611">
        <ele>302.79998779297</ele>
        <time>2015-02-18T13:45:17Z</time>
      </trkpt>
      <trkpt lat="43.439" lon="6.11614">
        <ele>302</ele>
        <time>2015-02-18T13:45:20Z</time>
      </trkpt>
      <trkpt lat="43.43896" lon="6.11618">
        <ele>301.60000610352</ele>
        <time>2015-02-18T13:45:21Z</time>
      </trkpt>
      <trkpt lat="43.43888" lon="6.11627">
        <ele>300.20001220703</ele>
        <time>2015-02-18T13:45:23Z</time>
      </trkpt>
      <trkpt lat="43.43884" lon="6.11632">
        <ele>298.60000610352</ele>
        <time>2015-02-18T13:45:24Z</time>
      </trkpt>
      <trkpt lat="43.43881" lon="6.11638">
        <ele>297.60000610352</ele>
        <time>2015-02-18T13:45:25Z</time>
      </trkpt>
      <trkpt lat="43.43879" lon="6.11642">
        <ele>296.79998779297</ele>
        <time>2015-02-18T13:45:26Z</time>
      </trkpt>
      <trkpt lat="43.43877" lon="6.11647">
        <ele>295.39999389648</ele>
        <time>2015-02-18T13:45:27Z</time>
      </trkpt>
      <trkpt lat="43.43875" lon="6.11652">
        <ele>294.20001220703</ele>
        <time>2015-02-18T13:45:28Z</time>
      </trkpt>
      <trkpt lat="43.43869" lon="6.11662">
        <ele>291.79998779297</ele>
        <time>2015-02-18T13:45:30Z</time>
      </trkpt>
      <trkpt lat="43.43863" lon="6.11672">
        <ele>291.20001220703</ele>
        <time>2015-02-18T13:45:32Z</time>
      </trkpt>
      <trkpt lat="43.43859" lon="6.11676">
        <ele>290.20001220703</ele>
        <time>2015-02-18T13:45:33Z</time>
      </trkpt>
      <trkpt lat="43.43856" lon="6.11676">
        <ele>289</ele>
        <time>2015-02-18T13:45:34Z</time>
      </trkpt>
      <trkpt lat="43.43853" lon="6.11674">
        <ele>288.20001220703</ele>
        <time>2015-02-18T13:45:35Z</time>
      </trkpt>
      <trkpt lat="43.4385" lon="6.11669">
        <ele>287.39999389648</ele>
        <time>2015-02-18T13:45:36Z</time>
      </trkpt>
      <trkpt lat="43.43845" lon="6.11657">
        <ele>286.20001220703</ele>
        <time>2015-02-18T13:45:38Z</time>
      </trkpt>
      <trkpt lat="43.43844" lon="6.11642">
        <ele>285.20001220703</ele>
        <time>2015-02-18T13:45:40Z</time>
      </trkpt>
      <trkpt lat="43.43845" lon="6.11625">
        <ele>283.79998779297</ele>
        <time>2015-02-18T13:45:42Z</time>
      </trkpt>
      <trkpt lat="43.43837" lon="6.11597">
        <ele>283.39999389648</ele>
        <time>2015-02-18T13:45:46Z</time>
      </trkpt>
      <trkpt lat="43.43832" lon="6.11591">
        <ele>282.60000610352</ele>
        <time>2015-02-18T13:45:47Z</time>
      </trkpt>
      <trkpt lat="43.43824" lon="6.11579">
        <ele>281.79998779297</ele>
        <time>2015-02-18T13:45:49Z</time>
      </trkpt>
      <trkpt lat="43.43821" lon="6.11574">
        <ele>281.60000610352</ele>
        <time>2015-02-18T13:45:50Z</time>
      </trkpt>
      <trkpt lat="43.43819" lon="6.11569">
        <ele>281.79998779297</ele>
        <time>2015-02-18T13:45:51Z</time>
      </trkpt>
      <trkpt lat="43.43817" lon="6.1155">
        <ele>282.39999389648</ele>
        <time>2015-02-18T13:45:55Z</time>
      </trkpt>
      <trkpt lat="43.43817" lon="6.11544">
        <ele>282.79998779297</ele>
        <time>2015-02-18T13:45:56Z</time>
      </trkpt>
      <trkpt lat="43.43818" lon="6.11538">
        <ele>282.39999389648</ele>
        <time>2015-02-18T13:45:57Z</time>
      </trkpt>
      <trkpt lat="43.43819" lon="6.1153">
        <ele>281.39999389648</ele>
        <time>2015-02-18T13:45:58Z</time>
      </trkpt>
      <trkpt lat="43.4382" lon="6.11524">
        <ele>280.20001220703</ele>
        <time>2015-02-18T13:45:59Z</time>
      </trkpt>
      <trkpt lat="43.43816" lon="6.11508">
        <ele>279.60000610352</ele>
        <time>2015-02-18T13:46:02Z</time>
      </trkpt>
      <trkpt lat="43.43807" lon="6.11505">
        <ele>278.60000610352</ele>
        <time>2015-02-18T13:46:04Z</time>
      </trkpt>
      <trkpt lat="43.43802" lon="6.11503">
        <ele>278</ele>
        <time>2015-02-18T13:46:05Z</time>
      </trkpt>
      <trkpt lat="43.43799" lon="6.11499">
        <ele>276.39999389648</ele>
        <time>2015-02-18T13:46:06Z</time>
      </trkpt>
      <trkpt lat="43.43797" lon="6.11478">
        <ele>274</ele>
        <time>2015-02-18T13:46:09Z</time>
      </trkpt>
      <trkpt lat="43.43797" lon="6.11463">
        <ele>272.79998779297</ele>
        <time>2015-02-18T13:46:11Z</time>
      </trkpt>
      <trkpt lat="43.43798" lon="6.11455">
        <ele>271.20001220703</ele>
        <time>2015-02-18T13:46:12Z</time>
      </trkpt>
      <trkpt lat="43.43799" lon="6.11447">
        <ele>270.20001220703</ele>
        <time>2015-02-18T13:46:13Z</time>
      </trkpt>
      <trkpt lat="43.43801" lon="6.11441">
        <ele>268.20001220703</ele>
        <time>2015-02-18T13:46:14Z</time>
      </trkpt>
      <trkpt lat="43.43807" lon="6.11433">
        <ele>267.20001220703</ele>
        <time>2015-02-18T13:46:16Z</time>
      </trkpt>
      <trkpt lat="43.4381" lon="6.11432">
        <ele>267</ele>
        <time>2015-02-18T13:46:17Z</time>
      </trkpt>
      <trkpt lat="43.43813" lon="6.11429">
        <ele>266</ele>
        <time>2015-02-18T13:46:18Z</time>
      </trkpt>
      <trkpt lat="43.4382" lon="6.11419">
        <ele>264.60000610352</ele>
        <time>2015-02-18T13:46:21Z</time>
      </trkpt>
      <trkpt lat="43.43824" lon="6.11412">
        <ele>263</ele>
        <time>2015-02-18T13:46:23Z</time>
      </trkpt>
      <trkpt lat="43.43829" lon="6.1141">
        <ele>262.60000610352</ele>
        <time>2015-02-18T13:46:24Z</time>
      </trkpt>
      <trkpt lat="43.43837" lon="6.11405">
        <ele>261.20001220703</ele>
        <time>2015-02-18T13:46:26Z</time>
      </trkpt>
      <trkpt lat="43.43844" lon="6.114">
        <ele>259.79998779297</ele>
        <time>2015-02-18T13:46:28Z</time>
      </trkpt>
      <trkpt lat="43.43846" lon="6.11396">
        <ele>259</ele>
        <time>2015-02-18T13:46:29Z</time>
      </trkpt>
      <trkpt lat="43.43847" lon="6.11392">
        <ele>257.79998779297</ele>
        <time>2015-02-18T13:46:30Z</time>
      </trkpt>
      <trkpt lat="43.4385" lon="6.11376">
        <ele>257.60000610352</ele>
        <time>2015-02-18T13:46:33Z</time>
      </trkpt>
      <trkpt lat="43.43848" lon="6.11369">
        <ele>257.39999389648</ele>
        <time>2015-02-18T13:46:34Z</time>
      </trkpt>
      <trkpt lat="43.43839" lon="6.11354">
        <ele>257.39999389648</ele>
        <time>2015-02-18T13:46:37Z</time>
      </trkpt>
      <trkpt lat="43.43827" lon="6.11342">
        <ele>256.79998779297</ele>
        <time>2015-02-18T13:46:40Z</time>
      </trkpt>
      <trkpt lat="43.43822" lon="6.1134">
        <ele>256.39999389648</ele>
        <time>2015-02-18T13:46:41Z</time>
      </trkpt>
      <trkpt lat="43.43813" lon="6.11337">
        <ele>256.20001220703</ele>
        <time>2015-02-18T13:46:43Z</time>
      </trkpt>
      <trkpt lat="43.43798" lon="6.11342">
        <ele>254.80000305176</ele>
        <time>2015-02-18T13:46:46Z</time>
      </trkpt>
      <trkpt lat="43.43794" lon="6.11345">
        <ele>254.19999694824</ele>
        <time>2015-02-18T13:46:47Z</time>
      </trkpt>
      <trkpt lat="43.4379" lon="6.11347">
        <ele>253.39999389648</ele>
        <time>2015-02-18T13:46:48Z</time>
      </trkpt>
      <trkpt lat="43.43786" lon="6.11349">
        <ele>253</ele>
        <time>2015-02-18T13:46:50Z</time>
      </trkpt>
      <trkpt lat="43.43786" lon="6.1135">
        <ele>253.19999694824</ele>
        <time>2015-02-18T13:46:57Z</time>
      </trkpt>
      <trkpt lat="43.43786" lon="6.1135">
        <ele>253</ele>
        <time>2015-02-18T13:46:58Z</time>
      </trkpt>
      <trkpt lat="43.43786" lon="6.1135">
        <ele>253</ele>
        <time>2015-02-18T13:47:00Z</time>
      </trkpt>
      <trkpt lat="43.43786" lon="6.1135">
        <ele>253.39999389648</ele>
        <time>2015-02-18T13:47:22Z</time>
      </trkpt>
      <trkpt lat="43.43786" lon="6.1135">
        <ele>253.39999389648</ele>
        <time>2015-02-18T13:47:24Z</time>
      </trkpt>
      <trkpt lat="43.43786" lon="6.1135">
        <ele>253.19999694824</ele>
        <time>2015-02-18T13:47:40Z</time>
      </trkpt>
      <trkpt lat="43.43786" lon="6.1135">
        <ele>253.60000610352</ele>
        <time>2015-02-18T13:47:59Z</time>
      </trkpt>
      <trkpt lat="43.43786" lon="6.11349">
        <ele>253.19999694824</ele>
        <time>2015-02-18T13:48:56Z</time>
      </trkpt>
      <trkpt lat="43.43785" lon="6.11349">
        <ele>253.39999389648</ele>
        <time>2015-02-18T13:49:02Z</time>
      </trkpt>
      <trkpt lat="43.43782" lon="6.11349">
        <ele>253.60000610352</ele>
        <time>2015-02-18T13:49:05Z</time>
      </trkpt>
      <trkpt lat="43.43784" lon="6.11351">
        <ele>253.60000610352</ele>
        <time>2015-02-18T13:49:09Z</time>
      </trkpt>
      <trkpt lat="43.43787" lon="6.11349">
        <ele>253.39999389648</ele>
        <time>2015-02-18T13:49:13Z</time>
      </trkpt>
      <trkpt lat="43.43792" lon="6.11347">
        <ele>253.39999389648</ele>
        <time>2015-02-18T13:49:18Z</time>
      </trkpt>
      <trkpt lat="43.43796" lon="6.11344">
        <ele>253.60000610352</ele>
        <time>2015-02-18T13:49:21Z</time>
      </trkpt>
      <trkpt lat="43.43797" lon="6.11343">
        <ele>253.80000305176</ele>
        <time>2015-02-18T13:49:22Z</time>
      </trkpt>
      <trkpt lat="43.43803" lon="6.11336">
        <ele>254.39999389648</ele>
        <time>2015-02-18T13:49:27Z</time>
      </trkpt>
      <trkpt lat="43.43808" lon="6.11335">
        <ele>254.60000610352</ele>
        <time>2015-02-18T13:49:29Z</time>
      </trkpt>
      <trkpt lat="43.43818" lon="6.11336">
        <ele>255.39999389648</ele>
        <time>2015-02-18T13:49:34Z</time>
      </trkpt>
      <trkpt lat="43.43828" lon="6.11345">
        <ele>256.20001220703</ele>
        <time>2015-02-18T13:49:40Z</time>
      </trkpt>
      <trkpt lat="43.43835" lon="6.11354">
        <ele>256.79998779297</ele>
        <time>2015-02-18T13:49:44Z</time>
      </trkpt>
      <trkpt lat="43.43841" lon="6.11362">
        <ele>256.79998779297</ele>
        <time>2015-02-18T13:49:47Z</time>
      </trkpt>
      <trkpt lat="43.43847" lon="6.11373">
        <ele>257.20001220703</ele>
        <time>2015-02-18T13:49:51Z</time>
      </trkpt>
      <trkpt lat="43.43844" lon="6.11394">
        <ele>257.79998779297</ele>
        <time>2015-02-18T13:49:59Z</time>
      </trkpt>
      <trkpt lat="43.4384" lon="6.11405">
        <ele>258.79998779297</ele>
        <time>2015-02-18T13:50:05Z</time>
      </trkpt>
      <trkpt lat="43.43838" lon="6.11407">
        <ele>259</ele>
        <time>2015-02-18T13:50:07Z</time>
      </trkpt>
      <trkpt lat="43.43835" lon="6.11409">
        <ele>259.60000610352</ele>
        <time>2015-02-18T13:50:10Z</time>
      </trkpt>
      <trkpt lat="43.43832" lon="6.1141">
        <ele>260.20001220703</ele>
        <time>2015-02-18T13:50:12Z</time>
      </trkpt>
      <trkpt lat="43.43826" lon="6.11414">
        <ele>261.39999389648</ele>
        <time>2015-02-18T13:50:17Z</time>
      </trkpt>
      <trkpt lat="43.43825" lon="6.11414">
        <ele>261.60000610352</ele>
        <time>2015-02-18T13:50:18Z</time>
      </trkpt>
      <trkpt lat="43.43822" lon="6.11416">
        <ele>262.20001220703</ele>
        <time>2015-02-18T13:50:20Z</time>
      </trkpt>
      <trkpt lat="43.43822" lon="6.11418">
        <ele>262.39999389648</ele>
        <time>2015-02-18T13:50:21Z</time>
      </trkpt>
      <trkpt lat="43.43818" lon="6.11426">
        <ele>263.79998779297</ele>
        <time>2015-02-18T13:50:26Z</time>
      </trkpt>
      <trkpt lat="43.43813" lon="6.11431">
        <ele>264.79998779297</ele>
        <time>2015-02-18T13:50:31Z</time>
      </trkpt>
      <trkpt lat="43.43811" lon="6.11433">
        <ele>265</ele>
        <time>2015-02-18T13:50:33Z</time>
      </trkpt>
      <trkpt lat="43.4381" lon="6.11435">
        <ele>265.39999389648</ele>
        <time>2015-02-18T13:50:35Z</time>
      </trkpt>
      <trkpt lat="43.43803" lon="6.11438">
        <ele>266.39999389648</ele>
        <time>2015-02-18T13:50:40Z</time>
      </trkpt>
      <trkpt lat="43.43801" lon="6.1144">
        <ele>266.39999389648</ele>
        <time>2015-02-18T13:50:42Z</time>
      </trkpt>
      <trkpt lat="43.43797" lon="6.11449">
        <ele>267</ele>
        <time>2015-02-18T13:50:48Z</time>
      </trkpt>
      <trkpt lat="43.43796" lon="6.11452">
        <ele>267.20001220703</ele>
        <time>2015-02-18T13:50:50Z</time>
      </trkpt>
      <trkpt lat="43.43797" lon="6.1146">
        <ele>268.20001220703</ele>
        <time>2015-02-18T13:50:55Z</time>
      </trkpt>
      <trkpt lat="43.43797" lon="6.11463">
        <ele>268.60000610352</ele>
        <time>2015-02-18T13:50:57Z</time>
      </trkpt>
      <trkpt lat="43.43798" lon="6.11472">
        <ele>269.60000610352</ele>
        <time>2015-02-18T13:51:03Z</time>
      </trkpt>
      <trkpt lat="43.43798" lon="6.11477">
        <ele>270.79998779297</ele>
        <time>2015-02-18T13:51:07Z</time>
      </trkpt>
      <trkpt lat="43.43799" lon="6.11488">
        <ele>272.60000610352</ele>
        <time>2015-02-18T13:51:15Z</time>
      </trkpt>
      <trkpt lat="43.438" lon="6.115">
        <ele>274</ele>
        <time>2015-02-18T13:51:24Z</time>
      </trkpt>
      <trkpt lat="43.43805" lon="6.11508">
        <ele>275.20001220703</ele>
        <time>2015-02-18T13:51:32Z</time>
      </trkpt>
      <trkpt lat="43.4381" lon="6.11509">
        <ele>276.39999389648</ele>
        <time>2015-02-18T13:51:37Z</time>
      </trkpt>
      <trkpt lat="43.43813" lon="6.11509">
        <ele>277</ele>
        <time>2015-02-18T13:51:39Z</time>
      </trkpt>
      <trkpt lat="43.43815" lon="6.11508">
        <ele>277.39999389648</ele>
        <time>2015-02-18T13:51:41Z</time>
      </trkpt>
      <trkpt lat="43.43817" lon="6.11508">
        <ele>277.60000610352</ele>
        <time>2015-02-18T13:51:43Z</time>
      </trkpt>
      <trkpt lat="43.43819" lon="6.11512">
        <ele>278.60000610352</ele>
        <time>2015-02-18T13:51:47Z</time>
      </trkpt>
      <trkpt lat="43.43821" lon="6.11517">
        <ele>279.20001220703</ele>
        <time>2015-02-18T13:51:51Z</time>
      </trkpt>
      <trkpt lat="43.43821" lon="6.11526">
        <ele>279.79998779297</ele>
        <time>2015-02-18T13:51:58Z</time>
      </trkpt>
      <trkpt lat="43.43817" lon="6.11558">
        <ele>282.20001220703</ele>
        <time>2015-02-18T13:52:18Z</time>
      </trkpt>
      <trkpt lat="43.43817" lon="6.11564">
        <ele>282.39999389648</ele>
        <time>2015-02-18T13:52:21Z</time>
      </trkpt>
      <trkpt lat="43.43825" lon="6.11577">
        <ele>282</ele>
        <time>2015-02-18T13:52:26Z</time>
      </trkpt>
      <trkpt lat="43.43829" lon="6.11584">
        <ele>282</ele>
        <time>2015-02-18T13:52:28Z</time>
      </trkpt>
      <trkpt lat="43.43839" lon="6.11597">
        <ele>281</ele>
        <time>2015-02-18T13:52:32Z</time>
      </trkpt>
      <trkpt lat="43.43841" lon="6.11599">
        <ele>281</ele>
        <time>2015-02-18T13:52:33Z</time>
      </trkpt>
      <trkpt lat="43.43845" lon="6.11606">
        <ele>281.79998779297</ele>
        <time>2015-02-18T13:52:36Z</time>
      </trkpt>
      <trkpt lat="43.43845" lon="6.1161">
        <ele>282.39999389648</ele>
        <time>2015-02-18T13:52:38Z</time>
      </trkpt>
      <trkpt lat="43.43845" lon="6.11612">
        <ele>282.79998779297</ele>
        <time>2015-02-18T13:52:39Z</time>
      </trkpt>
      <trkpt lat="43.43845" lon="6.11624">
        <ele>283.79998779297</ele>
        <time>2015-02-18T13:52:45Z</time>
      </trkpt>
      <trkpt lat="43.43846" lon="6.1164">
        <ele>284.20001220703</ele>
        <time>2015-02-18T13:52:52Z</time>
      </trkpt>
      <trkpt lat="43.43848" lon="6.11649">
        <ele>284.79998779297</ele>
        <time>2015-02-18T13:52:56Z</time>
      </trkpt>
      <trkpt lat="43.43849" lon="6.11654">
        <ele>285.20001220703</ele>
        <time>2015-02-18T13:52:59Z</time>
      </trkpt>
      <trkpt lat="43.4385" lon="6.11666">
        <ele>286.20001220703</ele>
        <time>2015-02-18T13:53:05Z</time>
      </trkpt>
      <trkpt lat="43.43855" lon="6.11673">
        <ele>287.20001220703</ele>
        <time>2015-02-18T13:53:10Z</time>
      </trkpt>
      <trkpt lat="43.43858" lon="6.11674">
        <ele>287.79998779297</ele>
        <time>2015-02-18T13:53:13Z</time>
      </trkpt>
      <trkpt lat="43.43861" lon="6.11675">
        <ele>287.79998779297</ele>
        <time>2015-02-18T13:53:15Z</time>
      </trkpt>
      <trkpt lat="43.43864" lon="6.11675">
        <ele>288.39999389648</ele>
        <time>2015-02-18T13:53:18Z</time>
      </trkpt>
      <trkpt lat="43.43864" lon="6.11675">
        <ele>288.39999389648</ele>
        <time>2015-02-18T13:53:27Z</time>
      </trkpt>
      <trkpt lat="43.43864" lon="6.11675">
        <ele>288.39999389648</ele>
        <time>2015-02-18T13:53:32Z</time>
      </trkpt>
      <trkpt lat="43.43864" lon="6.11675">
        <ele>288.39999389648</ele>
        <time>2015-02-18T13:53:41Z</time>
      </trkpt>
      <trkpt lat="43.43864" lon="6.11675">
        <ele>288.39999389648</ele>
        <time>2015-02-18T13:53:51Z</time>
      </trkpt>
      <trkpt lat="43.43864" lon="6.11675">
        <ele>288.60000610352</ele>
        <time>2015-02-18T13:53:57Z</time>
      </trkpt>
      <trkpt lat="43.43864" lon="6.11676">
        <ele>288.60000610352</ele>
        <time>2015-02-18T13:54:02Z</time>
      </trkpt>
      <trkpt lat="43.43864" lon="6.11676">
        <ele>288.60000610352</ele>
        <time>2015-02-18T13:54:05Z</time>
      </trkpt>
      <trkpt lat="43.43864" lon="6.11675">
        <ele>288.60000610352</ele>
        <time>2015-02-18T13:54:07Z</time>
      </trkpt>
      <trkpt lat="43.43861" lon="6.11675">
        <ele>288.20001220703</ele>
        <time>2015-02-18T13:54:14Z</time>
      </trkpt>
      <trkpt lat="43.43861" lon="6.11675">
        <ele>287.79998779297</ele>
        <time>2015-02-18T13:54:20Z</time>
      </trkpt>
      <trkpt lat="43.43857" lon="6.11674">
        <ele>287.20001220703</ele>
        <time>2015-02-18T13:54:27Z</time>
      </trkpt>
      <trkpt lat="43.43855" lon="6.11672">
        <ele>287.20001220703</ele>
        <time>2015-02-18T13:54:28Z</time>
      </trkpt>
      <trkpt lat="43.43851" lon="6.11663">
        <ele>286.20001220703</ele>
        <time>2015-02-18T13:54:31Z</time>
      </trkpt>
      <trkpt lat="43.4385" lon="6.11658">
        <ele>285.79998779297</ele>
        <time>2015-02-18T13:54:32Z</time>
      </trkpt>
      <trkpt lat="43.43849" lon="6.11653">
        <ele>285.60000610352</ele>
        <time>2015-02-18T13:54:33Z</time>
      </trkpt>
      <trkpt lat="43.43849" lon="6.11639">
        <ele>285.20001220703</ele>
        <time>2015-02-18T13:54:35Z</time>
      </trkpt>
      <trkpt lat="43.43849" lon="6.11625">
        <ele>284.79998779297</ele>
        <time>2015-02-18T13:54:37Z</time>
      </trkpt>
      <trkpt lat="43.43849" lon="6.11619">
        <ele>284.39999389648</ele>
        <time>2015-02-18T13:54:38Z</time>
      </trkpt>
      <trkpt lat="43.43847" lon="6.11607">
        <ele>283.60000610352</ele>
        <time>2015-02-18T13:54:40Z</time>
      </trkpt>
      <trkpt lat="43.43843" lon="6.11601">
        <ele>283.39999389648</ele>
        <time>2015-02-18T13:54:41Z</time>
      </trkpt>
      <trkpt lat="43.43835" lon="6.11589">
        <ele>282.20001220703</ele>
        <time>2015-02-18T13:54:43Z</time>
      </trkpt>
      <trkpt lat="43.43822" lon="6.11569">
        <ele>282.20001220703</ele>
        <time>2015-02-18T13:54:47Z</time>
      </trkpt>
      <trkpt lat="43.43819" lon="6.11553">
        <ele>282</ele>
        <time>2015-02-18T13:54:51Z</time>
      </trkpt>
      <trkpt lat="43.43819" lon="6.11549">
        <ele>282</ele>
        <time>2015-02-18T13:54:52Z</time>
      </trkpt>
      <trkpt lat="43.43821" lon="6.11522">
        <ele>281.20001220703</ele>
        <time>2015-02-18T13:54:57Z</time>
      </trkpt>
      <trkpt lat="43.43816" lon="6.11509">
        <ele>279.39999389648</ele>
        <time>2015-02-18T13:55:00Z</time>
      </trkpt>
      <trkpt lat="43.43808" lon="6.11507">
        <ele>277.60000610352</ele>
        <time>2015-02-18T13:55:02Z</time>
      </trkpt>
      <trkpt lat="43.43804" lon="6.11505">
        <ele>276.39999389648</ele>
        <time>2015-02-18T13:55:03Z</time>
      </trkpt>
      <trkpt lat="43.43798" lon="6.11496">
        <ele>275.20001220703</ele>
        <time>2015-02-18T13:55:05Z</time>
      </trkpt>
      <trkpt lat="43.43798" lon="6.11488">
        <ele>274.39999389648</ele>
        <time>2015-02-18T13:55:06Z</time>
      </trkpt>
      <trkpt lat="43.43798" lon="6.1148">
        <ele>273</ele>
        <time>2015-02-18T13:55:07Z</time>
      </trkpt>
      <trkpt lat="43.43797" lon="6.11471">
        <ele>271.60000610352</ele>
        <time>2015-02-18T13:55:08Z</time>
      </trkpt>
      <trkpt lat="43.43798" lon="6.11456">
        <ele>269.79998779297</ele>
        <time>2015-02-18T13:55:10Z</time>
      </trkpt>
      <trkpt lat="43.43799" lon="6.1145">
        <ele>268.79998779297</ele>
        <time>2015-02-18T13:55:11Z</time>
      </trkpt>
      <trkpt lat="43.438" lon="6.11443">
        <ele>268</ele>
        <time>2015-02-18T13:55:12Z</time>
      </trkpt>
      <trkpt lat="43.43803" lon="6.11439">
        <ele>267.60000610352</ele>
        <time>2015-02-18T13:55:13Z</time>
      </trkpt>
      <trkpt lat="43.43807" lon="6.11436">
        <ele>267.60000610352</ele>
        <time>2015-02-18T13:55:14Z</time>
      </trkpt>
      <trkpt lat="43.43813" lon="6.1143">
        <ele>266</ele>
        <time>2015-02-18T13:55:16Z</time>
      </trkpt>
      <trkpt lat="43.43819" lon="6.11424">
        <ele>265</ele>
        <time>2015-02-18T13:55:18Z</time>
      </trkpt>
      <trkpt lat="43.43823" lon="6.11416">
        <ele>263.79998779297</ele>
        <time>2015-02-18T13:55:20Z</time>
      </trkpt>
      <trkpt lat="43.43831" lon="6.1141">
        <ele>262.39999389648</ele>
        <time>2015-02-18T13:55:22Z</time>
      </trkpt>
      <trkpt lat="43.43835" lon="6.11408">
        <ele>261.39999389648</ele>
        <time>2015-02-18T13:55:23Z</time>
      </trkpt>
      <trkpt lat="43.43844" lon="6.11403">
        <ele>260.79998779297</ele>
        <time>2015-02-18T13:55:25Z</time>
      </trkpt>
      <trkpt lat="43.43848" lon="6.11394">
        <ele>257.39999389648</ele>
        <time>2015-02-18T13:55:27Z</time>
      </trkpt>
      <trkpt lat="43.4385" lon="6.11388">
        <ele>257.20001220703</ele>
        <time>2015-02-18T13:55:28Z</time>
      </trkpt>
      <trkpt lat="43.43851" lon="6.11375">
        <ele>257</ele>
        <time>2015-02-18T13:55:30Z</time>
      </trkpt>
      <trkpt lat="43.43849" lon="6.11364">
        <ele>256.39999389648</ele>
        <time>2015-02-18T13:55:32Z</time>
      </trkpt>
      <trkpt lat="43.43836" lon="6.1135">
        <ele>256.39999389648</ele>
        <time>2015-02-18T13:55:35Z</time>
      </trkpt>
      <trkpt lat="43.43821" lon="6.11339">
        <ele>256.20001220703</ele>
        <time>2015-02-18T13:55:38Z</time>
      </trkpt>
      <trkpt lat="43.43816" lon="6.11338">
        <ele>255.60000610352</ele>
        <time>2015-02-18T13:55:39Z</time>
      </trkpt>
      <trkpt lat="43.4381" lon="6.11338">
        <ele>255.19999694824</ele>
        <time>2015-02-18T13:55:40Z</time>
      </trkpt>
      <trkpt lat="43.43791" lon="6.11348">
        <ele>255</ele>
        <time>2015-02-18T13:55:44Z</time>
      </trkpt>
      <trkpt lat="43.43789" lon="6.1135">
        <ele>254</ele>
        <time>2015-02-18T13:55:45Z</time>
      </trkpt>
      <trkpt lat="43.43788" lon="6.1135">
        <ele>253.39999389648</ele>
        <time>2015-02-18T13:55:47Z</time>
      </trkpt>
      <trkpt lat="43.43788" lon="6.1135">
        <ele>253.39999389648</ele>
        <time>2015-02-18T13:55:56Z</time>
      </trkpt>
      <trkpt lat="43.43788" lon="6.1135">
        <ele>253.39999389648</ele>
        <time>2015-02-18T13:56:07Z</time>
      </trkpt>
      <trkpt lat="43.43787" lon="6.11349">
        <ele>253.19999694824</ele>
        <time>2015-02-18T13:56:17Z</time>
      </trkpt>
      <trkpt lat="43.43787" lon="6.11346">
        <ele>253.19999694824</ele>
        <time>2015-02-18T13:56:21Z</time>
      </trkpt>
      <trkpt lat="43.43789" lon="6.11344">
        <ele>253.19999694824</ele>
        <time>2015-02-18T13:56:22Z</time>
      </trkpt>
      <trkpt lat="43.43793" lon="6.11338">
        <ele>252.80000305176</ele>
        <time>2015-02-18T13:56:25Z</time>
      </trkpt>
      <trkpt lat="43.43809" lon="6.11319">
        <ele>252</ele>
        <time>2015-02-18T13:56:33Z</time>
      </trkpt>
      <trkpt lat="43.43812" lon="6.11317">
        <ele>251.80000305176</ele>
        <time>2015-02-18T13:56:34Z</time>
      </trkpt>
      <trkpt lat="43.43827" lon="6.11309">
        <ele>251.80000305176</ele>
        <time>2015-02-18T13:56:39Z</time>
      </trkpt>
      <trkpt lat="43.43838" lon="6.11303">
        <ele>252.19999694824</ele>
        <time>2015-02-18T13:56:43Z</time>
      </trkpt>
      <trkpt lat="43.43842" lon="6.11302">
        <ele>252.80000305176</ele>
        <time>2015-02-18T13:56:45Z</time>
      </trkpt>
      <trkpt lat="43.43845" lon="6.11301">
        <ele>252.80000305176</ele>
        <time>2015-02-18T13:56:46Z</time>
      </trkpt>
      <trkpt lat="43.4385" lon="6.11305">
        <ele>253</ele>
        <time>2015-02-18T13:56:49Z</time>
      </trkpt>
      <trkpt lat="43.43855" lon="6.11304">
        <ele>253.39999389648</ele>
        <time>2015-02-18T13:56:51Z</time>
      </trkpt>
      <trkpt lat="43.43865" lon="6.11296">
        <ele>254.19999694824</ele>
        <time>2015-02-18T13:56:56Z</time>
      </trkpt>
      <trkpt lat="43.43869" lon="6.11288">
        <ele>254.60000610352</ele>
        <time>2015-02-18T13:56:59Z</time>
      </trkpt>
      <trkpt lat="43.43872" lon="6.11277">
        <ele>255.60000610352</ele>
        <time>2015-02-18T13:57:02Z</time>
      </trkpt>
      <trkpt lat="43.43876" lon="6.11266">
        <ele>256.20001220703</ele>
        <time>2015-02-18T13:57:05Z</time>
      </trkpt>
      <trkpt lat="43.43879" lon="6.11258">
        <ele>256.79998779297</ele>
        <time>2015-02-18T13:57:07Z</time>
      </trkpt>
      <trkpt lat="43.43881" lon="6.11251">
        <ele>257.39999389648</ele>
        <time>2015-02-18T13:57:09Z</time>
      </trkpt>
      <trkpt lat="43.43884" lon="6.11244">
        <ele>258.20001220703</ele>
        <time>2015-02-18T13:57:11Z</time>
      </trkpt>
      <trkpt lat="43.43886" lon="6.11233">
        <ele>258.79998779297</ele>
        <time>2015-02-18T13:57:14Z</time>
      </trkpt>
      <trkpt lat="43.43888" lon="6.11227">
        <ele>259.39999389648</ele>
        <time>2015-02-18T13:57:16Z</time>
      </trkpt>
      <trkpt lat="43.43892" lon="6.11205">
        <ele>260.60000610352</ele>
        <time>2015-02-18T13:57:24Z</time>
      </trkpt>
      <trkpt lat="43.43895" lon="6.11189">
        <ele>261.20001220703</ele>
        <time>2015-02-18T13:57:30Z</time>
      </trkpt>
      <trkpt lat="43.43897" lon="6.11181">
        <ele>260.79998779297</ele>
        <time>2015-02-18T13:57:32Z</time>
      </trkpt>
      <trkpt lat="43.43903" lon="6.11156">
        <ele>259.79998779297</ele>
        <time>2015-02-18T13:57:38Z</time>
      </trkpt>
      <trkpt lat="43.43908" lon="6.11141">
        <ele>259.39999389648</ele>
        <time>2015-02-18T13:57:41Z</time>
      </trkpt>
      <trkpt lat="43.43918" lon="6.11122">
        <ele>258.79998779297</ele>
        <time>2015-02-18T13:57:45Z</time>
      </trkpt>
      <trkpt lat="43.43921" lon="6.1111">
        <ele>258.20001220703</ele>
        <time>2015-02-18T13:57:47Z</time>
      </trkpt>
      <trkpt lat="43.43923" lon="6.11098">
        <ele>256.60000610352</ele>
        <time>2015-02-18T13:57:49Z</time>
      </trkpt>
      <trkpt lat="43.43927" lon="6.11088">
        <ele>256</ele>
        <time>2015-02-18T13:57:51Z</time>
      </trkpt>
      <trkpt lat="43.43932" lon="6.11069">
        <ele>255</ele>
        <time>2015-02-18T13:57:54Z</time>
      </trkpt>
      <trkpt lat="43.43934" lon="6.11064">
        <ele>254.19999694824</ele>
        <time>2015-02-18T13:57:55Z</time>
      </trkpt>
      <trkpt lat="43.43942" lon="6.11055">
        <ele>253.60000610352</ele>
        <time>2015-02-18T13:57:57Z</time>
      </trkpt>
      <trkpt lat="43.43951" lon="6.11045">
        <ele>251.80000305176</ele>
        <time>2015-02-18T13:57:59Z</time>
      </trkpt>
      <trkpt lat="43.4396" lon="6.11035">
        <ele>250.60000610352</ele>
        <time>2015-02-18T13:58:01Z</time>
      </trkpt>
      <trkpt lat="43.43965" lon="6.11031">
        <ele>251</ele>
        <time>2015-02-18T13:58:02Z</time>
      </trkpt>
      <trkpt lat="43.43974" lon="6.11024">
        <ele>249.60000610352</ele>
        <time>2015-02-18T13:58:04Z</time>
      </trkpt>
      <trkpt lat="43.43981" lon="6.11015">
        <ele>247.80000305176</ele>
        <time>2015-02-18T13:58:06Z</time>
      </trkpt>
      <trkpt lat="43.43985" lon="6.11011">
        <ele>246.60000610352</ele>
        <time>2015-02-18T13:58:07Z</time>
      </trkpt>
      <trkpt lat="43.43988" lon="6.11005">
        <ele>246.39999389648</ele>
        <time>2015-02-18T13:58:08Z</time>
      </trkpt>
      <trkpt lat="43.43992" lon="6.10994">
        <ele>245.80000305176</ele>
        <time>2015-02-18T13:58:10Z</time>
      </trkpt>
      <trkpt lat="43.43996" lon="6.10978">
        <ele>244.39999389648</ele>
        <time>2015-02-18T13:58:13Z</time>
      </trkpt>
      <trkpt lat="43.43998" lon="6.10975">
        <ele>244.19999694824</ele>
        <time>2015-02-18T13:58:14Z</time>
      </trkpt>
      <trkpt lat="43.44007" lon="6.10965">
        <ele>243.80000305176</ele>
        <time>2015-02-18T13:58:17Z</time>
      </trkpt>
      <trkpt lat="43.44016" lon="6.10945">
        <ele>242.60000610352</ele>
        <time>2015-02-18T13:58:21Z</time>
      </trkpt>
      <trkpt lat="43.44019" lon="6.10938">
        <ele>242</ele>
        <time>2015-02-18T13:58:22Z</time>
      </trkpt>
      <trkpt lat="43.44021" lon="6.10932">
        <ele>241.60000610352</ele>
        <time>2015-02-18T13:58:23Z</time>
      </trkpt>
      <trkpt lat="43.44025" lon="6.10927">
        <ele>240.60000610352</ele>
        <time>2015-02-18T13:58:24Z</time>
      </trkpt>
      <trkpt lat="43.44028" lon="6.10922">
        <ele>240.60000610352</ele>
        <time>2015-02-18T13:58:25Z</time>
      </trkpt>
      <trkpt lat="43.44033" lon="6.10917">
        <ele>240.60000610352</ele>
        <time>2015-02-18T13:58:26Z</time>
      </trkpt>
      <trkpt lat="43.4404" lon="6.10905">
        <ele>240.80000305176</ele>
        <time>2015-02-18T13:58:28Z</time>
      </trkpt>
      <trkpt lat="43.44052" lon="6.10882">
        <ele>240.39999389648</ele>
        <time>2015-02-18T13:58:32Z</time>
      </trkpt>
      <trkpt lat="43.44054" lon="6.10876">
        <ele>240</ele>
        <time>2015-02-18T13:58:33Z</time>
      </trkpt>
      <trkpt lat="43.44056" lon="6.10863">
        <ele>239.39999389648</ele>
        <time>2015-02-18T13:58:35Z</time>
      </trkpt>
      <trkpt lat="43.44057" lon="6.10848">
        <ele>238.60000610352</ele>
        <time>2015-02-18T13:58:37Z</time>
      </trkpt>
      <trkpt lat="43.44059" lon="6.10841">
        <ele>238.19999694824</ele>
        <time>2015-02-18T13:58:38Z</time>
      </trkpt>
      <trkpt lat="43.44061" lon="6.10814">
        <ele>238</ele>
        <time>2015-02-18T13:58:42Z</time>
      </trkpt>
      <trkpt lat="43.44062" lon="6.10808">
        <ele>238.19999694824</ele>
        <time>2015-02-18T13:58:43Z</time>
      </trkpt>
      <trkpt lat="43.44063" lon="6.10802">
        <ele>238</ele>
        <time>2015-02-18T13:58:44Z</time>
      </trkpt>
      <trkpt lat="43.44065" lon="6.1079">
        <ele>236.80000305176</ele>
        <time>2015-02-18T13:58:46Z</time>
      </trkpt>
      <trkpt lat="43.44068" lon="6.1078">
        <ele>236.80000305176</ele>
        <time>2015-02-18T13:58:48Z</time>
      </trkpt>
      <trkpt lat="43.44072" lon="6.10769">
        <ele>235.80000305176</ele>
        <time>2015-02-18T13:58:51Z</time>
      </trkpt>
      <trkpt lat="43.44074" lon="6.10763">
        <ele>235.80000305176</ele>
        <time>2015-02-18T13:58:53Z</time>
      </trkpt>
      <trkpt lat="43.44074" lon="6.1075">
        <ele>234.60000610352</ele>
        <time>2015-02-18T13:58:56Z</time>
      </trkpt>
      <trkpt lat="43.44075" lon="6.10741">
        <ele>234.80000305176</ele>
        <time>2015-02-18T13:58:58Z</time>
      </trkpt>
      <trkpt lat="43.44076" lon="6.10728">
        <ele>234.80000305176</ele>
        <time>2015-02-18T13:59:03Z</time>
      </trkpt>
      <trkpt lat="43.44076" lon="6.10728">
        <ele>234.39999389648</ele>
        <time>2015-02-18T13:59:10Z</time>
      </trkpt>
      <trkpt lat="43.44076" lon="6.10728">
        <ele>234.19999694824</ele>
        <time>2015-02-18T13:59:17Z</time>
      </trkpt>
      <trkpt lat="43.44075" lon="6.10728">
        <ele>234.60000610352</ele>
        <time>2015-02-18T13:59:21Z</time>
      </trkpt>
      <trkpt lat="43.44076" lon="6.10728">
        <ele>234.80000305176</ele>
        <time>2015-02-18T13:59:24Z</time>
      </trkpt>
      <trkpt lat="43.44075" lon="6.10728">
        <ele>234.60000610352</ele>
        <time>2015-02-18T13:59:36Z</time>
      </trkpt>
      <trkpt lat="43.44076" lon="6.10726">
        <ele>235</ele>
        <time>2015-02-18T13:59:43Z</time>
      </trkpt>
      <trkpt lat="43.44075" lon="6.10725">
        <ele>234.60000610352</ele>
        <time>2015-02-18T13:59:50Z</time>
      </trkpt>
      <trkpt lat="43.44074" lon="6.10725">
        <ele>233.60000610352</ele>
        <time>2015-02-18T13:59:59Z</time>
      </trkpt>
      <trkpt lat="43.44074" lon="6.10725">
        <ele>233.39999389648</ele>
        <time>2015-02-18T14:00:08Z</time>
      </trkpt>
      <trkpt lat="43.44074" lon="6.10725">
        <ele>234.60000610352</ele>
        <time>2015-02-18T14:02:47Z</time>
      </trkpt>
      <trkpt lat="43.44074" lon="6.10725">
        <ele>235.19999694824</ele>
        <time>2015-02-18T14:03:12Z</time>
      </trkpt>
      <trkpt lat="43.44074" lon="6.10725">
        <ele>234.80000305176</ele>
        <time>2015-02-18T14:03:14Z</time>
      </trkpt>
      <trkpt lat="43.44074" lon="6.10725">
        <ele>234</ele>
        <time>2015-02-18T14:03:16Z</time>
      </trkpt>
      <trkpt lat="43.44074" lon="6.10725">
        <ele>234.39999389648</ele>
        <time>2015-02-18T14:03:21Z</time>
      </trkpt>
      <trkpt lat="43.44074" lon="6.10725">
        <ele>234.19999694824</ele>
        <time>2015-02-18T14:03:24Z</time>
      </trkpt>
      <trkpt lat="43.44074" lon="6.10725">
        <ele>233.80000305176</ele>
        <time>2015-02-18T14:03:45Z</time>
      </trkpt>
      <trkpt lat="43.44072" lon="6.10725">
        <ele>234.19999694824</ele>
        <time>2015-02-18T14:04:16Z</time>
      </trkpt>
      <trkpt lat="43.44072" lon="6.10725">
        <ele>234</ele>
        <time>2015-02-18T14:04:26Z</time>
      </trkpt>
      <trkpt lat="43.44072" lon="6.10725">
        <ele>233.80000305176</ele>
        <time>2015-02-18T14:04:41Z</time>
      </trkpt>
      <trkpt lat="43.44072" lon="6.10725">
        <ele>234</ele>
        <time>2015-02-18T14:04:57Z</time>
      </trkpt>
      <trkpt lat="43.44072" lon="6.10725">
        <ele>234</ele>
        <time>2015-02-18T14:05:01Z</time>
      </trkpt>
      <trkpt lat="43.44072" lon="6.10725">
        <ele>234.19999694824</ele>
        <time>2015-02-18T14:05:04Z</time>
      </trkpt>
      <trkpt lat="43.44071" lon="6.10725">
        <ele>233.80000305176</ele>
        <time>2015-02-18T14:05:24Z</time>
      </trkpt>
      <trkpt lat="43.4407" lon="6.10726">
        <ele>234</ele>
        <time>2015-02-18T14:05:51Z</time>
      </trkpt>
      <trkpt lat="43.4407" lon="6.10725">
        <ele>235</ele>
        <time>2015-02-18T14:06:03Z</time>
      </trkpt>
      <trkpt lat="43.4407" lon="6.10725">
        <ele>235.19999694824</ele>
        <time>2015-02-18T14:06:05Z</time>
      </trkpt>
      <trkpt lat="43.44071" lon="6.10725">
        <ele>235.19999694824</ele>
        <time>2015-02-18T14:06:07Z</time>
      </trkpt>
      <trkpt lat="43.44071" lon="6.10724">
        <ele>235.19999694824</ele>
        <time>2015-02-18T14:06:11Z</time>
      </trkpt>
      <trkpt lat="43.44071" lon="6.10725">
        <ele>235.19999694824</ele>
        <time>2015-02-18T14:06:16Z</time>
      </trkpt>
      <trkpt lat="43.44071" lon="6.10725">
        <ele>235.19999694824</ele>
        <time>2015-02-18T14:06:28Z</time>
      </trkpt>
      <trkpt lat="43.4407" lon="6.10723">
        <ele>234.60000610352</ele>
        <time>2015-02-18T14:06:35Z</time>
      </trkpt>
      <trkpt lat="43.4407" lon="6.10723">
        <ele>234.80000305176</ele>
        <time>2015-02-18T14:06:55Z</time>
      </trkpt>
      <trkpt lat="43.4407" lon="6.10723">
        <ele>234.39999389648</ele>
        <time>2015-02-18T14:07:12Z</time>
      </trkpt>
      <trkpt lat="43.4407" lon="6.10723">
        <ele>234</ele>
        <time>2015-02-18T14:07:25Z</time>
      </trkpt>
      <trkpt lat="43.4407" lon="6.10723">
        <ele>233.60000610352</ele>
        <time>2015-02-18T14:07:29Z</time>
      </trkpt>
      <trkpt lat="43.4407" lon="6.10722">
        <ele>234.19999694824</ele>
        <time>2015-02-18T14:07:47Z</time>
      </trkpt>
      <trkpt lat="43.44069" lon="6.10721">
        <ele>234.39999389648</ele>
        <time>2015-02-18T14:08:01Z</time>
      </trkpt>
      <trkpt lat="43.44068" lon="6.10715">
        <ele>234.19999694824</ele>
        <time>2015-02-18T14:08:03Z</time>
      </trkpt>
      <trkpt lat="43.44068" lon="6.10696">
        <ele>233.60000610352</ele>
        <time>2015-02-18T14:08:07Z</time>
      </trkpt>
      <trkpt lat="43.44069" lon="6.10679">
        <ele>232.80000305176</ele>
        <time>2015-02-18T14:08:10Z</time>
      </trkpt>
      <trkpt lat="43.44069" lon="6.10665">
        <ele>233</ele>
        <time>2015-02-18T14:08:12Z</time>
      </trkpt>
      <trkpt lat="43.4407" lon="6.10658">
        <ele>233</ele>
        <time>2015-02-18T14:08:13Z</time>
      </trkpt>
      <trkpt lat="43.44077" lon="6.10636">
        <ele>233.19999694824</ele>
        <time>2015-02-18T14:08:16Z</time>
      </trkpt>
      <trkpt lat="43.44085" lon="6.10622">
        <ele>232.19999694824</ele>
        <time>2015-02-18T14:08:18Z</time>
      </trkpt>
      <trkpt lat="43.44089" lon="6.10614">
        <ele>231.39999389648</ele>
        <time>2015-02-18T14:08:19Z</time>
      </trkpt>
      <trkpt lat="43.44096" lon="6.10599">
        <ele>231.19999694824</ele>
        <time>2015-02-18T14:08:21Z</time>
      </trkpt>
      <trkpt lat="43.44104" lon="6.10588">
        <ele>232.19999694824</ele>
        <time>2015-02-18T14:08:23Z</time>
      </trkpt>
      <trkpt lat="43.44108" lon="6.10583">
        <ele>232.60000610352</ele>
        <time>2015-02-18T14:08:24Z</time>
      </trkpt>
      <trkpt lat="43.4411" lon="6.10579">
        <ele>232.60000610352</ele>
        <time>2015-02-18T14:08:25Z</time>
      </trkpt>
      <trkpt lat="43.44114" lon="6.10567">
        <ele>232.60000610352</ele>
        <time>2015-02-18T14:08:27Z</time>
      </trkpt>
      <trkpt lat="43.4412" lon="6.10552">
        <ele>232.39999389648</ele>
        <time>2015-02-18T14:08:29Z</time>
      </trkpt>
      <trkpt lat="43.44122" lon="6.10545">
        <ele>232.39999389648</ele>
        <time>2015-02-18T14:08:30Z</time>
      </trkpt>
      <trkpt lat="43.44125" lon="6.10538">
        <ele>232.39999389648</ele>
        <time>2015-02-18T14:08:31Z</time>
      </trkpt>
      <trkpt lat="43.44127" lon="6.10532">
        <ele>232.39999389648</ele>
        <time>2015-02-18T14:08:32Z</time>
      </trkpt>
      <trkpt lat="43.44131" lon="6.10521">
        <ele>232.39999389648</ele>
        <time>2015-02-18T14:08:34Z</time>
      </trkpt>
      <trkpt lat="43.44139" lon="6.10508">
        <ele>232.39999389648</ele>
        <time>2015-02-18T14:08:38Z</time>
      </trkpt>
      <trkpt lat="43.44142" lon="6.10503">
        <ele>232.19999694824</ele>
        <time>2015-02-18T14:08:39Z</time>
      </trkpt>
      <trkpt lat="43.44146" lon="6.10488">
        <ele>232</ele>
        <time>2015-02-18T14:08:41Z</time>
      </trkpt>
      <trkpt lat="43.44147" lon="6.10479">
        <ele>231.19999694824</ele>
        <time>2015-02-18T14:08:42Z</time>
      </trkpt>
      <trkpt lat="43.44149" lon="6.10471">
        <ele>230.80000305176</ele>
        <time>2015-02-18T14:08:43Z</time>
      </trkpt>
      <trkpt lat="43.44151" lon="6.10453">
        <ele>230.19999694824</ele>
        <time>2015-02-18T14:08:46Z</time>
      </trkpt>
      <trkpt lat="43.44153" lon="6.10434">
        <ele>229.60000610352</ele>
        <time>2015-02-18T14:08:50Z</time>
      </trkpt>
      <trkpt lat="43.44154" lon="6.10428">
        <ele>229.60000610352</ele>
        <time>2015-02-18T14:08:51Z</time>
      </trkpt>
      <trkpt lat="43.44155" lon="6.10422">
        <ele>229.80000305176</ele>
        <time>2015-02-18T14:08:52Z</time>
      </trkpt>
      <trkpt lat="43.44157" lon="6.10408">
        <ele>229.60000610352</ele>
        <time>2015-02-18T14:08:54Z</time>
      </trkpt>
      <trkpt lat="43.44159" lon="6.10385">
        <ele>228.80000305176</ele>
        <time>2015-02-18T14:08:57Z</time>
      </trkpt>
      <trkpt lat="43.44162" lon="6.10371">
        <ele>228.39999389648</ele>
        <time>2015-02-18T14:08:59Z</time>
      </trkpt>
      <trkpt lat="43.44163" lon="6.10342">
        <ele>228.19999694824</ele>
        <time>2015-02-18T14:09:03Z</time>
      </trkpt>
      <trkpt lat="43.44164" lon="6.10333">
        <ele>227.60000610352</ele>
        <time>2015-02-18T14:09:05Z</time>
      </trkpt>
      <trkpt lat="43.44165" lon="6.10327">
        <ele>227.19999694824</ele>
        <time>2015-02-18T14:09:07Z</time>
      </trkpt>
      <trkpt lat="43.44167" lon="6.10323">
        <ele>227</ele>
        <time>2015-02-18T14:09:09Z</time>
      </trkpt>
      <trkpt lat="43.44168" lon="6.10321">
        <ele>226.80000305176</ele>
        <time>2015-02-18T14:09:11Z</time>
      </trkpt>
      <trkpt lat="43.44168" lon="6.10319">
        <ele>226.60000610352</ele>
        <time>2015-02-18T14:09:12Z</time>
      </trkpt>
      <trkpt lat="43.44168" lon="6.10317">
        <ele>226.39999389648</ele>
        <time>2015-02-18T14:09:13Z</time>
      </trkpt>
      <trkpt lat="43.44168" lon="6.1031">
        <ele>226.19999694824</ele>
        <time>2015-02-18T14:09:16Z</time>
      </trkpt>
      <trkpt lat="43.44167" lon="6.10308">
        <ele>225.60000610352</ele>
        <time>2015-02-18T14:09:22Z</time>
      </trkpt>
      <trkpt lat="43.44166" lon="6.10308">
        <ele>225.80000305176</ele>
        <time>2015-02-18T14:09:28Z</time>
      </trkpt>
      <trkpt lat="43.44166" lon="6.10308">
        <ele>225.80000305176</ele>
        <time>2015-02-18T14:09:33Z</time>
      </trkpt>
      <trkpt lat="43.44167" lon="6.10304">
        <ele>225.19999694824</ele>
        <time>2015-02-18T14:09:42Z</time>
      </trkpt>
      <trkpt lat="43.44171" lon="6.10288">
        <ele>224.39999389648</ele>
        <time>2015-02-18T14:09:53Z</time>
      </trkpt>
      <trkpt lat="43.44174" lon="6.10284">
        <ele>224.80000305176</ele>
        <time>2015-02-18T14:09:55Z</time>
      </trkpt>
      <trkpt lat="43.44176" lon="6.10281">
        <ele>224.19999694824</ele>
        <time>2015-02-18T14:09:56Z</time>
      </trkpt>
      <trkpt lat="43.44178" lon="6.10279">
        <ele>223.80000305176</ele>
        <time>2015-02-18T14:09:57Z</time>
      </trkpt>
      <trkpt lat="43.4418" lon="6.10279">
        <ele>223.80000305176</ele>
        <time>2015-02-18T14:09:58Z</time>
      </trkpt>
      <trkpt lat="43.44185" lon="6.1028">
        <ele>223.80000305176</ele>
        <time>2015-02-18T14:10:01Z</time>
      </trkpt>
      <trkpt lat="43.44188" lon="6.1028">
        <ele>223.80000305176</ele>
        <time>2015-02-18T14:10:04Z</time>
      </trkpt>
      <trkpt lat="43.44189" lon="6.10279">
        <ele>223.80000305176</ele>
        <time>2015-02-18T14:10:06Z</time>
      </trkpt>
      <trkpt lat="43.44191" lon="6.10279">
        <ele>223.80000305176</ele>
        <time>2015-02-18T14:10:08Z</time>
      </trkpt>
      <trkpt lat="43.44191" lon="6.10279">
        <ele>224</ele>
        <time>2015-02-18T14:10:10Z</time>
      </trkpt>
      <trkpt lat="43.44191" lon="6.10279">
        <ele>223.80000305176</ele>
        <time>2015-02-18T14:10:12Z</time>
      </trkpt>
      <trkpt lat="43.44191" lon="6.10278">
        <ele>223.60000610352</ele>
        <time>2015-02-18T14:10:17Z</time>
      </trkpt>
      <trkpt lat="43.4419" lon="6.10278">
        <ele>223.60000610352</ele>
        <time>2015-02-18T14:10:32Z</time>
      </trkpt>
      <trkpt lat="43.44193" lon="6.10277">
        <ele>223.80000305176</ele>
        <time>2015-02-18T14:10:41Z</time>
      </trkpt>
      <trkpt lat="43.44199" lon="6.1028">
        <ele>224</ele>
        <time>2015-02-18T14:10:48Z</time>
      </trkpt>
      <trkpt lat="43.44209" lon="6.10285">
        <ele>224.39999389648</ele>
        <time>2015-02-18T14:10:53Z</time>
      </trkpt>
      <trkpt lat="43.44228" lon="6.10308">
        <ele>225.60000610352</ele>
        <time>2015-02-18T14:11:03Z</time>
      </trkpt>
      <trkpt lat="43.44233" lon="6.10313">
        <ele>225.60000610352</ele>
        <time>2015-02-18T14:11:05Z</time>
      </trkpt>
      <trkpt lat="43.44244" lon="6.10318">
        <ele>225.39999389648</ele>
        <time>2015-02-18T14:11:09Z</time>
      </trkpt>
      <trkpt lat="43.44247" lon="6.10317">
        <ele>225.19999694824</ele>
        <time>2015-02-18T14:11:10Z</time>
      </trkpt>
      <trkpt lat="43.4425" lon="6.10314">
        <ele>225</ele>
        <time>2015-02-18T14:11:13Z</time>
      </trkpt>
      <trkpt lat="43.4425" lon="6.10313">
        <ele>225</ele>
        <time>2015-02-18T14:11:14Z</time>
      </trkpt>
      <trkpt lat="43.44251" lon="6.10313">
        <ele>225</ele>
        <time>2015-02-18T14:11:17Z</time>
      </trkpt>
      <trkpt lat="43.44251" lon="6.10313">
        <ele>224.80000305176</ele>
        <time>2015-02-18T14:11:22Z</time>
      </trkpt>
      <trkpt lat="43.44251" lon="6.10313">
        <ele>225</ele>
        <time>2015-02-18T14:11:29Z</time>
      </trkpt>
      <trkpt lat="43.44253" lon="6.1031">
        <ele>224.80000305176</ele>
        <time>2015-02-18T14:11:33Z</time>
      </trkpt>
      <trkpt lat="43.44253" lon="6.10309">
        <ele>224.60000610352</ele>
        <time>2015-02-18T14:11:34Z</time>
      </trkpt>
      <trkpt lat="43.44254" lon="6.10308">
        <ele>224.60000610352</ele>
        <time>2015-02-18T14:11:35Z</time>
      </trkpt>
      <trkpt lat="43.44256" lon="6.10301">
        <ele>225</ele>
        <time>2015-02-18T14:11:41Z</time>
      </trkpt>
      <trkpt lat="43.44258" lon="6.10295">
        <ele>224.80000305176</ele>
        <time>2015-02-18T14:11:46Z</time>
      </trkpt>
      <trkpt lat="43.4426" lon="6.10294">
        <ele>224.80000305176</ele>
        <time>2015-02-18T14:11:49Z</time>
      </trkpt>
      <trkpt lat="43.44262" lon="6.10291">
        <ele>224.39999389648</ele>
        <time>2015-02-18T14:11:55Z</time>
      </trkpt>
      <trkpt lat="43.44264" lon="6.10288">
        <ele>224.39999389648</ele>
        <time>2015-02-18T14:11:58Z</time>
      </trkpt>
      <trkpt lat="43.44265" lon="6.10283">
        <ele>224.80000305176</ele>
        <time>2015-02-18T14:12:05Z</time>
      </trkpt>
      <trkpt lat="43.44265" lon="6.10283">
        <ele>224.80000305176</ele>
        <time>2015-02-18T14:12:08Z</time>
      </trkpt>
      <trkpt lat="43.44264" lon="6.10283">
        <ele>225</ele>
        <time>2015-02-18T14:12:20Z</time>
      </trkpt>
      <trkpt lat="43.44266" lon="6.10282">
        <ele>224.80000305176</ele>
        <time>2015-02-18T14:12:28Z</time>
      </trkpt>
      <trkpt lat="43.44268" lon="6.1028">
        <ele>224.80000305176</ele>
        <time>2015-02-18T14:12:30Z</time>
      </trkpt>
      <trkpt lat="43.44271" lon="6.10275">
        <ele>225</ele>
        <time>2015-02-18T14:12:32Z</time>
      </trkpt>
      <trkpt lat="43.44283" lon="6.10256">
        <ele>224.80000305176</ele>
        <time>2015-02-18T14:12:39Z</time>
      </trkpt>
      <trkpt lat="43.44284" lon="6.10245">
        <ele>225.60000610352</ele>
        <time>2015-02-18T14:12:42Z</time>
      </trkpt>
      <trkpt lat="43.44287" lon="6.10237">
        <ele>226.19999694824</ele>
        <time>2015-02-18T14:12:44Z</time>
      </trkpt>
      <trkpt lat="43.44289" lon="6.10219">
        <ele>225.39999389648</ele>
        <time>2015-02-18T14:12:49Z</time>
      </trkpt>
      <trkpt lat="43.44291" lon="6.10199">
        <ele>225.19999694824</ele>
        <time>2015-02-18T14:12:54Z</time>
      </trkpt>
      <trkpt lat="43.44291" lon="6.10192">
        <ele>224.80000305176</ele>
        <time>2015-02-18T14:12:56Z</time>
      </trkpt>
      <trkpt lat="43.44291" lon="6.10185">
        <ele>224.39999389648</ele>
        <time>2015-02-18T14:12:58Z</time>
      </trkpt>
      <trkpt lat="43.44292" lon="6.10181">
        <ele>224.19999694824</ele>
        <time>2015-02-18T14:12:59Z</time>
      </trkpt>
      <trkpt lat="43.44293" lon="6.10168">
        <ele>224</ele>
        <time>2015-02-18T14:13:02Z</time>
      </trkpt>
      <trkpt lat="43.44295" lon="6.10159">
        <ele>223.80000305176</ele>
        <time>2015-02-18T14:13:04Z</time>
      </trkpt>
      <trkpt lat="43.44296" lon="6.10153">
        <ele>223.19999694824</ele>
        <time>2015-02-18T14:13:05Z</time>
      </trkpt>
      <trkpt lat="43.44297" lon="6.10147">
        <ele>222.80000305176</ele>
        <time>2015-02-18T14:13:06Z</time>
      </trkpt>
      <trkpt lat="43.44295" lon="6.10121">
        <ele>222</ele>
        <time>2015-02-18T14:13:10Z</time>
      </trkpt>
      <trkpt lat="43.44297" lon="6.10113">
        <ele>220.80000305176</ele>
        <time>2015-02-18T14:13:12Z</time>
      </trkpt>
      <trkpt lat="43.44301" lon="6.10105">
        <ele>220.60000610352</ele>
        <time>2015-02-18T14:13:14Z</time>
      </trkpt>
      <trkpt lat="43.44305" lon="6.10088">
        <ele>219.39999389648</ele>
        <time>2015-02-18T14:13:17Z</time>
      </trkpt>
      <trkpt lat="43.44307" lon="6.10082">
        <ele>218.80000305176</ele>
        <time>2015-02-18T14:13:18Z</time>
      </trkpt>
      <trkpt lat="43.4431" lon="6.10076">
        <ele>219</ele>
        <time>2015-02-18T14:13:19Z</time>
      </trkpt>
      <trkpt lat="43.44311" lon="6.1007">
        <ele>219</ele>
        <time>2015-02-18T14:13:20Z</time>
      </trkpt>
      <trkpt lat="43.44312" lon="6.10065">
        <ele>218.80000305176</ele>
        <time>2015-02-18T14:13:21Z</time>
      </trkpt>
      <trkpt lat="43.44308" lon="6.10057">
        <ele>218.39999389648</ele>
        <time>2015-02-18T14:13:24Z</time>
      </trkpt>
      <trkpt lat="43.44304" lon="6.10049">
        <ele>217.80000305176</ele>
        <time>2015-02-18T14:13:27Z</time>
      </trkpt>
      <trkpt lat="43.44303" lon="6.10045">
        <ele>217.80000305176</ele>
        <time>2015-02-18T14:13:28Z</time>
      </trkpt>
      <trkpt lat="43.44301" lon="6.10033">
        <ele>217.19999694824</ele>
        <time>2015-02-18T14:13:31Z</time>
      </trkpt>
      <trkpt lat="43.443" lon="6.10029">
        <ele>217</ele>
        <time>2015-02-18T14:13:32Z</time>
      </trkpt>
      <trkpt lat="43.44294" lon="6.1001">
        <ele>215.80000305176</ele>
        <time>2015-02-18T14:13:36Z</time>
      </trkpt>
      <trkpt lat="43.44287" lon="6.10003">
        <ele>215.19999694824</ele>
        <time>2015-02-18T14:13:40Z</time>
      </trkpt>
      <trkpt lat="43.44285" lon="6.10002">
        <ele>215.19999694824</ele>
        <time>2015-02-18T14:13:41Z</time>
      </trkpt>
      <trkpt lat="43.4428" lon="6.09996">
        <ele>215.19999694824</ele>
        <time>2015-02-18T14:13:45Z</time>
      </trkpt>
      <trkpt lat="43.44277" lon="6.09992">
        <ele>215</ele>
        <time>2015-02-18T14:13:47Z</time>
      </trkpt>
      <trkpt lat="43.44272" lon="6.09985">
        <ele>214.80000305176</ele>
        <time>2015-02-18T14:13:50Z</time>
      </trkpt>
      <trkpt lat="43.44263" lon="6.09967">
        <ele>215.19999694824</ele>
        <time>2015-02-18T14:13:56Z</time>
      </trkpt>
      <trkpt lat="43.44262" lon="6.09964">
        <ele>215.39999389648</ele>
        <time>2015-02-18T14:13:57Z</time>
      </trkpt>
      <trkpt lat="43.4426" lon="6.09958">
        <ele>216.19999694824</ele>
        <time>2015-02-18T14:13:59Z</time>
      </trkpt>
      <trkpt lat="43.44258" lon="6.09953">
        <ele>216.80000305176</ele>
        <time>2015-02-18T14:14:01Z</time>
      </trkpt>
      <trkpt lat="43.44251" lon="6.0994">
        <ele>218</ele>
        <time>2015-02-18T14:14:06Z</time>
      </trkpt>
      <trkpt lat="43.44247" lon="6.09927">
        <ele>218</ele>
        <time>2015-02-18T14:14:11Z</time>
      </trkpt>
      <trkpt lat="43.44246" lon="6.09922">
        <ele>218.19999694824</ele>
        <time>2015-02-18T14:14:13Z</time>
      </trkpt>
      <trkpt lat="43.44244" lon="6.09917">
        <ele>218.39999389648</ele>
        <time>2015-02-18T14:14:15Z</time>
      </trkpt>
      <trkpt lat="43.44241" lon="6.09914">
        <ele>218.60000610352</ele>
        <time>2015-02-18T14:14:16Z</time>
      </trkpt>
      <trkpt lat="43.4424" lon="6.09911">
        <ele>218.60000610352</ele>
        <time>2015-02-18T14:14:17Z</time>
      </trkpt>
      <trkpt lat="43.44229" lon="6.09895">
        <ele>219.19999694824</ele>
        <time>2015-02-18T14:14:22Z</time>
      </trkpt>
      <trkpt lat="43.44227" lon="6.09893">
        <ele>219.39999389648</ele>
        <time>2015-02-18T14:14:23Z</time>
      </trkpt>
      <trkpt lat="43.44222" lon="6.09884">
        <ele>219.80000305176</ele>
        <time>2015-02-18T14:14:27Z</time>
      </trkpt>
      <trkpt lat="43.44215" lon="6.09877">
        <ele>220.60000610352</ele>
        <time>2015-02-18T14:14:32Z</time>
      </trkpt>
      <trkpt lat="43.44205" lon="6.09859">
        <ele>221</ele>
        <time>2015-02-18T14:14:38Z</time>
      </trkpt>
      <trkpt lat="43.44203" lon="6.09855">
        <ele>221.19999694824</ele>
        <time>2015-02-18T14:14:39Z</time>
      </trkpt>
      <trkpt lat="43.442" lon="6.09848">
        <ele>221.60000610352</ele>
        <time>2015-02-18T14:14:41Z</time>
      </trkpt>
      <trkpt lat="43.44195" lon="6.09836">
        <ele>221.80000305176</ele>
        <time>2015-02-18T14:14:45Z</time>
      </trkpt>
      <trkpt lat="43.44194" lon="6.09833">
        <ele>222</ele>
        <time>2015-02-18T14:14:46Z</time>
      </trkpt>
      <trkpt lat="43.44192" lon="6.09826">
        <ele>222.80000305176</ele>
        <time>2015-02-18T14:14:49Z</time>
      </trkpt>
      <trkpt lat="43.44191" lon="6.09823">
        <ele>223</ele>
        <time>2015-02-18T14:14:50Z</time>
      </trkpt>
      <trkpt lat="43.44188" lon="6.09815">
        <ele>223.80000305176</ele>
        <time>2015-02-18T14:14:53Z</time>
      </trkpt>
      <trkpt lat="43.44187" lon="6.09813">
        <ele>224</ele>
        <time>2015-02-18T14:14:54Z</time>
      </trkpt>
      <trkpt lat="43.44185" lon="6.09811">
        <ele>224.19999694824</ele>
        <time>2015-02-18T14:14:55Z</time>
      </trkpt>
      <trkpt lat="43.44182" lon="6.09807">
        <ele>225</ele>
        <time>2015-02-18T14:14:57Z</time>
      </trkpt>
      <trkpt lat="43.44175" lon="6.09795">
        <ele>226</ele>
        <time>2015-02-18T14:15:02Z</time>
      </trkpt>
      <trkpt lat="43.44175" lon="6.09792">
        <ele>226.19999694824</ele>
        <time>2015-02-18T14:15:03Z</time>
      </trkpt>
      <trkpt lat="43.44173" lon="6.09782">
        <ele>226.80000305176</ele>
        <time>2015-02-18T14:15:07Z</time>
      </trkpt>
      <trkpt lat="43.44167" lon="6.09763">
        <ele>227</ele>
        <time>2015-02-18T14:15:13Z</time>
      </trkpt>
      <trkpt lat="43.44166" lon="6.09756">
        <ele>227.19999694824</ele>
        <time>2015-02-18T14:15:15Z</time>
      </trkpt>
      <trkpt lat="43.44161" lon="6.09743">
        <ele>227.80000305176</ele>
        <time>2015-02-18T14:15:19Z</time>
      </trkpt>
      <trkpt lat="43.4416" lon="6.09739">
        <ele>227.80000305176</ele>
        <time>2015-02-18T14:15:20Z</time>
      </trkpt>
      <trkpt lat="43.44158" lon="6.09731">
        <ele>228</ele>
        <time>2015-02-18T14:15:22Z</time>
      </trkpt>
      <trkpt lat="43.44155" lon="6.09719">
        <ele>228.19999694824</ele>
        <time>2015-02-18T14:15:26Z</time>
      </trkpt>
      <trkpt lat="43.44148" lon="6.09697">
        <ele>228.80000305176</ele>
        <time>2015-02-18T14:15:32Z</time>
      </trkpt>
      <trkpt lat="43.44143" lon="6.09677">
        <ele>228.80000305176</ele>
        <time>2015-02-18T14:15:37Z</time>
      </trkpt>
      <trkpt lat="43.44139" lon="6.09669">
        <ele>229</ele>
        <time>2015-02-18T14:15:39Z</time>
      </trkpt>
      <trkpt lat="43.4413" lon="6.0966">
        <ele>229.39999389648</ele>
        <time>2015-02-18T14:15:43Z</time>
      </trkpt>
      <trkpt lat="43.44115" lon="6.09647">
        <ele>229.80000305176</ele>
        <time>2015-02-18T14:15:49Z</time>
      </trkpt>
      <trkpt lat="43.44109" lon="6.09641">
        <ele>230</ele>
        <time>2015-02-18T14:15:51Z</time>
      </trkpt>
      <trkpt lat="43.44096" lon="6.09625">
        <ele>230</ele>
        <time>2015-02-18T14:15:56Z</time>
      </trkpt>
      <trkpt lat="43.44087" lon="6.09604">
        <ele>229.80000305176</ele>
        <time>2015-02-18T14:16:01Z</time>
      </trkpt>
      <trkpt lat="43.44078" lon="6.09578">
        <ele>229.80000305176</ele>
        <time>2015-02-18T14:16:06Z</time>
      </trkpt>
      <trkpt lat="43.44065" lon="6.09541">
        <ele>229.60000610352</ele>
        <time>2015-02-18T14:16:13Z</time>
      </trkpt>
      <trkpt lat="43.44049" lon="6.09497">
        <ele>229.60000610352</ele>
        <time>2015-02-18T14:16:21Z</time>
      </trkpt>
      <trkpt lat="43.44022" lon="6.09422">
        <ele>230.80000305176</ele>
        <time>2015-02-18T14:16:36Z</time>
      </trkpt>
      <trkpt lat="43.44014" lon="6.09398">
        <ele>231.19999694824</ele>
        <time>2015-02-18T14:16:41Z</time>
      </trkpt>
      <trkpt lat="43.44006" lon="6.09379">
        <ele>231.39999389648</ele>
        <time>2015-02-18T14:16:45Z</time>
      </trkpt>
      <trkpt lat="43.43995" lon="6.09355">
        <ele>232.19999694824</ele>
        <time>2015-02-18T14:16:50Z</time>
      </trkpt>
      <trkpt lat="43.43989" lon="6.09341">
        <ele>232</ele>
        <time>2015-02-18T14:16:53Z</time>
      </trkpt>
      <trkpt lat="43.43966" lon="6.09291">
        <ele>232.80000305176</ele>
        <time>2015-02-18T14:17:04Z</time>
      </trkpt>
      <trkpt lat="43.43955" lon="6.09268">
        <ele>233.19999694824</ele>
        <time>2015-02-18T14:17:09Z</time>
      </trkpt>
      <trkpt lat="43.43952" lon="6.0926">
        <ele>233.39999389648</ele>
        <time>2015-02-18T14:17:11Z</time>
      </trkpt>
      <trkpt lat="43.43941" lon="6.09235">
        <ele>233.60000610352</ele>
        <time>2015-02-18T14:17:17Z</time>
      </trkpt>
      <trkpt lat="43.43936" lon="6.09227">
        <ele>234.19999694824</ele>
        <time>2015-02-18T14:17:19Z</time>
      </trkpt>
      <trkpt lat="43.4393" lon="6.09216">
        <ele>234.39999389648</ele>
        <time>2015-02-18T14:17:22Z</time>
      </trkpt>
      <trkpt lat="43.43918" lon="6.09193">
        <ele>235</ele>
        <time>2015-02-18T14:17:28Z</time>
      </trkpt>
      <trkpt lat="43.43912" lon="6.09186">
        <ele>235.19999694824</ele>
        <time>2015-02-18T14:17:31Z</time>
      </trkpt>
      <trkpt lat="43.43907" lon="6.09181">
        <ele>235.39999389648</ele>
        <time>2015-02-18T14:17:33Z</time>
      </trkpt>
      <trkpt lat="43.4389" lon="6.09159">
        <ele>236.19999694824</ele>
        <time>2015-02-18T14:17:39Z</time>
      </trkpt>
      <trkpt lat="43.43884" lon="6.09146">
        <ele>236.19999694824</ele>
        <time>2015-02-18T14:17:42Z</time>
      </trkpt>
      <trkpt lat="43.43877" lon="6.09134">
        <ele>236.19999694824</ele>
        <time>2015-02-18T14:17:45Z</time>
      </trkpt>
      <trkpt lat="43.43866" lon="6.09108">
        <ele>236.60000610352</ele>
        <time>2015-02-18T14:17:51Z</time>
      </trkpt>
      <trkpt lat="43.43855" lon="6.09078">
        <ele>237.39999389648</ele>
        <time>2015-02-18T14:17:57Z</time>
      </trkpt>
      <trkpt lat="43.43853" lon="6.09073">
        <ele>237.39999389648</ele>
        <time>2015-02-18T14:17:58Z</time>
      </trkpt>
      <trkpt lat="43.43842" lon="6.09049">
        <ele>238.19999694824</ele>
        <time>2015-02-18T14:18:04Z</time>
      </trkpt>
      <trkpt lat="43.43828" lon="6.09034">
        <ele>238.39999389648</ele>
        <time>2015-02-18T14:18:09Z</time>
      </trkpt>
      <trkpt lat="43.43825" lon="6.09031">
        <ele>238.39999389648</ele>
        <time>2015-02-18T14:18:10Z</time>
      </trkpt>
      <trkpt lat="43.43805" lon="6.09017">
        <ele>238.60000610352</ele>
        <time>2015-02-18T14:18:15Z</time>
      </trkpt>
      <trkpt lat="43.43783" lon="6.08998">
        <ele>238.80000305176</ele>
        <time>2015-02-18T14:18:21Z</time>
      </trkpt>
      <trkpt lat="43.43758" lon="6.0898">
        <ele>239.39999389648</ele>
        <time>2015-02-18T14:18:28Z</time>
      </trkpt>
      <trkpt lat="43.43751" lon="6.08975">
        <ele>239.39999389648</ele>
        <time>2015-02-18T14:18:30Z</time>
      </trkpt>
      <trkpt lat="43.43737" lon="6.08959">
        <ele>240.19999694824</ele>
        <time>2015-02-18T14:18:35Z</time>
      </trkpt>
      <trkpt lat="43.43718" lon="6.08928">
        <ele>241.39999389648</ele>
        <time>2015-02-18T14:18:44Z</time>
      </trkpt>
      <trkpt lat="43.4371" lon="6.08912">
        <ele>242.60000610352</ele>
        <time>2015-02-18T14:18:49Z</time>
      </trkpt>
      <trkpt lat="43.43709" lon="6.0891">
        <ele>242.80000305176</ele>
        <time>2015-02-18T14:18:50Z</time>
      </trkpt>
      <trkpt lat="43.43706" lon="6.08907">
        <ele>243.39999389648</ele>
        <time>2015-02-18T14:18:55Z</time>
      </trkpt>
      <trkpt lat="43.43706" lon="6.08907">
        <ele>243.60000610352</ele>
        <time>2015-02-18T14:18:58Z</time>
      </trkpt>
      <trkpt lat="43.43706" lon="6.08907">
        <ele>243.39999389648</ele>
        <time>2015-02-18T14:19:03Z</time>
      </trkpt>
      <trkpt lat="43.43706" lon="6.08907">
        <ele>243.39999389648</ele>
        <time>2015-02-18T14:19:04Z</time>
      </trkpt>
      <trkpt lat="43.43706" lon="6.08907">
        <ele>243.60000610352</ele>
        <time>2015-02-18T14:19:09Z</time>
      </trkpt>
      <trkpt lat="43.43705" lon="6.08907">
        <ele>243.60000610352</ele>
        <time>2015-02-18T14:19:24Z</time>
      </trkpt>
      <trkpt lat="43.43705" lon="6.08907">
        <ele>243.60000610352</ele>
        <time>2015-02-18T14:19:30Z</time>
      </trkpt>
      <trkpt lat="43.43705" lon="6.08907">
        <ele>243.39999389648</ele>
        <time>2015-02-18T14:19:34Z</time>
      </trkpt>
      <trkpt lat="43.43704" lon="6.08907">
        <ele>243.80000305176</ele>
        <time>2015-02-18T14:19:43Z</time>
      </trkpt>
      <trkpt lat="43.43704" lon="6.08909">
        <ele>243.80000305176</ele>
        <time>2015-02-18T14:19:45Z</time>
      </trkpt>
      <trkpt lat="43.43704" lon="6.08915">
        <ele>244</ele>
        <time>2015-02-18T14:19:48Z</time>
      </trkpt>
      <trkpt lat="43.43706" lon="6.08923">
        <ele>243.80000305176</ele>
        <time>2015-02-18T14:19:50Z</time>
      </trkpt>
      <trkpt lat="43.43711" lon="6.08953">
        <ele>244</ele>
        <time>2015-02-18T14:19:56Z</time>
      </trkpt>
      <trkpt lat="43.43711" lon="6.08982">
        <ele>244</ele>
        <time>2015-02-18T14:20:01Z</time>
      </trkpt>
      <trkpt lat="43.43709" lon="6.08999">
        <ele>244</ele>
        <time>2015-02-18T14:20:04Z</time>
      </trkpt>
      <trkpt lat="43.43703" lon="6.09033">
        <ele>244.39999389648</ele>
        <time>2015-02-18T14:20:10Z</time>
      </trkpt>
      <trkpt lat="43.43693" lon="6.09072">
        <ele>244.39999389648</ele>
        <time>2015-02-18T14:20:17Z</time>
      </trkpt>
      <trkpt lat="43.43684" lon="6.09103">
        <ele>245</ele>
        <time>2015-02-18T14:20:23Z</time>
      </trkpt>
      <trkpt lat="43.43681" lon="6.09119">
        <ele>245.39999389648</ele>
        <time>2015-02-18T14:20:26Z</time>
      </trkpt>
      <trkpt lat="43.43674" lon="6.09144">
        <ele>246.19999694824</ele>
        <time>2015-02-18T14:20:31Z</time>
      </trkpt>
      <trkpt lat="43.43672" lon="6.09153">
        <ele>246.39999389648</ele>
        <time>2015-02-18T14:20:33Z</time>
      </trkpt>
      <trkpt lat="43.43661" lon="6.0919">
        <ele>247.60000610352</ele>
        <time>2015-02-18T14:20:41Z</time>
      </trkpt>
      <trkpt lat="43.43652" lon="6.09216">
        <ele>248.60000610352</ele>
        <time>2015-02-18T14:20:47Z</time>
      </trkpt>
      <trkpt lat="43.43645" lon="6.09239">
        <ele>248.60000610352</ele>
        <time>2015-02-18T14:20:52Z</time>
      </trkpt>
      <trkpt lat="43.43644" lon="6.09252">
        <ele>248.60000610352</ele>
        <time>2015-02-18T14:20:55Z</time>
      </trkpt>
      <trkpt lat="43.43638" lon="6.09279">
        <ele>249.19999694824</ele>
        <time>2015-02-18T14:21:02Z</time>
      </trkpt>
      <trkpt lat="43.43636" lon="6.09305">
        <ele>249.60000610352</ele>
        <time>2015-02-18T14:21:08Z</time>
      </trkpt>
      <trkpt lat="43.43633" lon="6.09354">
        <ele>250.80000305176</ele>
        <time>2015-02-18T14:21:19Z</time>
      </trkpt>
      <trkpt lat="43.43631" lon="6.09375">
        <ele>251.39999389648</ele>
        <time>2015-02-18T14:21:24Z</time>
      </trkpt>
      <trkpt lat="43.43631" lon="6.09378">
        <ele>251.39999389648</ele>
        <time>2015-02-18T14:21:25Z</time>
      </trkpt>
      <trkpt lat="43.43627" lon="6.09382">
        <ele>251.60000610352</ele>
        <time>2015-02-18T14:21:27Z</time>
      </trkpt>
      <trkpt lat="43.43625" lon="6.09383">
        <ele>252</ele>
        <time>2015-02-18T14:21:28Z</time>
      </trkpt>
      <trkpt lat="43.43623" lon="6.09383">
        <ele>252.19999694824</ele>
        <time>2015-02-18T14:21:29Z</time>
      </trkpt>
      <trkpt lat="43.43615" lon="6.09383">
        <ele>252.19999694824</ele>
        <time>2015-02-18T14:21:33Z</time>
      </trkpt>
      <trkpt lat="43.43609" lon="6.09384">
        <ele>252.39999389648</ele>
        <time>2015-02-18T14:21:36Z</time>
      </trkpt>
      <trkpt lat="43.43601" lon="6.09384">
        <ele>252.39999389648</ele>
        <time>2015-02-18T14:21:40Z</time>
      </trkpt>
      <trkpt lat="43.43593" lon="6.09385">
        <ele>253</ele>
        <time>2015-02-18T14:21:44Z</time>
      </trkpt>
      <trkpt lat="43.43583" lon="6.09386">
        <ele>253.80000305176</ele>
        <time>2015-02-18T14:21:48Z</time>
      </trkpt>
      <trkpt lat="43.43564" lon="6.09387">
        <ele>254</ele>
        <time>2015-02-18T14:21:56Z</time>
      </trkpt>
      <trkpt lat="43.43559" lon="6.09386">
        <ele>254.19999694824</ele>
        <time>2015-02-18T14:21:58Z</time>
      </trkpt>
      <trkpt lat="43.43544" lon="6.09385">
        <ele>255</ele>
        <time>2015-02-18T14:22:05Z</time>
      </trkpt>
      <trkpt lat="43.4354" lon="6.09384">
        <ele>255.19999694824</ele>
        <time>2015-02-18T14:22:07Z</time>
      </trkpt>
      <trkpt lat="43.43533" lon="6.09383">
        <ele>255.80000305176</ele>
        <time>2015-02-18T14:22:11Z</time>
      </trkpt>
      <trkpt lat="43.43523" lon="6.09382">
        <ele>256.20001220703</ele>
        <time>2015-02-18T14:22:16Z</time>
      </trkpt>
      <trkpt lat="43.43516" lon="6.09381">
        <ele>257</ele>
        <time>2015-02-18T14:22:20Z</time>
      </trkpt>
      <trkpt lat="43.43512" lon="6.09381">
        <ele>257.39999389648</ele>
        <time>2015-02-18T14:22:22Z</time>
      </trkpt>
      <trkpt lat="43.43501" lon="6.09382">
        <ele>258.39999389648</ele>
        <time>2015-02-18T14:22:28Z</time>
      </trkpt>
      <trkpt lat="43.43496" lon="6.09381">
        <ele>258.79998779297</ele>
        <time>2015-02-18T14:22:31Z</time>
      </trkpt>
      <trkpt lat="43.43488" lon="6.09381">
        <ele>259.39999389648</ele>
        <time>2015-02-18T14:22:36Z</time>
      </trkpt>
      <trkpt lat="43.4348" lon="6.09381">
        <ele>260.20001220703</ele>
        <time>2015-02-18T14:22:41Z</time>
      </trkpt>
      <trkpt lat="43.43471" lon="6.09382">
        <ele>260.60000610352</ele>
        <time>2015-02-18T14:22:46Z</time>
      </trkpt>
      <trkpt lat="43.43464" lon="6.09381">
        <ele>261.60000610352</ele>
        <time>2015-02-18T14:22:51Z</time>
      </trkpt>
      <trkpt lat="43.43455" lon="6.09383">
        <ele>263.20001220703</ele>
        <time>2015-02-18T14:22:58Z</time>
      </trkpt>
      <trkpt lat="43.43452" lon="6.09385">
        <ele>263.79998779297</ele>
        <time>2015-02-18T14:23:01Z</time>
      </trkpt>
      <trkpt lat="43.4345" lon="6.09384">
        <ele>264.20001220703</ele>
        <time>2015-02-18T14:23:03Z</time>
      </trkpt>
      <trkpt lat="43.43449" lon="6.09383">
        <ele>264.20001220703</ele>
        <time>2015-02-18T14:23:04Z</time>
      </trkpt>
      <trkpt lat="43.43447" lon="6.09382">
        <ele>264.20001220703</ele>
        <time>2015-02-18T14:23:05Z</time>
      </trkpt>
      <trkpt lat="43.43445" lon="6.09379">
        <ele>264.79998779297</ele>
        <time>2015-02-18T14:23:07Z</time>
      </trkpt>
      <trkpt lat="43.43444" lon="6.09378">
        <ele>265.20001220703</ele>
        <time>2015-02-18T14:23:08Z</time>
      </trkpt>
      <trkpt lat="43.43442" lon="6.09376">
        <ele>265.60000610352</ele>
        <time>2015-02-18T14:23:10Z</time>
      </trkpt>
      <trkpt lat="43.43438" lon="6.09375">
        <ele>266.60000610352</ele>
        <time>2015-02-18T14:23:13Z</time>
      </trkpt>
      <trkpt lat="43.43437" lon="6.09373">
        <ele>266.79998779297</ele>
        <time>2015-02-18T14:23:15Z</time>
      </trkpt>
      <trkpt lat="43.43436" lon="6.09372">
        <ele>267</ele>
        <time>2015-02-18T14:23:16Z</time>
      </trkpt>
      <trkpt lat="43.43435" lon="6.09369">
        <ele>267.39999389648</ele>
        <time>2015-02-18T14:23:18Z</time>
      </trkpt>
      <trkpt lat="43.43434" lon="6.09367">
        <ele>267.60000610352</ele>
        <time>2015-02-18T14:23:20Z</time>
      </trkpt>
      <trkpt lat="43.4343" lon="6.09363">
        <ele>268.20001220703</ele>
        <time>2015-02-18T14:23:23Z</time>
      </trkpt>
      <trkpt lat="43.43427" lon="6.09358">
        <ele>268.79998779297</ele>
        <time>2015-02-18T14:23:27Z</time>
      </trkpt>
      <trkpt lat="43.43423" lon="6.09353">
        <ele>269.39999389648</ele>
        <time>2015-02-18T14:23:31Z</time>
      </trkpt>
      <trkpt lat="43.43419" lon="6.09349">
        <ele>270</ele>
        <time>2015-02-18T14:23:35Z</time>
      </trkpt>
      <trkpt lat="43.43414" lon="6.09347">
        <ele>270.39999389648</ele>
        <time>2015-02-18T14:23:39Z</time>
      </trkpt>
      <trkpt lat="43.4341" lon="6.09345">
        <ele>271</ele>
        <time>2015-02-18T14:23:42Z</time>
      </trkpt>
      <trkpt lat="43.43406" lon="6.09342">
        <ele>272</ele>
        <time>2015-02-18T14:23:46Z</time>
      </trkpt>
      <trkpt lat="43.43404" lon="6.09341">
        <ele>272.39999389648</ele>
        <time>2015-02-18T14:23:49Z</time>
      </trkpt>
      <trkpt lat="43.434" lon="6.0934">
        <ele>273</ele>
        <time>2015-02-18T14:23:53Z</time>
      </trkpt>
      <trkpt lat="43.43393" lon="6.09336">
        <ele>274.20001220703</ele>
        <time>2015-02-18T14:23:59Z</time>
      </trkpt>
      <trkpt lat="43.43392" lon="6.09336">
        <ele>274.39999389648</ele>
        <time>2015-02-18T14:24:00Z</time>
      </trkpt>
      <trkpt lat="43.43386" lon="6.09333">
        <ele>275.79998779297</ele>
        <time>2015-02-18T14:24:06Z</time>
      </trkpt>
      <trkpt lat="43.43379" lon="6.09328">
        <ele>276.79998779297</ele>
        <time>2015-02-18T14:24:14Z</time>
      </trkpt>
      <trkpt lat="43.43375" lon="6.09328">
        <ele>277.60000610352</ele>
        <time>2015-02-18T14:24:18Z</time>
      </trkpt>
      <trkpt lat="43.4337" lon="6.09331">
        <ele>278</ele>
        <time>2015-02-18T14:24:24Z</time>
      </trkpt>
      <trkpt lat="43.43368" lon="6.09332">
        <ele>278.39999389648</ele>
        <time>2015-02-18T14:24:26Z</time>
      </trkpt>
      <trkpt lat="43.43364" lon="6.09334">
        <ele>279.20001220703</ele>
        <time>2015-02-18T14:24:30Z</time>
      </trkpt>
      <trkpt lat="43.43361" lon="6.09336">
        <ele>279.39999389648</ele>
        <time>2015-02-18T14:24:34Z</time>
      </trkpt>
      <trkpt lat="43.43358" lon="6.09337">
        <ele>280</ele>
        <time>2015-02-18T14:24:37Z</time>
      </trkpt>
      <trkpt lat="43.43355" lon="6.09337">
        <ele>280.20001220703</ele>
        <time>2015-02-18T14:24:40Z</time>
      </trkpt>
      <trkpt lat="43.43349" lon="6.09338">
        <ele>281.20001220703</ele>
        <time>2015-02-18T14:24:45Z</time>
      </trkpt>
      <trkpt lat="43.43343" lon="6.09341">
        <ele>282.20001220703</ele>
        <time>2015-02-18T14:24:51Z</time>
      </trkpt>
      <trkpt lat="43.43339" lon="6.09342">
        <ele>282.39999389648</ele>
        <time>2015-02-18T14:24:54Z</time>
      </trkpt>
      <trkpt lat="43.43338" lon="6.09342">
        <ele>282.60000610352</ele>
        <time>2015-02-18T14:24:55Z</time>
      </trkpt>
      <trkpt lat="43.43336" lon="6.09342">
        <ele>283.20001220703</ele>
        <time>2015-02-18T14:24:57Z</time>
      </trkpt>
      <trkpt lat="43.43334" lon="6.09343">
        <ele>284.20001220703</ele>
        <time>2015-02-18T14:24:59Z</time>
      </trkpt>
      <trkpt lat="43.43331" lon="6.09343">
        <ele>285.20001220703</ele>
        <time>2015-02-18T14:25:02Z</time>
      </trkpt>
      <trkpt lat="43.43328" lon="6.09344">
        <ele>285.60000610352</ele>
        <time>2015-02-18T14:25:05Z</time>
      </trkpt>
      <trkpt lat="43.43324" lon="6.09345">
        <ele>286.20001220703</ele>
        <time>2015-02-18T14:25:11Z</time>
      </trkpt>
      <trkpt lat="43.43322" lon="6.09346">
        <ele>286.39999389648</ele>
        <time>2015-02-18T14:25:12Z</time>
      </trkpt>
      <trkpt lat="43.43321" lon="6.09345">
        <ele>286.60000610352</ele>
        <time>2015-02-18T14:25:13Z</time>
      </trkpt>
      <trkpt lat="43.43316" lon="6.09345">
        <ele>287.20001220703</ele>
        <time>2015-02-18T14:25:18Z</time>
      </trkpt>
      <trkpt lat="43.43313" lon="6.09345">
        <ele>287.79998779297</ele>
        <time>2015-02-18T14:25:21Z</time>
      </trkpt>
      <trkpt lat="43.4331" lon="6.09345">
        <ele>288.39999389648</ele>
        <time>2015-02-18T14:25:24Z</time>
      </trkpt>
      <trkpt lat="43.43306" lon="6.09346">
        <ele>288.39999389648</ele>
        <time>2015-02-18T14:25:28Z</time>
      </trkpt>
      <trkpt lat="43.43304" lon="6.09346">
        <ele>288.39999389648</ele>
        <time>2015-02-18T14:25:29Z</time>
      </trkpt>
      <trkpt lat="43.43301" lon="6.09348">
        <ele>288.79998779297</ele>
        <time>2015-02-18T14:25:32Z</time>
      </trkpt>
      <trkpt lat="43.43295" lon="6.09352">
        <ele>289.60000610352</ele>
        <time>2015-02-18T14:25:37Z</time>
      </trkpt>
      <trkpt lat="43.43286" lon="6.09356">
        <ele>290</ele>
        <time>2015-02-18T14:25:44Z</time>
      </trkpt>
      <trkpt lat="43.43281" lon="6.09359">
        <ele>290.79998779297</ele>
        <time>2015-02-18T14:25:49Z</time>
      </trkpt>
      <trkpt lat="43.43279" lon="6.0936">
        <ele>291</ele>
        <time>2015-02-18T14:25:51Z</time>
      </trkpt>
      <trkpt lat="43.4327" lon="6.09366">
        <ele>292</ele>
        <time>2015-02-18T14:25:59Z</time>
      </trkpt>
      <trkpt lat="43.43262" lon="6.09374">
        <ele>293</ele>
        <time>2015-02-18T14:26:06Z</time>
      </trkpt>
      <trkpt lat="43.43259" lon="6.09375">
        <ele>293.39999389648</ele>
        <time>2015-02-18T14:26:08Z</time>
      </trkpt>
      <trkpt lat="43.43256" lon="6.09376">
        <ele>294.20001220703</ele>
        <time>2015-02-18T14:26:11Z</time>
      </trkpt>
      <trkpt lat="43.43253" lon="6.09378">
        <ele>294.60000610352</ele>
        <time>2015-02-18T14:26:14Z</time>
      </trkpt>
      <trkpt lat="43.43252" lon="6.09379">
        <ele>294.79998779297</ele>
        <time>2015-02-18T14:26:15Z</time>
      </trkpt>
      <trkpt lat="43.43251" lon="6.09381">
        <ele>295</ele>
        <time>2015-02-18T14:26:20Z</time>
      </trkpt>
      <trkpt lat="43.43251" lon="6.09381">
        <ele>294.79998779297</ele>
        <time>2015-02-18T14:26:22Z</time>
      </trkpt>
      <trkpt lat="43.43251" lon="6.09381">
        <ele>295</ele>
        <time>2015-02-18T14:26:35Z</time>
      </trkpt>
      <trkpt lat="43.43251" lon="6.09381">
        <ele>295</ele>
        <time>2015-02-18T14:26:46Z</time>
      </trkpt>
      <trkpt lat="43.43251" lon="6.09381">
        <ele>294.79998779297</ele>
        <time>2015-02-18T14:26:49Z</time>
      </trkpt>
      <trkpt lat="43.43251" lon="6.09381">
        <ele>294.60000610352</ele>
        <time>2015-02-18T14:26:56Z</time>
      </trkpt>
      <trkpt lat="43.43251" lon="6.09381">
        <ele>294.79998779297</ele>
        <time>2015-02-18T14:27:18Z</time>
      </trkpt>
      <trkpt lat="43.43251" lon="6.09381">
        <ele>294.60000610352</ele>
        <time>2015-02-18T14:27:31Z</time>
      </trkpt>
      <trkpt lat="43.43251" lon="6.09381">
        <ele>294.39999389648</ele>
        <time>2015-02-18T14:28:07Z</time>
      </trkpt>
      <trkpt lat="43.43251" lon="6.09381">
        <ele>294.39999389648</ele>
        <time>2015-02-18T14:28:24Z</time>
      </trkpt>
      <trkpt lat="43.43251" lon="6.09381">
        <ele>294.60000610352</ele>
        <time>2015-02-18T14:29:26Z</time>
      </trkpt>
      <trkpt lat="43.43251" lon="6.09381">
        <ele>294.60000610352</ele>
        <time>2015-02-18T14:29:46Z</time>
      </trkpt>
      <trkpt lat="43.43251" lon="6.09381">
        <ele>294.60000610352</ele>
        <time>2015-02-18T14:29:53Z</time>
      </trkpt>
      <trkpt lat="43.4325" lon="6.09381">
        <ele>294.39999389648</ele>
        <time>2015-02-18T14:29:54Z</time>
      </trkpt>
      <trkpt lat="43.4325" lon="6.09381">
        <ele>294.60000610352</ele>
        <time>2015-02-18T14:30:06Z</time>
      </trkpt>
      <trkpt lat="43.4325" lon="6.09381">
        <ele>294.20001220703</ele>
        <time>2015-02-18T14:30:30Z</time>
      </trkpt>
      <trkpt lat="43.4325" lon="6.09381">
        <ele>294.39999389648</ele>
        <time>2015-02-18T14:30:57Z</time>
      </trkpt>
      <trkpt lat="43.43249" lon="6.09382">
        <ele>294.39999389648</ele>
        <time>2015-02-18T14:31:04Z</time>
      </trkpt>
      <trkpt lat="43.4324" lon="6.09381">
        <ele>294.39999389648</ele>
        <time>2015-02-18T14:31:08Z</time>
      </trkpt>
      <trkpt lat="43.43235" lon="6.09382">
        <ele>294</ele>
        <time>2015-02-18T14:31:10Z</time>
      </trkpt>
      <trkpt lat="43.43232" lon="6.09384">
        <ele>293.79998779297</ele>
        <time>2015-02-18T14:31:11Z</time>
      </trkpt>
      <trkpt lat="43.43229" lon="6.09386">
        <ele>293.60000610352</ele>
        <time>2015-02-18T14:31:12Z</time>
      </trkpt>
      <trkpt lat="43.43219" lon="6.09385">
        <ele>292.79998779297</ele>
        <time>2015-02-18T14:31:15Z</time>
      </trkpt>
      <trkpt lat="43.43215" lon="6.09385">
        <ele>292.60000610352</ele>
        <time>2015-02-18T14:31:16Z</time>
      </trkpt>
      <trkpt lat="43.43203" lon="6.09387">
        <ele>292.20001220703</ele>
        <time>2015-02-18T14:31:19Z</time>
      </trkpt>
      <trkpt lat="43.43192" lon="6.09384">
        <ele>291.79998779297</ele>
        <time>2015-02-18T14:31:22Z</time>
      </trkpt>
      <trkpt lat="43.43184" lon="6.09385">
        <ele>292.20001220703</ele>
        <time>2015-02-18T14:31:24Z</time>
      </trkpt>
      <trkpt lat="43.4318" lon="6.09387">
        <ele>291.79998779297</ele>
        <time>2015-02-18T14:31:25Z</time>
      </trkpt>
      <trkpt lat="43.43172" lon="6.09392">
        <ele>291.39999389648</ele>
        <time>2015-02-18T14:31:27Z</time>
      </trkpt>
      <trkpt lat="43.43168" lon="6.09396">
        <ele>291.20001220703</ele>
        <time>2015-02-18T14:31:28Z</time>
      </trkpt>
      <trkpt lat="43.43161" lon="6.09406">
        <ele>291.60000610352</ele>
        <time>2015-02-18T14:31:30Z</time>
      </trkpt>
      <trkpt lat="43.43148" lon="6.0942">
        <ele>290.39999389648</ele>
        <time>2015-02-18T14:31:33Z</time>
      </trkpt>
      <trkpt lat="43.43143" lon="6.09423">
        <ele>290.20001220703</ele>
        <time>2015-02-18T14:31:34Z</time>
      </trkpt>
      <trkpt lat="43.43139" lon="6.09426">
        <ele>290</ele>
        <time>2015-02-18T14:31:35Z</time>
      </trkpt>
      <trkpt lat="43.43126" lon="6.09437">
        <ele>290</ele>
        <time>2015-02-18T14:31:38Z</time>
      </trkpt>
      <trkpt lat="43.43121" lon="6.09442">
        <ele>290</ele>
        <time>2015-02-18T14:31:39Z</time>
      </trkpt>
      <trkpt lat="43.43116" lon="6.09446">
        <ele>290</ele>
        <time>2015-02-18T14:31:40Z</time>
      </trkpt>
      <trkpt lat="43.43101" lon="6.09457">
        <ele>289</ele>
        <time>2015-02-18T14:31:43Z</time>
      </trkpt>
      <trkpt lat="43.43096" lon="6.0946">
        <ele>288.60000610352</ele>
        <time>2015-02-18T14:31:44Z</time>
      </trkpt>
      <trkpt lat="43.43091" lon="6.09464">
        <ele>288.79998779297</ele>
        <time>2015-02-18T14:31:45Z</time>
      </trkpt>
      <trkpt lat="43.43083" lon="6.09471">
        <ele>289</ele>
        <time>2015-02-18T14:31:47Z</time>
      </trkpt>
      <trkpt lat="43.43078" lon="6.09474">
        <ele>288.79998779297</ele>
        <time>2015-02-18T14:31:48Z</time>
      </trkpt>
      <trkpt lat="43.43074" lon="6.09476">
        <ele>288.39999389648</ele>
        <time>2015-02-18T14:31:49Z</time>
      </trkpt>
      <trkpt lat="43.43064" lon="6.09472">
        <ele>287.39999389648</ele>
        <time>2015-02-18T14:31:51Z</time>
      </trkpt>
      <trkpt lat="43.43057" lon="6.09471">
        <ele>286.60000610352</ele>
        <time>2015-02-18T14:31:53Z</time>
      </trkpt>
      <trkpt lat="43.43053" lon="6.09473">
        <ele>286.20001220703</ele>
        <time>2015-02-18T14:31:54Z</time>
      </trkpt>
      <trkpt lat="43.43039" lon="6.0947">
        <ele>285.20001220703</ele>
        <time>2015-02-18T14:31:57Z</time>
      </trkpt>
      <trkpt lat="43.4303" lon="6.0946">
        <ele>283.79998779297</ele>
        <time>2015-02-18T14:31:59Z</time>
      </trkpt>
      <trkpt lat="43.43025" lon="6.09454">
        <ele>282.79998779297</ele>
        <time>2015-02-18T14:32:00Z</time>
      </trkpt>
      <trkpt lat="43.4302" lon="6.09449">
        <ele>282.60000610352</ele>
        <time>2015-02-18T14:32:01Z</time>
      </trkpt>
      <trkpt lat="43.43015" lon="6.09444">
        <ele>283</ele>
        <time>2015-02-18T14:32:02Z</time>
      </trkpt>
      <trkpt lat="43.4301" lon="6.09441">
        <ele>283.20001220703</ele>
        <time>2015-02-18T14:32:03Z</time>
      </trkpt>
      <trkpt lat="43.43005" lon="6.09438">
        <ele>282.20001220703</ele>
        <time>2015-02-18T14:32:04Z</time>
      </trkpt>
      <trkpt lat="43.43001" lon="6.09437">
        <ele>281</ele>
        <time>2015-02-18T14:32:05Z</time>
      </trkpt>
      <trkpt lat="43.42997" lon="6.09437">
        <ele>279.79998779297</ele>
        <time>2015-02-18T14:32:06Z</time>
      </trkpt>
      <trkpt lat="43.42995" lon="6.09438">
        <ele>279</ele>
        <time>2015-02-18T14:32:07Z</time>
      </trkpt>
      <trkpt lat="43.42993" lon="6.0944">
        <ele>278.60000610352</ele>
        <time>2015-02-18T14:32:08Z</time>
      </trkpt>
      <trkpt lat="43.42991" lon="6.09443">
        <ele>278.39999389648</ele>
        <time>2015-02-18T14:32:11Z</time>
      </trkpt>
      <trkpt lat="43.42989" lon="6.09446">
        <ele>278.39999389648</ele>
        <time>2015-02-18T14:32:14Z</time>
      </trkpt>
      <trkpt lat="43.42989" lon="6.09449">
        <ele>278.39999389648</ele>
        <time>2015-02-18T14:32:16Z</time>
      </trkpt>
      <trkpt lat="43.42988" lon="6.09452">
        <ele>278.60000610352</ele>
        <time>2015-02-18T14:32:18Z</time>
      </trkpt>
      <trkpt lat="43.42988" lon="6.09456">
        <ele>278.60000610352</ele>
        <time>2015-02-18T14:32:20Z</time>
      </trkpt>
      <trkpt lat="43.42987" lon="6.09461">
        <ele>278.79998779297</ele>
        <time>2015-02-18T14:32:23Z</time>
      </trkpt>
      <trkpt lat="43.42988" lon="6.09464">
        <ele>279</ele>
        <time>2015-02-18T14:32:26Z</time>
      </trkpt>
      <trkpt lat="43.42987" lon="6.09465">
        <ele>279</ele>
        <time>2015-02-18T14:32:27Z</time>
      </trkpt>
      <trkpt lat="43.42987" lon="6.09468">
        <ele>279</ele>
        <time>2015-02-18T14:32:29Z</time>
      </trkpt>
      <trkpt lat="43.42987" lon="6.09481">
        <ele>279.79998779297</ele>
        <time>2015-02-18T14:32:36Z</time>
      </trkpt>
      <trkpt lat="43.42987" lon="6.09483">
        <ele>280</ele>
        <time>2015-02-18T14:32:37Z</time>
      </trkpt>
      <trkpt lat="43.42986" lon="6.09503">
        <ele>280.39999389648</ele>
        <time>2015-02-18T14:32:45Z</time>
      </trkpt>
      <trkpt lat="43.42986" lon="6.09506">
        <ele>280.79998779297</ele>
        <time>2015-02-18T14:32:46Z</time>
      </trkpt>
      <trkpt lat="43.42988" lon="6.09512">
        <ele>281.39999389648</ele>
        <time>2015-02-18T14:32:49Z</time>
      </trkpt>
      <trkpt lat="43.4299" lon="6.09519">
        <ele>282</ele>
        <time>2015-02-18T14:32:52Z</time>
      </trkpt>
      <trkpt lat="43.4299" lon="6.09531">
        <ele>282.20001220703</ele>
        <time>2015-02-18T14:32:58Z</time>
      </trkpt>
      <trkpt lat="43.4299" lon="6.09534">
        <ele>282.20001220703</ele>
        <time>2015-02-18T14:32:59Z</time>
      </trkpt>
      <trkpt lat="43.4299" lon="6.09537">
        <ele>282.20001220703</ele>
        <time>2015-02-18T14:33:00Z</time>
      </trkpt>
      <trkpt lat="43.42985" lon="6.09554">
        <ele>281.39999389648</ele>
        <time>2015-02-18T14:33:03Z</time>
      </trkpt>
      <trkpt lat="43.42981" lon="6.09569">
        <ele>280.39999389648</ele>
        <time>2015-02-18T14:33:05Z</time>
      </trkpt>
      <trkpt lat="43.42976" lon="6.09585">
        <ele>279.20001220703</ele>
        <time>2015-02-18T14:33:07Z</time>
      </trkpt>
      <trkpt lat="43.42975" lon="6.09591">
        <ele>279.20001220703</ele>
        <time>2015-02-18T14:33:08Z</time>
      </trkpt>
      <trkpt lat="43.42973" lon="6.0961">
        <ele>280</ele>
        <time>2015-02-18T14:33:12Z</time>
      </trkpt>
      <trkpt lat="43.42973" lon="6.09619">
        <ele>280</ele>
        <time>2015-02-18T14:33:14Z</time>
      </trkpt>
      <trkpt lat="43.42971" lon="6.09647">
        <ele>279.79998779297</ele>
        <time>2015-02-18T14:33:21Z</time>
      </trkpt>
      <trkpt lat="43.4297" lon="6.09676">
        <ele>279.20001220703</ele>
        <time>2015-02-18T14:33:28Z</time>
      </trkpt>
      <trkpt lat="43.42969" lon="6.09691">
        <ele>280</ele>
        <time>2015-02-18T14:33:32Z</time>
      </trkpt>
      <trkpt lat="43.42969" lon="6.09702">
        <ele>280.60000610352</ele>
        <time>2015-02-18T14:33:35Z</time>
      </trkpt>
      <trkpt lat="43.42969" lon="6.09711">
        <ele>281.39999389648</ele>
        <time>2015-02-18T14:33:37Z</time>
      </trkpt>
      <trkpt lat="43.42968" lon="6.09714">
        <ele>281.60000610352</ele>
        <time>2015-02-18T14:33:38Z</time>
      </trkpt>
      <trkpt lat="43.4297" lon="6.09721">
        <ele>282.39999389648</ele>
        <time>2015-02-18T14:33:40Z</time>
      </trkpt>
      <trkpt lat="43.4297" lon="6.09724">
        <ele>282.60000610352</ele>
        <time>2015-02-18T14:33:41Z</time>
      </trkpt>
      <trkpt lat="43.42968" lon="6.09735">
        <ele>283.20001220703</ele>
        <time>2015-02-18T14:33:45Z</time>
      </trkpt>
      <trkpt lat="43.42966" lon="6.09752">
        <ele>283.60000610352</ele>
        <time>2015-02-18T14:33:51Z</time>
      </trkpt>
      <trkpt lat="43.42966" lon="6.09758">
        <ele>283.60000610352</ele>
        <time>2015-02-18T14:33:53Z</time>
      </trkpt>
      <trkpt lat="43.42965" lon="6.09767">
        <ele>283.60000610352</ele>
        <time>2015-02-18T14:33:56Z</time>
      </trkpt>
      <trkpt lat="43.42964" lon="6.09774">
        <ele>283.60000610352</ele>
        <time>2015-02-18T14:33:58Z</time>
      </trkpt>
      <trkpt lat="43.42963" lon="6.0978">
        <ele>283.60000610352</ele>
        <time>2015-02-18T14:34:00Z</time>
      </trkpt>
      <trkpt lat="43.42962" lon="6.0979">
        <ele>284.79998779297</ele>
        <time>2015-02-18T14:34:03Z</time>
      </trkpt>
      <trkpt lat="43.42961" lon="6.09798">
        <ele>285.20001220703</ele>
        <time>2015-02-18T14:34:06Z</time>
      </trkpt>
      <trkpt lat="43.42959" lon="6.09803">
        <ele>286</ele>
        <time>2015-02-18T14:34:08Z</time>
      </trkpt>
      <trkpt lat="43.42957" lon="6.09815">
        <ele>286.60000610352</ele>
        <time>2015-02-18T14:34:12Z</time>
      </trkpt>
      <trkpt lat="43.42956" lon="6.09823">
        <ele>287</ele>
        <time>2015-02-18T14:34:15Z</time>
      </trkpt>
      <trkpt lat="43.42956" lon="6.09825">
        <ele>287.20001220703</ele>
        <time>2015-02-18T14:34:16Z</time>
      </trkpt>
      <trkpt lat="43.42956" lon="6.09834">
        <ele>287.39999389648</ele>
        <time>2015-02-18T14:34:19Z</time>
      </trkpt>
      <trkpt lat="43.42958" lon="6.09859">
        <ele>288</ele>
        <time>2015-02-18T14:34:27Z</time>
      </trkpt>
      <trkpt lat="43.42956" lon="6.09879">
        <ele>288</ele>
        <time>2015-02-18T14:34:33Z</time>
      </trkpt>
      <trkpt lat="43.42953" lon="6.09919">
        <ele>288.79998779297</ele>
        <time>2015-02-18T14:34:46Z</time>
      </trkpt>
      <trkpt lat="43.42953" lon="6.09925">
        <ele>289.20001220703</ele>
        <time>2015-02-18T14:34:48Z</time>
      </trkpt>
      <trkpt lat="43.42952" lon="6.09934">
        <ele>290.20001220703</ele>
        <time>2015-02-18T14:34:51Z</time>
      </trkpt>
      <trkpt lat="43.42951" lon="6.09937">
        <ele>290.60000610352</ele>
        <time>2015-02-18T14:34:52Z</time>
      </trkpt>
      <trkpt lat="43.42948" lon="6.09943">
        <ele>291.20001220703</ele>
        <time>2015-02-18T14:34:55Z</time>
      </trkpt>
      <trkpt lat="43.42944" lon="6.09946">
        <ele>292</ele>
        <time>2015-02-18T14:34:58Z</time>
      </trkpt>
      <trkpt lat="43.42941" lon="6.09947">
        <ele>292.20001220703</ele>
        <time>2015-02-18T14:35:00Z</time>
      </trkpt>
      <trkpt lat="43.42936" lon="6.09948">
        <ele>292.60000610352</ele>
        <time>2015-02-18T14:35:03Z</time>
      </trkpt>
      <trkpt lat="43.42922" lon="6.09955">
        <ele>293</ele>
        <time>2015-02-18T14:35:10Z</time>
      </trkpt>
      <trkpt lat="43.42914" lon="6.09961">
        <ele>293.20001220703</ele>
        <time>2015-02-18T14:35:14Z</time>
      </trkpt>
      <trkpt lat="43.42909" lon="6.09966">
        <ele>293.20001220703</ele>
        <time>2015-02-18T14:35:17Z</time>
      </trkpt>
      <trkpt lat="43.42907" lon="6.09968">
        <ele>293.39999389648</ele>
        <time>2015-02-18T14:35:18Z</time>
      </trkpt>
      <trkpt lat="43.429" lon="6.09981">
        <ele>293.79998779297</ele>
        <time>2015-02-18T14:35:25Z</time>
      </trkpt>
      <trkpt lat="43.42895" lon="6.09993">
        <ele>294.60000610352</ele>
        <time>2015-02-18T14:35:29Z</time>
      </trkpt>
      <trkpt lat="43.42894" lon="6.09996">
        <ele>295</ele>
        <time>2015-02-18T14:35:30Z</time>
      </trkpt>
      <trkpt lat="43.42891" lon="6.10003">
        <ele>295.39999389648</ele>
        <time>2015-02-18T14:35:33Z</time>
      </trkpt>
      <trkpt lat="43.42889" lon="6.10008">
        <ele>295.60000610352</ele>
        <time>2015-02-18T14:35:35Z</time>
      </trkpt>
      <trkpt lat="43.42884" lon="6.10017">
        <ele>297</ele>
        <time>2015-02-18T14:35:39Z</time>
      </trkpt>
      <trkpt lat="43.42882" lon="6.1002">
        <ele>297.39999389648</ele>
        <time>2015-02-18T14:35:41Z</time>
      </trkpt>
      <trkpt lat="43.42874" lon="6.10028">
        <ele>297.79998779297</ele>
        <time>2015-02-18T14:35:47Z</time>
      </trkpt>
      <trkpt lat="43.42871" lon="6.10035">
        <ele>297.79998779297</ele>
        <time>2015-02-18T14:35:51Z</time>
      </trkpt>
      <trkpt lat="43.4287" lon="6.10039">
        <ele>297.60000610352</ele>
        <time>2015-02-18T14:35:53Z</time>
      </trkpt>
      <trkpt lat="43.4287" lon="6.10043">
        <ele>297.60000610352</ele>
        <time>2015-02-18T14:35:55Z</time>
      </trkpt>
      <trkpt lat="43.42868" lon="6.10058">
        <ele>296.60000610352</ele>
        <time>2015-02-18T14:35:59Z</time>
      </trkpt>
      <trkpt lat="43.42868" lon="6.10064">
        <ele>295.60000610352</ele>
        <time>2015-02-18T14:36:00Z</time>
      </trkpt>
      <trkpt lat="43.42867" lon="6.1009">
        <ele>294.39999389648</ele>
        <time>2015-02-18T14:36:04Z</time>
      </trkpt>
      <trkpt lat="43.42867" lon="6.10098">
        <ele>293.20001220703</ele>
        <time>2015-02-18T14:36:05Z</time>
      </trkpt>
      <trkpt lat="43.42867" lon="6.10105">
        <ele>292</ele>
        <time>2015-02-18T14:36:06Z</time>
      </trkpt>
      <trkpt lat="43.42866" lon="6.10118">
        <ele>290.79998779297</ele>
        <time>2015-02-18T14:36:08Z</time>
      </trkpt>
      <trkpt lat="43.42864" lon="6.10125">
        <ele>290.60000610352</ele>
        <time>2015-02-18T14:36:09Z</time>
      </trkpt>
      <trkpt lat="43.4286" lon="6.10139">
        <ele>290.60000610352</ele>
        <time>2015-02-18T14:36:11Z</time>
      </trkpt>
      <trkpt lat="43.42857" lon="6.10146">
        <ele>290.39999389648</ele>
        <time>2015-02-18T14:36:12Z</time>
      </trkpt>
      <trkpt lat="43.42853" lon="6.10152">
        <ele>289.60000610352</ele>
        <time>2015-02-18T14:36:13Z</time>
      </trkpt>
      <trkpt lat="43.42846" lon="6.10164">
        <ele>288.39999389648</ele>
        <time>2015-02-18T14:36:15Z</time>
      </trkpt>
      <trkpt lat="43.42838" lon="6.10174">
        <ele>287.60000610352</ele>
        <time>2015-02-18T14:36:17Z</time>
      </trkpt>
      <trkpt lat="43.42831" lon="6.10186">
        <ele>287.39999389648</ele>
        <time>2015-02-18T14:36:19Z</time>
      </trkpt>
      <trkpt lat="43.4283" lon="6.10192">
        <ele>287.20001220703</ele>
        <time>2015-02-18T14:36:20Z</time>
      </trkpt>
      <trkpt lat="43.42826" lon="6.10203">
        <ele>286.60000610352</ele>
        <time>2015-02-18T14:36:23Z</time>
      </trkpt>
      <trkpt lat="43.42824" lon="6.10208">
        <ele>286.39999389648</ele>
        <time>2015-02-18T14:36:26Z</time>
      </trkpt>
      <trkpt lat="43.4282" lon="6.10214">
        <ele>286.39999389648</ele>
        <time>2015-02-18T14:36:30Z</time>
      </trkpt>
      <trkpt lat="43.42815" lon="6.10221">
        <ele>286.60000610352</ele>
        <time>2015-02-18T14:36:36Z</time>
      </trkpt>
      <trkpt lat="43.42815" lon="6.10222">
        <ele>286.79998779297</ele>
        <time>2015-02-18T14:36:37Z</time>
      </trkpt>
      <trkpt lat="43.42812" lon="6.10227">
        <ele>287</ele>
        <time>2015-02-18T14:36:42Z</time>
      </trkpt>
      <trkpt lat="43.4281" lon="6.10229">
        <ele>287.20001220703</ele>
        <time>2015-02-18T14:36:44Z</time>
      </trkpt>
      <trkpt lat="43.42806" lon="6.10234">
        <ele>287.39999389648</ele>
        <time>2015-02-18T14:36:49Z</time>
      </trkpt>
      <trkpt lat="43.42806" lon="6.10237">
        <ele>287.20001220703</ele>
        <time>2015-02-18T14:36:51Z</time>
      </trkpt>
      <trkpt lat="43.42808" lon="6.10237">
        <ele>286.79998779297</ele>
        <time>2015-02-18T14:36:53Z</time>
      </trkpt>
      <trkpt lat="43.42813" lon="6.1023">
        <ele>286.60000610352</ele>
        <time>2015-02-18T14:36:58Z</time>
      </trkpt>
      <trkpt lat="43.42818" lon="6.10222">
        <ele>286.60000610352</ele>
        <time>2015-02-18T14:37:05Z</time>
      </trkpt>
      <trkpt lat="43.42822" lon="6.10215">
        <ele>286.39999389648</ele>
        <time>2015-02-18T14:37:11Z</time>
      </trkpt>
      <trkpt lat="43.42822" lon="6.10211">
        <ele>286</ele>
        <time>2015-02-18T14:37:17Z</time>
      </trkpt>
      <trkpt lat="43.42822" lon="6.10211">
        <ele>286</ele>
        <time>2015-02-18T14:37:25Z</time>
      </trkpt>
      <trkpt lat="43.42822" lon="6.10209">
        <ele>286</ele>
        <time>2015-02-18T14:37:30Z</time>
      </trkpt>
      <trkpt lat="43.42822" lon="6.10209">
        <ele>286</ele>
        <time>2015-02-18T14:37:32Z</time>
      </trkpt>
      <trkpt lat="43.42824" lon="6.10207">
        <ele>286</ele>
        <time>2015-02-18T14:37:41Z</time>
      </trkpt>
      <trkpt lat="43.42824" lon="6.10207">
        <ele>286</ele>
        <time>2015-02-18T14:37:47Z</time>
      </trkpt>
      <trkpt lat="43.42824" lon="6.10207">
        <ele>286.20001220703</ele>
        <time>2015-02-18T14:37:51Z</time>
      </trkpt>
      <trkpt lat="43.42824" lon="6.10207">
        <ele>286.20001220703</ele>
        <time>2015-02-18T14:38:02Z</time>
      </trkpt>
      <trkpt lat="43.42824" lon="6.10207">
        <ele>286</ele>
        <time>2015-02-18T14:38:24Z</time>
      </trkpt>
      <trkpt lat="43.42824" lon="6.10207">
        <ele>286.20001220703</ele>
        <time>2015-02-18T14:38:39Z</time>
      </trkpt>
      <trkpt lat="43.42824" lon="6.10207">
        <ele>285.79998779297</ele>
        <time>2015-02-18T14:39:14Z</time>
      </trkpt>
      <trkpt lat="43.42825" lon="6.10207">
        <ele>286.60000610352</ele>
        <time>2015-02-18T14:39:20Z</time>
      </trkpt>
      <trkpt lat="43.42825" lon="6.10206">
        <ele>286.60000610352</ele>
        <time>2015-02-18T14:39:24Z</time>
      </trkpt>
      <trkpt lat="43.42825" lon="6.10206">
        <ele>286.79998779297</ele>
        <time>2015-02-18T14:39:43Z</time>
      </trkpt>
      <trkpt lat="43.42825" lon="6.10206">
        <ele>286.39999389648</ele>
        <time>2015-02-18T14:40:46Z</time>
      </trkpt>
      <trkpt lat="43.42825" lon="6.10206">
        <ele>286.39999389648</ele>
        <time>2015-02-18T14:41:00Z</time>
      </trkpt>
      <trkpt lat="43.42823" lon="6.10209">
        <ele>286.20001220703</ele>
        <time>2015-02-18T14:41:04Z</time>
      </trkpt>
      <trkpt lat="43.42823" lon="6.10209">
        <ele>286</ele>
        <time>2015-02-18T14:41:10Z</time>
      </trkpt>
      <trkpt lat="43.42823" lon="6.10209">
        <ele>286</ele>
        <time>2015-02-18T14:41:13Z</time>
      </trkpt>
      <trkpt lat="43.42823" lon="6.1021">
        <ele>286</ele>
        <time>2015-02-18T14:41:23Z</time>
      </trkpt>
      <trkpt lat="43.42821" lon="6.10214">
        <ele>286.39999389648</ele>
        <time>2015-02-18T14:41:29Z</time>
      </trkpt>
      <trkpt lat="43.42815" lon="6.10224">
        <ele>286.39999389648</ele>
        <time>2015-02-18T14:41:36Z</time>
      </trkpt>
      <trkpt lat="43.42811" lon="6.1023">
        <ele>286.79998779297</ele>
        <time>2015-02-18T14:41:39Z</time>
      </trkpt>
      <trkpt lat="43.42806" lon="6.10236">
        <ele>287.20001220703</ele>
        <time>2015-02-18T14:41:42Z</time>
      </trkpt>
      <trkpt lat="43.428" lon="6.10247">
        <ele>287.60000610352</ele>
        <time>2015-02-18T14:41:46Z</time>
      </trkpt>
      <trkpt lat="43.42797" lon="6.10255">
        <ele>287.60000610352</ele>
        <time>2015-02-18T14:41:49Z</time>
      </trkpt>
      <trkpt lat="43.42796" lon="6.10269">
        <ele>288</ele>
        <time>2015-02-18T14:41:54Z</time>
      </trkpt>
      <trkpt lat="43.42799" lon="6.10294">
        <ele>288.20001220703</ele>
        <time>2015-02-18T14:42:02Z</time>
      </trkpt>
      <trkpt lat="43.42803" lon="6.10307">
        <ele>288</ele>
        <time>2015-02-18T14:42:06Z</time>
      </trkpt>
      <trkpt lat="43.42804" lon="6.1031">
        <ele>288</ele>
        <time>2015-02-18T14:42:07Z</time>
      </trkpt>
      <trkpt lat="43.42813" lon="6.10338">
        <ele>288.20001220703</ele>
        <time>2015-02-18T14:42:16Z</time>
      </trkpt>
      <trkpt lat="43.42815" lon="6.10353">
        <ele>288.60000610352</ele>
        <time>2015-02-18T14:42:20Z</time>
      </trkpt>
      <trkpt lat="43.42814" lon="6.10367">
        <ele>289.39999389648</ele>
        <time>2015-02-18T14:42:24Z</time>
      </trkpt>
      <trkpt lat="43.42813" lon="6.1037">
        <ele>289.60000610352</ele>
        <time>2015-02-18T14:42:25Z</time>
      </trkpt>
      <trkpt lat="43.42812" lon="6.10381">
        <ele>290.79998779297</ele>
        <time>2015-02-18T14:42:29Z</time>
      </trkpt>
      <trkpt lat="43.42812" lon="6.10383">
        <ele>291</ele>
        <time>2015-02-18T14:42:30Z</time>
      </trkpt>
      <trkpt lat="43.42812" lon="6.10384">
        <ele>291</ele>
        <time>2015-02-18T14:42:31Z</time>
      </trkpt>
      <trkpt lat="43.42812" lon="6.10393">
        <ele>291.60000610352</ele>
        <time>2015-02-18T14:42:37Z</time>
      </trkpt>
      <trkpt lat="43.42816" lon="6.10396">
        <ele>291.60000610352</ele>
        <time>2015-02-18T14:42:41Z</time>
      </trkpt>
      <trkpt lat="43.42817" lon="6.10397">
        <ele>291.60000610352</ele>
        <time>2015-02-18T14:42:42Z</time>
      </trkpt>
      <trkpt lat="43.42819" lon="6.104">
        <ele>291.79998779297</ele>
        <time>2015-02-18T14:42:44Z</time>
      </trkpt>
      <trkpt lat="43.42821" lon="6.10407">
        <ele>291.60000610352</ele>
        <time>2015-02-18T14:42:47Z</time>
      </trkpt>
      <trkpt lat="43.42824" lon="6.10425">
        <ele>291.60000610352</ele>
        <time>2015-02-18T14:42:53Z</time>
      </trkpt>
      <trkpt lat="43.42828" lon="6.10443">
        <ele>292.79998779297</ele>
        <time>2015-02-18T14:43:00Z</time>
      </trkpt>
      <trkpt lat="43.42829" lon="6.10451">
        <ele>292.79998779297</ele>
        <time>2015-02-18T14:43:03Z</time>
      </trkpt>
      <trkpt lat="43.42831" lon="6.1048">
        <ele>292.39999389648</ele>
        <time>2015-02-18T14:43:11Z</time>
      </trkpt>
      <trkpt lat="43.42833" lon="6.10493">
        <ele>291.79998779297</ele>
        <time>2015-02-18T14:43:14Z</time>
      </trkpt>
      <trkpt lat="43.42837" lon="6.10502">
        <ele>291.60000610352</ele>
        <time>2015-02-18T14:43:16Z</time>
      </trkpt>
      <trkpt lat="43.42839" lon="6.10507">
        <ele>291.39999389648</ele>
        <time>2015-02-18T14:43:17Z</time>
      </trkpt>
      <trkpt lat="43.42842" lon="6.10511">
        <ele>291.20001220703</ele>
        <time>2015-02-18T14:43:18Z</time>
      </trkpt>
      <trkpt lat="43.42847" lon="6.10522">
        <ele>290.60000610352</ele>
        <time>2015-02-18T14:43:20Z</time>
      </trkpt>
      <trkpt lat="43.42852" lon="6.10534">
        <ele>290</ele>
        <time>2015-02-18T14:43:22Z</time>
      </trkpt>
      <trkpt lat="43.42856" lon="6.10546">
        <ele>289.20001220703</ele>
        <time>2015-02-18T14:43:24Z</time>
      </trkpt>
      <trkpt lat="43.42863" lon="6.10573">
        <ele>288.60000610352</ele>
        <time>2015-02-18T14:43:28Z</time>
      </trkpt>
      <trkpt lat="43.42868" lon="6.10605">
        <ele>288.20001220703</ele>
        <time>2015-02-18T14:43:32Z</time>
      </trkpt>
      <trkpt lat="43.42871" lon="6.10612">
        <ele>288.20001220703</ele>
        <time>2015-02-18T14:43:33Z</time>
      </trkpt>
      <trkpt lat="43.42882" lon="6.10632">
        <ele>286.79998779297</ele>
        <time>2015-02-18T14:43:36Z</time>
      </trkpt>
      <trkpt lat="43.42887" lon="6.10637">
        <ele>286.39999389648</ele>
        <time>2015-02-18T14:43:37Z</time>
      </trkpt>
      <trkpt lat="43.42896" lon="6.10645">
        <ele>286.39999389648</ele>
        <time>2015-02-18T14:43:39Z</time>
      </trkpt>
      <trkpt lat="43.42909" lon="6.10654">
        <ele>286.20001220703</ele>
        <time>2015-02-18T14:43:42Z</time>
      </trkpt>
      <trkpt lat="43.42913" lon="6.10656">
        <ele>286.20001220703</ele>
        <time>2015-02-18T14:43:43Z</time>
      </trkpt>
      <trkpt lat="43.42919" lon="6.10656">
        <ele>285.79998779297</ele>
        <time>2015-02-18T14:43:45Z</time>
      </trkpt>
      <trkpt lat="43.42926" lon="6.10656">
        <ele>286</ele>
        <time>2015-02-18T14:43:48Z</time>
      </trkpt>
      <trkpt lat="43.42934" lon="6.10656">
        <ele>286.20001220703</ele>
        <time>2015-02-18T14:43:52Z</time>
      </trkpt>
      <trkpt lat="43.42939" lon="6.10656">
        <ele>286.39999389648</ele>
        <time>2015-02-18T14:43:54Z</time>
      </trkpt>
      <trkpt lat="43.42945" lon="6.10654">
        <ele>286.79998779297</ele>
        <time>2015-02-18T14:43:57Z</time>
      </trkpt>
      <trkpt lat="43.42949" lon="6.10654">
        <ele>286.39999389648</ele>
        <time>2015-02-18T14:43:59Z</time>
      </trkpt>
      <trkpt lat="43.42952" lon="6.10654">
        <ele>286.79998779297</ele>
        <time>2015-02-18T14:44:01Z</time>
      </trkpt>
      <trkpt lat="43.42953" lon="6.10654">
        <ele>287</ele>
        <time>2015-02-18T14:44:02Z</time>
      </trkpt>
      <trkpt lat="43.42965" lon="6.10654">
        <ele>287.20001220703</ele>
        <time>2015-02-18T14:44:07Z</time>
      </trkpt>
      <trkpt lat="43.42976" lon="6.10654">
        <ele>287.60000610352</ele>
        <time>2015-02-18T14:44:12Z</time>
      </trkpt>
      <trkpt lat="43.42978" lon="6.10655">
        <ele>287.39999389648</ele>
        <time>2015-02-18T14:44:13Z</time>
      </trkpt>
      <trkpt lat="43.42984" lon="6.10655">
        <ele>288</ele>
        <time>2015-02-18T14:44:16Z</time>
      </trkpt>
      <trkpt lat="43.42989" lon="6.10656">
        <ele>288.20001220703</ele>
        <time>2015-02-18T14:44:19Z</time>
      </trkpt>
      <trkpt lat="43.43003" lon="6.10657">
        <ele>289</ele>
        <time>2015-02-18T14:44:27Z</time>
      </trkpt>
      <trkpt lat="43.43005" lon="6.10657">
        <ele>289</ele>
        <time>2015-02-18T14:44:28Z</time>
      </trkpt>
      <trkpt lat="43.43017" lon="6.10659">
        <ele>289.39999389648</ele>
        <time>2015-02-18T14:44:36Z</time>
      </trkpt>
      <trkpt lat="43.43024" lon="6.10659">
        <ele>290</ele>
        <time>2015-02-18T14:44:42Z</time>
      </trkpt>
      <trkpt lat="43.43026" lon="6.10658">
        <ele>290.20001220703</ele>
        <time>2015-02-18T14:44:44Z</time>
      </trkpt>
      <trkpt lat="43.43035" lon="6.1066">
        <ele>291.20001220703</ele>
        <time>2015-02-18T14:44:48Z</time>
      </trkpt>
      <trkpt lat="43.43036" lon="6.10661">
        <ele>291.79998779297</ele>
        <time>2015-02-18T14:44:49Z</time>
      </trkpt>
      <trkpt lat="43.43036" lon="6.10661">
        <ele>292.20001220703</ele>
        <time>2015-02-18T14:44:50Z</time>
      </trkpt>
      <trkpt lat="43.43036" lon="6.10661">
        <ele>292.20001220703</ele>
        <time>2015-02-18T14:44:51Z</time>
      </trkpt>
      <trkpt lat="43.43038" lon="6.10662">
        <ele>292.20001220703</ele>
        <time>2015-02-18T14:44:53Z</time>
      </trkpt>
      <trkpt lat="43.43039" lon="6.10661">
        <ele>292.20001220703</ele>
        <time>2015-02-18T14:44:55Z</time>
      </trkpt>
      <trkpt lat="43.43039" lon="6.10662">
        <ele>292</ele>
        <time>2015-02-18T14:45:01Z</time>
      </trkpt>
      <trkpt lat="43.43039" lon="6.10662">
        <ele>292.20001220703</ele>
        <time>2015-02-18T14:45:02Z</time>
      </trkpt>
      <trkpt lat="43.43039" lon="6.10662">
        <ele>292</ele>
        <time>2015-02-18T14:45:05Z</time>
      </trkpt>
      <trkpt lat="43.43039" lon="6.10662">
        <ele>292</ele>
        <time>2015-02-18T14:45:13Z</time>
      </trkpt>
      <trkpt lat="43.43039" lon="6.10662">
        <ele>291.60000610352</ele>
        <time>2015-02-18T14:45:27Z</time>
      </trkpt>
      <trkpt lat="43.43039" lon="6.10662">
        <ele>291.79998779297</ele>
        <time>2015-02-18T14:45:35Z</time>
      </trkpt>
      <trkpt lat="43.43039" lon="6.10662">
        <ele>291.79998779297</ele>
        <time>2015-02-18T14:45:44Z</time>
      </trkpt>
      <trkpt lat="43.4304" lon="6.10661">
        <ele>291.60000610352</ele>
        <time>2015-02-18T14:45:52Z</time>
      </trkpt>
      <trkpt lat="43.43041" lon="6.10653">
        <ele>291.79998779297</ele>
        <time>2015-02-18T14:45:58Z</time>
      </trkpt>
      <trkpt lat="43.43042" lon="6.10642">
        <ele>292.39999389648</ele>
        <time>2015-02-18T14:46:02Z</time>
      </trkpt>
      <trkpt lat="43.43043" lon="6.10637">
        <ele>292.60000610352</ele>
        <time>2015-02-18T14:46:04Z</time>
      </trkpt>
      <trkpt lat="43.43049" lon="6.10619">
        <ele>293.20001220703</ele>
        <time>2015-02-18T14:46:10Z</time>
      </trkpt>
      <trkpt lat="43.43053" lon="6.10606">
        <ele>293.20001220703</ele>
        <time>2015-02-18T14:46:14Z</time>
      </trkpt>
      <trkpt lat="43.43054" lon="6.10603">
        <ele>293.20001220703</ele>
        <time>2015-02-18T14:46:15Z</time>
      </trkpt>
      <trkpt lat="43.43056" lon="6.10596">
        <ele>293.60000610352</ele>
        <time>2015-02-18T14:46:17Z</time>
      </trkpt>
      <trkpt lat="43.43058" lon="6.10582">
        <ele>294</ele>
        <time>2015-02-18T14:46:21Z</time>
      </trkpt>
      <trkpt lat="43.43054" lon="6.10563">
        <ele>294</ele>
        <time>2015-02-18T14:46:27Z</time>
      </trkpt>
      <trkpt lat="43.43052" lon="6.10559">
        <ele>293.79998779297</ele>
        <time>2015-02-18T14:46:28Z</time>
      </trkpt>
      <trkpt lat="43.43039" lon="6.10529">
        <ele>293.79998779297</ele>
        <time>2015-02-18T14:46:35Z</time>
      </trkpt>
      <trkpt lat="43.43033" lon="6.10517">
        <ele>293.79998779297</ele>
        <time>2015-02-18T14:46:39Z</time>
      </trkpt>
      <trkpt lat="43.43028" lon="6.1051">
        <ele>294.20001220703</ele>
        <time>2015-02-18T14:46:42Z</time>
      </trkpt>
      <trkpt lat="43.43023" lon="6.105">
        <ele>294.79998779297</ele>
        <time>2015-02-18T14:46:47Z</time>
      </trkpt>
      <trkpt lat="43.43022" lon="6.10499">
        <ele>294.79998779297</ele>
        <time>2015-02-18T14:46:48Z</time>
      </trkpt>
      <trkpt lat="43.43016" lon="6.10485">
        <ele>295.79998779297</ele>
        <time>2015-02-18T14:46:55Z</time>
      </trkpt>
      <trkpt lat="43.43016" lon="6.10483">
        <ele>295.79998779297</ele>
        <time>2015-02-18T14:46:56Z</time>
      </trkpt>
      <trkpt lat="43.43016" lon="6.10481">
        <ele>295.79998779297</ele>
        <time>2015-02-18T14:46:57Z</time>
      </trkpt>
      <trkpt lat="43.43015" lon="6.1048">
        <ele>295.79998779297</ele>
        <time>2015-02-18T14:46:58Z</time>
      </trkpt>
      <trkpt lat="43.43015" lon="6.1048">
        <ele>295.79998779297</ele>
        <time>2015-02-18T14:46:59Z</time>
      </trkpt>
      <trkpt lat="43.43015" lon="6.1048">
        <ele>295.79998779297</ele>
        <time>2015-02-18T14:47:01Z</time>
      </trkpt>
      <trkpt lat="43.43015" lon="6.1048">
        <ele>295.79998779297</ele>
        <time>2015-02-18T14:47:02Z</time>
      </trkpt>
      <trkpt lat="43.43015" lon="6.1048">
        <ele>295.79998779297</ele>
        <time>2015-02-18T14:47:04Z</time>
      </trkpt>
      <trkpt lat="43.43015" lon="6.1048">
        <ele>295.60000610352</ele>
        <time>2015-02-18T14:47:06Z</time>
      </trkpt>
      <trkpt lat="43.43015" lon="6.10479">
        <ele>295.60000610352</ele>
        <time>2015-02-18T14:47:09Z</time>
      </trkpt>
      <trkpt lat="43.43016" lon="6.10481">
        <ele>295.79998779297</ele>
        <time>2015-02-18T14:47:13Z</time>
      </trkpt>
      <trkpt lat="43.43016" lon="6.10482">
        <ele>295.60000610352</ele>
        <time>2015-02-18T14:47:15Z</time>
      </trkpt>
      <trkpt lat="43.43017" lon="6.10483">
        <ele>295.79998779297</ele>
        <time>2015-02-18T14:47:21Z</time>
      </trkpt>
      <trkpt lat="43.43017" lon="6.10482">
        <ele>295.39999389648</ele>
        <time>2015-02-18T14:47:29Z</time>
      </trkpt>
      <trkpt lat="43.43017" lon="6.10482">
        <ele>295.20001220703</ele>
        <time>2015-02-18T14:47:37Z</time>
      </trkpt>
      <trkpt lat="43.43017" lon="6.10483">
        <ele>293.39999389648</ele>
        <time>2015-02-18T15:08:55Z</time>
      </trkpt>
      <trkpt lat="43.43017" lon="6.10483">
        <ele>293.60000610352</ele>
        <time>2015-02-18T15:09:08Z</time>
      </trkpt>
      <trkpt lat="43.43017" lon="6.10483">
        <ele>293.39999389648</ele>
        <time>2015-02-18T15:09:11Z</time>
      </trkpt>
      <trkpt lat="43.43017" lon="6.10484">
        <ele>294</ele>
        <time>2015-02-18T15:09:16Z</time>
      </trkpt>
      <trkpt lat="43.43017" lon="6.10483">
        <ele>294.20001220703</ele>
        <time>2015-02-18T15:09:18Z</time>
      </trkpt>
      <trkpt lat="43.43017" lon="6.10483">
        <ele>294.20001220703</ele>
        <time>2015-02-18T15:09:23Z</time>
      </trkpt>
      <trkpt lat="43.43016" lon="6.10481">
        <ele>294.20001220703</ele>
        <time>2015-02-18T15:09:41Z</time>
      </trkpt>
      <trkpt lat="43.43016" lon="6.10476">
        <ele>294.20001220703</ele>
        <time>2015-02-18T15:09:46Z</time>
      </trkpt>
      <trkpt lat="43.43015" lon="6.10474">
        <ele>294.20001220703</ele>
        <time>2015-02-18T15:09:53Z</time>
      </trkpt>
      <trkpt lat="43.4301" lon="6.10469">
        <ele>294.20001220703</ele>
        <time>2015-02-18T15:09:59Z</time>
      </trkpt>
      <trkpt lat="43.43002" lon="6.10458">
        <ele>294.39999389648</ele>
        <time>2015-02-18T15:10:04Z</time>
      </trkpt>
      <trkpt lat="43.43" lon="6.10455">
        <ele>294.20001220703</ele>
        <time>2015-02-18T15:10:05Z</time>
      </trkpt>
      <trkpt lat="43.42989" lon="6.10435">
        <ele>294.39999389648</ele>
        <time>2015-02-18T15:10:12Z</time>
      </trkpt>
      <trkpt lat="43.42981" lon="6.10417">
        <ele>295.20001220703</ele>
        <time>2015-02-18T15:10:18Z</time>
      </trkpt>
      <trkpt lat="43.42979" lon="6.10407">
        <ele>295.60000610352</ele>
        <time>2015-02-18T15:10:21Z</time>
      </trkpt>
      <trkpt lat="43.42971" lon="6.10392">
        <ele>295.39999389648</ele>
        <time>2015-02-18T15:10:26Z</time>
      </trkpt>
      <trkpt lat="43.42968" lon="6.10387">
        <ele>295.60000610352</ele>
        <time>2015-02-18T15:10:28Z</time>
      </trkpt>
      <trkpt lat="43.4296" lon="6.10376">
        <ele>295.60000610352</ele>
        <time>2015-02-18T15:10:33Z</time>
      </trkpt>
      <trkpt lat="43.42957" lon="6.10369">
        <ele>296</ele>
        <time>2015-02-18T15:10:38Z</time>
      </trkpt>
      <trkpt lat="43.42957" lon="6.10368">
        <ele>296</ele>
        <time>2015-02-18T15:10:43Z</time>
      </trkpt>
      <trkpt lat="43.42957" lon="6.10368">
        <ele>295.79998779297</ele>
        <time>2015-02-18T15:10:52Z</time>
      </trkpt>
      <trkpt lat="43.42957" lon="6.10368">
        <ele>296</ele>
        <time>2015-02-18T15:10:58Z</time>
      </trkpt>
      <trkpt lat="43.42957" lon="6.10368">
        <ele>295.79998779297</ele>
        <time>2015-02-18T15:11:01Z</time>
      </trkpt>
      <trkpt lat="43.42957" lon="6.10368">
        <ele>296</ele>
        <time>2015-02-18T15:11:07Z</time>
      </trkpt>
      <trkpt lat="43.42957" lon="6.10367">
        <ele>296</ele>
        <time>2015-02-18T15:11:17Z</time>
      </trkpt>
      <trkpt lat="43.42957" lon="6.10367">
        <ele>296.20001220703</ele>
        <time>2015-02-18T15:11:24Z</time>
      </trkpt>
      <trkpt lat="43.42957" lon="6.10366">
        <ele>295.60000610352</ele>
        <time>2015-02-18T15:11:52Z</time>
      </trkpt>
      <trkpt lat="43.42956" lon="6.10366">
        <ele>295.60000610352</ele>
        <time>2015-02-18T15:11:56Z</time>
      </trkpt>
      <trkpt lat="43.42954" lon="6.10365">
        <ele>295.60000610352</ele>
        <time>2015-02-18T15:11:58Z</time>
      </trkpt>
      <trkpt lat="43.42953" lon="6.10364">
        <ele>295.39999389648</ele>
        <time>2015-02-18T15:11:59Z</time>
      </trkpt>
      <trkpt lat="43.42951" lon="6.10358">
        <ele>295</ele>
        <time>2015-02-18T15:12:05Z</time>
      </trkpt>
      <trkpt lat="43.42949" lon="6.10352">
        <ele>295</ele>
        <time>2015-02-18T15:12:09Z</time>
      </trkpt>
      <trkpt lat="43.42946" lon="6.10348">
        <ele>294.79998779297</ele>
        <time>2015-02-18T15:12:12Z</time>
      </trkpt>
      <trkpt lat="43.42945" lon="6.10346">
        <ele>295</ele>
        <time>2015-02-18T15:12:14Z</time>
      </trkpt>
      <trkpt lat="43.42944" lon="6.10345">
        <ele>295</ele>
        <time>2015-02-18T15:12:17Z</time>
      </trkpt>
      <trkpt lat="43.42944" lon="6.10345">
        <ele>295.39999389648</ele>
        <time>2015-02-18T15:12:28Z</time>
      </trkpt>
      <trkpt lat="43.42945" lon="6.10346">
        <ele>295.20001220703</ele>
        <time>2015-02-18T15:12:37Z</time>
      </trkpt>
      <trkpt lat="43.42946" lon="6.10346">
        <ele>295.20001220703</ele>
        <time>2015-02-18T15:12:42Z</time>
      </trkpt>
      <trkpt lat="43.42946" lon="6.10346">
        <ele>295.20001220703</ele>
        <time>2015-02-18T15:12:48Z</time>
      </trkpt>
      <trkpt lat="43.42946" lon="6.10346">
        <ele>295.20001220703</ele>
        <time>2015-02-18T15:12:49Z</time>
      </trkpt>
      <trkpt lat="43.42949" lon="6.1035">
        <ele>295.20001220703</ele>
        <time>2015-02-18T15:12:53Z</time>
      </trkpt>
      <trkpt lat="43.4295" lon="6.10352">
        <ele>295.39999389648</ele>
        <time>2015-02-18T15:12:54Z</time>
      </trkpt>
      <trkpt lat="43.42953" lon="6.10358">
        <ele>295.60000610352</ele>
        <time>2015-02-18T15:12:57Z</time>
      </trkpt>
      <trkpt lat="43.42956" lon="6.10364">
        <ele>295.60000610352</ele>
        <time>2015-02-18T15:13:00Z</time>
      </trkpt>
      <trkpt lat="43.42958" lon="6.10369">
        <ele>296</ele>
        <time>2015-02-18T15:13:02Z</time>
      </trkpt>
      <trkpt lat="43.42965" lon="6.10382">
        <ele>296</ele>
        <time>2015-02-18T15:13:07Z</time>
      </trkpt>
      <trkpt lat="43.42978" lon="6.10402">
        <ele>295.60000610352</ele>
        <time>2015-02-18T15:13:14Z</time>
      </trkpt>
      <trkpt lat="43.42981" lon="6.10415">
        <ele>296</ele>
        <time>2015-02-18T15:13:18Z</time>
      </trkpt>
      <trkpt lat="43.42982" lon="6.10418">
        <ele>296.20001220703</ele>
        <time>2015-02-18T15:13:19Z</time>
      </trkpt>
      <trkpt lat="43.4299" lon="6.10437">
        <ele>295.60000610352</ele>
        <time>2015-02-18T15:13:24Z</time>
      </trkpt>
      <trkpt lat="43.42994" lon="6.10444">
        <ele>295</ele>
        <time>2015-02-18T15:13:26Z</time>
      </trkpt>
      <trkpt lat="43.43005" lon="6.10463">
        <ele>294.39999389648</ele>
        <time>2015-02-18T15:13:31Z</time>
      </trkpt>
      <trkpt lat="43.43019" lon="6.1049">
        <ele>293.79998779297</ele>
        <time>2015-02-18T15:13:38Z</time>
      </trkpt>
      <trkpt lat="43.43032" lon="6.10513">
        <ele>293</ele>
        <time>2015-02-18T15:13:43Z</time>
      </trkpt>
      <trkpt lat="43.43038" lon="6.10523">
        <ele>292.39999389648</ele>
        <time>2015-02-18T15:13:45Z</time>
      </trkpt>
      <trkpt lat="43.43047" lon="6.10543">
        <ele>292</ele>
        <time>2015-02-18T15:13:49Z</time>
      </trkpt>
      <trkpt lat="43.43056" lon="6.10565">
        <ele>292.39999389648</ele>
        <time>2015-02-18T15:13:54Z</time>
      </trkpt>
      <trkpt lat="43.43059" lon="6.10573">
        <ele>292.79998779297</ele>
        <time>2015-02-18T15:13:56Z</time>
      </trkpt>
      <trkpt lat="43.43056" lon="6.10593">
        <ele>293</ele>
        <time>2015-02-18T15:14:00Z</time>
      </trkpt>
      <trkpt lat="43.43053" lon="6.10603">
        <ele>292.79998779297</ele>
        <time>2015-02-18T15:14:02Z</time>
      </trkpt>
      <trkpt lat="43.43048" lon="6.1062">
        <ele>292.39999389648</ele>
        <time>2015-02-18T15:14:05Z</time>
      </trkpt>
      <trkpt lat="43.43044" lon="6.10638">
        <ele>291.39999389648</ele>
        <time>2015-02-18T15:14:08Z</time>
      </trkpt>
      <trkpt lat="43.43043" lon="6.10643">
        <ele>291.20001220703</ele>
        <time>2015-02-18T15:14:09Z</time>
      </trkpt>
      <trkpt lat="43.43043" lon="6.10649">
        <ele>291</ele>
        <time>2015-02-18T15:14:10Z</time>
      </trkpt>
      <trkpt lat="43.43041" lon="6.10656">
        <ele>290.60000610352</ele>
        <time>2015-02-18T15:14:12Z</time>
      </trkpt>
      <trkpt lat="43.43039" lon="6.10658">
        <ele>290.20001220703</ele>
        <time>2015-02-18T15:14:13Z</time>
      </trkpt>
      <trkpt lat="43.43037" lon="6.10658">
        <ele>290.20001220703</ele>
        <time>2015-02-18T15:14:14Z</time>
      </trkpt>
      <trkpt lat="43.43027" lon="6.10657">
        <ele>290.20001220703</ele>
        <time>2015-02-18T15:14:17Z</time>
      </trkpt>
      <trkpt lat="43.43022" lon="6.10655">
        <ele>290.20001220703</ele>
        <time>2015-02-18T15:14:18Z</time>
      </trkpt>
      <trkpt lat="43.43008" lon="6.10653">
        <ele>289</ele>
        <time>2015-02-18T15:14:21Z</time>
      </trkpt>
      <trkpt lat="43.43002" lon="6.10653">
        <ele>287.39999389648</ele>
        <time>2015-02-18T15:14:23Z</time>
      </trkpt>
      <trkpt lat="43.42993" lon="6.10652">
        <ele>286.60000610352</ele>
        <time>2015-02-18T15:14:28Z</time>
      </trkpt>
      <trkpt lat="43.42992" lon="6.10652">
        <ele>286.39999389648</ele>
        <time>2015-02-18T15:14:30Z</time>
      </trkpt>
      <trkpt lat="43.42992" lon="6.10653">
        <ele>286.20001220703</ele>
        <time>2015-02-18T15:14:33Z</time>
      </trkpt>
      <trkpt lat="43.42991" lon="6.10653">
        <ele>286.60000610352</ele>
        <time>2015-02-18T15:14:38Z</time>
      </trkpt>
      <trkpt lat="43.42992" lon="6.10653">
        <ele>286.39999389648</ele>
        <time>2015-02-18T15:14:50Z</time>
      </trkpt>
      <trkpt lat="43.4299" lon="6.10652">
        <ele>286.60000610352</ele>
        <time>2015-02-18T15:14:57Z</time>
      </trkpt>
      <trkpt lat="43.42989" lon="6.10652">
        <ele>286.79998779297</ele>
        <time>2015-02-18T15:15:01Z</time>
      </trkpt>
      <trkpt lat="43.42989" lon="6.10652">
        <ele>286.79998779297</ele>
        <time>2015-02-18T15:15:13Z</time>
      </trkpt>
      <trkpt lat="43.42989" lon="6.10652">
        <ele>287</ele>
        <time>2015-02-18T15:15:17Z</time>
      </trkpt>
      <trkpt lat="43.42989" lon="6.10652">
        <ele>287</ele>
        <time>2015-02-18T15:15:28Z</time>
      </trkpt>
      <trkpt lat="43.4299" lon="6.10652">
        <ele>287</ele>
        <time>2015-02-18T15:15:43Z</time>
      </trkpt>
      <trkpt lat="43.42989" lon="6.10652">
        <ele>286.79998779297</ele>
        <time>2015-02-18T15:15:52Z</time>
      </trkpt>
      <trkpt lat="43.42989" lon="6.10652">
        <ele>287</ele>
        <time>2015-02-18T15:15:54Z</time>
      </trkpt>
      <trkpt lat="43.42986" lon="6.10652">
        <ele>287.20001220703</ele>
        <time>2015-02-18T15:15:56Z</time>
      </trkpt>
      <trkpt lat="43.42982" lon="6.10653">
        <ele>287</ele>
        <time>2015-02-18T15:15:58Z</time>
      </trkpt>
      <trkpt lat="43.42958" lon="6.10651">
        <ele>285.60000610352</ele>
        <time>2015-02-18T15:16:05Z</time>
      </trkpt>
      <trkpt lat="43.42932" lon="6.10652">
        <ele>285.60000610352</ele>
        <time>2015-02-18T15:16:12Z</time>
      </trkpt>
      <trkpt lat="43.42913" lon="6.1065">
        <ele>284.79998779297</ele>
        <time>2015-02-18T15:16:17Z</time>
      </trkpt>
      <trkpt lat="43.42905" lon="6.10646">
        <ele>284.60000610352</ele>
        <time>2015-02-18T15:16:19Z</time>
      </trkpt>
      <trkpt lat="43.42899" lon="6.10644">
        <ele>284.20001220703</ele>
        <time>2015-02-18T15:16:21Z</time>
      </trkpt>
      <trkpt lat="43.42892" lon="6.10639">
        <ele>284.20001220703</ele>
        <time>2015-02-18T15:16:23Z</time>
      </trkpt>
      <trkpt lat="43.42883" lon="6.1063">
        <ele>285</ele>
        <time>2015-02-18T15:16:26Z</time>
      </trkpt>
      <trkpt lat="43.42877" lon="6.1062">
        <ele>284.20001220703</ele>
        <time>2015-02-18T15:16:29Z</time>
      </trkpt>
      <trkpt lat="43.42872" lon="6.10612">
        <ele>284.60000610352</ele>
        <time>2015-02-18T15:16:31Z</time>
      </trkpt>
      <trkpt lat="43.4287" lon="6.10605">
        <ele>285.39999389648</ele>
        <time>2015-02-18T15:16:33Z</time>
      </trkpt>
      <trkpt lat="43.42868" lon="6.10596">
        <ele>285.79998779297</ele>
        <time>2015-02-18T15:16:35Z</time>
      </trkpt>
      <trkpt lat="43.42865" lon="6.10573">
        <ele>285.79998779297</ele>
        <time>2015-02-18T15:16:40Z</time>
      </trkpt>
      <trkpt lat="43.42863" lon="6.10558">
        <ele>286.20001220703</ele>
        <time>2015-02-18T15:16:44Z</time>
      </trkpt>
      <trkpt lat="43.42861" lon="6.10551">
        <ele>286.39999389648</ele>
        <time>2015-02-18T15:16:46Z</time>
      </trkpt>
      <trkpt lat="43.42856" lon="6.10538">
        <ele>287.60000610352</ele>
        <time>2015-02-18T15:16:50Z</time>
      </trkpt>
      <trkpt lat="43.42853" lon="6.1053">
        <ele>287.39999389648</ele>
        <time>2015-02-18T15:16:52Z</time>
      </trkpt>
      <trkpt lat="43.4285" lon="6.10524">
        <ele>288</ele>
        <time>2015-02-18T15:16:54Z</time>
      </trkpt>
      <trkpt lat="43.42847" lon="6.10517">
        <ele>288.39999389648</ele>
        <time>2015-02-18T15:16:56Z</time>
      </trkpt>
      <trkpt lat="43.42845" lon="6.10513">
        <ele>288.60000610352</ele>
        <time>2015-02-18T15:16:57Z</time>
      </trkpt>
      <trkpt lat="43.42843" lon="6.1051">
        <ele>288.60000610352</ele>
        <time>2015-02-18T15:16:58Z</time>
      </trkpt>
      <trkpt lat="43.42841" lon="6.10503">
        <ele>289</ele>
        <time>2015-02-18T15:17:00Z</time>
      </trkpt>
      <trkpt lat="43.42838" lon="6.10497">
        <ele>289</ele>
        <time>2015-02-18T15:17:02Z</time>
      </trkpt>
      <trkpt lat="43.42834" lon="6.10489">
        <ele>289.79998779297</ele>
        <time>2015-02-18T15:17:05Z</time>
      </trkpt>
      <trkpt lat="43.42833" lon="6.10483">
        <ele>290.39999389648</ele>
        <time>2015-02-18T15:17:07Z</time>
      </trkpt>
      <trkpt lat="43.42832" lon="6.10476">
        <ele>290.39999389648</ele>
        <time>2015-02-18T15:17:09Z</time>
      </trkpt>
      <trkpt lat="43.42832" lon="6.10464">
        <ele>290.79998779297</ele>
        <time>2015-02-18T15:17:13Z</time>
      </trkpt>
      <trkpt lat="43.42831" lon="6.10448">
        <ele>291.60000610352</ele>
        <time>2015-02-18T15:17:20Z</time>
      </trkpt>
      <trkpt lat="43.4283" lon="6.10442">
        <ele>291.60000610352</ele>
        <time>2015-02-18T15:17:22Z</time>
      </trkpt>
      <trkpt lat="43.42826" lon="6.10424">
        <ele>291.20001220703</ele>
        <time>2015-02-18T15:17:26Z</time>
      </trkpt>
      <trkpt lat="43.42826" lon="6.10418">
        <ele>290.79998779297</ele>
        <time>2015-02-18T15:17:27Z</time>
      </trkpt>
      <trkpt lat="43.42818" lon="6.10395">
        <ele>290.20001220703</ele>
        <time>2015-02-18T15:17:32Z</time>
      </trkpt>
      <trkpt lat="43.4281" lon="6.10388">
        <ele>289.79998779297</ele>
        <time>2015-02-18T15:17:35Z</time>
      </trkpt>
      <trkpt lat="43.42803" lon="6.1038">
        <ele>290.39999389648</ele>
        <time>2015-02-18T15:17:38Z</time>
      </trkpt>
      <trkpt lat="43.42794" lon="6.10371">
        <ele>290.79998779297</ele>
        <time>2015-02-18T15:17:42Z</time>
      </trkpt>
      <trkpt lat="43.42792" lon="6.10369">
        <ele>290.60000610352</ele>
        <time>2015-02-18T15:17:43Z</time>
      </trkpt>
      <trkpt lat="43.42785" lon="6.10362">
        <ele>291</ele>
        <time>2015-02-18T15:17:46Z</time>
      </trkpt>
      <trkpt lat="43.42776" lon="6.10352">
        <ele>290.79998779297</ele>
        <time>2015-02-18T15:17:50Z</time>
      </trkpt>
      <trkpt lat="43.42773" lon="6.10332">
        <ele>290.20001220703</ele>
        <time>2015-02-18T15:17:54Z</time>
      </trkpt>
      <trkpt lat="43.42774" lon="6.10325">
        <ele>289.79998779297</ele>
        <time>2015-02-18T15:17:55Z</time>
      </trkpt>
      <trkpt lat="43.42781" lon="6.10311">
        <ele>289</ele>
        <time>2015-02-18T15:17:57Z</time>
      </trkpt>
      <trkpt lat="43.42785" lon="6.10303">
        <ele>288.39999389648</ele>
        <time>2015-02-18T15:17:58Z</time>
      </trkpt>
      <trkpt lat="43.42788" lon="6.10296">
        <ele>287.79998779297</ele>
        <time>2015-02-18T15:17:59Z</time>
      </trkpt>
      <trkpt lat="43.42791" lon="6.10288">
        <ele>287.20001220703</ele>
        <time>2015-02-18T15:18:00Z</time>
      </trkpt>
      <trkpt lat="43.42794" lon="6.10274">
        <ele>286.79998779297</ele>
        <time>2015-02-18T15:18:02Z</time>
      </trkpt>
      <trkpt lat="43.42795" lon="6.10269">
        <ele>286.79998779297</ele>
        <time>2015-02-18T15:18:03Z</time>
      </trkpt>
      <trkpt lat="43.42796" lon="6.10263">
        <ele>286.20001220703</ele>
        <time>2015-02-18T15:18:05Z</time>
      </trkpt>
      <trkpt lat="43.42796" lon="6.10262">
        <ele>286</ele>
        <time>2015-02-18T15:18:09Z</time>
      </trkpt>
      <trkpt lat="43.42797" lon="6.10262">
        <ele>286.39999389648</ele>
        <time>2015-02-18T15:18:22Z</time>
      </trkpt>
      <trkpt lat="43.42797" lon="6.10262">
        <ele>286.39999389648</ele>
        <time>2015-02-18T15:18:27Z</time>
      </trkpt>
      <trkpt lat="43.42796" lon="6.10259">
        <ele>286.39999389648</ele>
        <time>2015-02-18T15:18:31Z</time>
      </trkpt>
      <trkpt lat="43.42793" lon="6.10257">
        <ele>286.20001220703</ele>
        <time>2015-02-18T15:18:33Z</time>
      </trkpt>
      <trkpt lat="43.4279" lon="6.10256">
        <ele>286.60000610352</ele>
        <time>2015-02-18T15:18:35Z</time>
      </trkpt>
      <trkpt lat="43.42783" lon="6.10254">
        <ele>287</ele>
        <time>2015-02-18T15:18:39Z</time>
      </trkpt>
      <trkpt lat="43.42773" lon="6.10243">
        <ele>288</ele>
        <time>2015-02-18T15:18:45Z</time>
      </trkpt>
      <trkpt lat="43.42764" lon="6.10231">
        <ele>289.20001220703</ele>
        <time>2015-02-18T15:18:51Z</time>
      </trkpt>
      <trkpt lat="43.42753" lon="6.10216">
        <ele>290.60000610352</ele>
        <time>2015-02-18T15:18:58Z</time>
      </trkpt>
      <trkpt lat="43.42732" lon="6.10204">
        <ele>290.20001220703</ele>
        <time>2015-02-18T15:19:06Z</time>
      </trkpt>
      <trkpt lat="43.42714" lon="6.10201">
        <ele>290</ele>
        <time>2015-02-18T15:19:12Z</time>
      </trkpt>
      <trkpt lat="43.42697" lon="6.10201">
        <ele>290.39999389648</ele>
        <time>2015-02-18T15:19:18Z</time>
      </trkpt>
      <trkpt lat="43.42683" lon="6.102">
        <ele>290.20001220703</ele>
        <time>2015-02-18T15:19:23Z</time>
      </trkpt>
      <trkpt lat="43.42678" lon="6.10199">
        <ele>289.79998779297</ele>
        <time>2015-02-18T15:19:26Z</time>
      </trkpt>
      <trkpt lat="43.42677" lon="6.10199">
        <ele>289.79998779297</ele>
        <time>2015-02-18T15:19:27Z</time>
      </trkpt>
      <trkpt lat="43.42676" lon="6.102">
        <ele>289.60000610352</ele>
        <time>2015-02-18T15:19:32Z</time>
      </trkpt>
      <trkpt lat="43.42676" lon="6.102">
        <ele>289.60000610352</ele>
        <time>2015-02-18T15:19:35Z</time>
      </trkpt>
      <trkpt lat="43.42676" lon="6.10201">
        <ele>289.60000610352</ele>
        <time>2015-02-18T15:19:39Z</time>
      </trkpt>
      <trkpt lat="43.42676" lon="6.10201">
        <ele>289.60000610352</ele>
        <time>2015-02-18T15:19:44Z</time>
      </trkpt>
      <trkpt lat="43.42673" lon="6.102">
        <ele>289.79998779297</ele>
        <time>2015-02-18T15:19:50Z</time>
      </trkpt>
      <trkpt lat="43.42666" lon="6.10198">
        <ele>289.60000610352</ele>
        <time>2015-02-18T15:19:53Z</time>
      </trkpt>
      <trkpt lat="43.42663" lon="6.10198">
        <ele>289.60000610352</ele>
        <time>2015-02-18T15:19:54Z</time>
      </trkpt>
      <trkpt lat="43.42643" lon="6.10194">
        <ele>289</ele>
        <time>2015-02-18T15:19:59Z</time>
      </trkpt>
      <trkpt lat="43.42618" lon="6.10191">
        <ele>288.60000610352</ele>
        <time>2015-02-18T15:20:04Z</time>
      </trkpt>
      <trkpt lat="43.42612" lon="6.10192">
        <ele>287.79998779297</ele>
        <time>2015-02-18T15:20:05Z</time>
      </trkpt>
      <trkpt lat="43.42606" lon="6.10193">
        <ele>286.79998779297</ele>
        <time>2015-02-18T15:20:06Z</time>
      </trkpt>
      <trkpt lat="43.42601" lon="6.10194">
        <ele>286.20001220703</ele>
        <time>2015-02-18T15:20:07Z</time>
      </trkpt>
      <trkpt lat="43.42585" lon="6.10204">
        <ele>286.39999389648</ele>
        <time>2015-02-18T15:20:10Z</time>
      </trkpt>
      <trkpt lat="43.42577" lon="6.10216">
        <ele>286</ele>
        <time>2015-02-18T15:20:12Z</time>
      </trkpt>
      <trkpt lat="43.42572" lon="6.10222">
        <ele>285.60000610352</ele>
        <time>2015-02-18T15:20:13Z</time>
      </trkpt>
      <trkpt lat="43.42566" lon="6.10236">
        <ele>285</ele>
        <time>2015-02-18T15:20:15Z</time>
      </trkpt>
      <trkpt lat="43.42559" lon="6.1025">
        <ele>284.20001220703</ele>
        <time>2015-02-18T15:20:17Z</time>
      </trkpt>
      <trkpt lat="43.42552" lon="6.10271">
        <ele>283</ele>
        <time>2015-02-18T15:20:20Z</time>
      </trkpt>
      <trkpt lat="43.42545" lon="6.10294">
        <ele>281.60000610352</ele>
        <time>2015-02-18T15:20:23Z</time>
      </trkpt>
      <trkpt lat="43.42538" lon="6.1031">
        <ele>281.39999389648</ele>
        <time>2015-02-18T15:20:25Z</time>
      </trkpt>
      <trkpt lat="43.42535" lon="6.10316">
        <ele>281.20001220703</ele>
        <time>2015-02-18T15:20:26Z</time>
      </trkpt>
      <trkpt lat="43.42529" lon="6.10329">
        <ele>280</ele>
        <time>2015-02-18T15:20:28Z</time>
      </trkpt>
      <trkpt lat="43.42527" lon="6.10335">
        <ele>279.60000610352</ele>
        <time>2015-02-18T15:20:29Z</time>
      </trkpt>
      <trkpt lat="43.42526" lon="6.10342">
        <ele>279.20001220703</ele>
        <time>2015-02-18T15:20:30Z</time>
      </trkpt>
      <trkpt lat="43.42525" lon="6.10348">
        <ele>278.79998779297</ele>
        <time>2015-02-18T15:20:31Z</time>
      </trkpt>
      <trkpt lat="43.4252" lon="6.1036">
        <ele>277.39999389648</ele>
        <time>2015-02-18T15:20:33Z</time>
      </trkpt>
      <trkpt lat="43.42517" lon="6.10367">
        <ele>277</ele>
        <time>2015-02-18T15:20:34Z</time>
      </trkpt>
      <trkpt lat="43.42512" lon="6.10381">
        <ele>276.39999389648</ele>
        <time>2015-02-18T15:20:36Z</time>
      </trkpt>
      <trkpt lat="43.42504" lon="6.10393">
        <ele>275.20001220703</ele>
        <time>2015-02-18T15:20:38Z</time>
      </trkpt>
      <trkpt lat="43.42494" lon="6.10401">
        <ele>274</ele>
        <time>2015-02-18T15:20:40Z</time>
      </trkpt>
      <trkpt lat="43.42481" lon="6.10405">
        <ele>273.20001220703</ele>
        <time>2015-02-18T15:20:42Z</time>
      </trkpt>
      <trkpt lat="43.42475" lon="6.10404">
        <ele>273</ele>
        <time>2015-02-18T15:20:43Z</time>
      </trkpt>
      <trkpt lat="43.42468" lon="6.10403">
        <ele>272.20001220703</ele>
        <time>2015-02-18T15:20:44Z</time>
      </trkpt>
      <trkpt lat="43.42461" lon="6.10403">
        <ele>271.20001220703</ele>
        <time>2015-02-18T15:20:45Z</time>
      </trkpt>
      <trkpt lat="43.42455" lon="6.10404">
        <ele>270.60000610352</ele>
        <time>2015-02-18T15:20:46Z</time>
      </trkpt>
      <trkpt lat="43.42442" lon="6.1041">
        <ele>269.60000610352</ele>
        <time>2015-02-18T15:20:48Z</time>
      </trkpt>
      <trkpt lat="43.42437" lon="6.10417">
        <ele>268.60000610352</ele>
        <time>2015-02-18T15:20:49Z</time>
      </trkpt>
      <trkpt lat="43.42429" lon="6.10436">
        <ele>266.60000610352</ele>
        <time>2015-02-18T15:20:51Z</time>
      </trkpt>
      <trkpt lat="43.42426" lon="6.10446">
        <ele>266</ele>
        <time>2015-02-18T15:20:52Z</time>
      </trkpt>
      <trkpt lat="43.42418" lon="6.10466">
        <ele>264.60000610352</ele>
        <time>2015-02-18T15:20:54Z</time>
      </trkpt>
      <trkpt lat="43.42408" lon="6.10501">
        <ele>262.79998779297</ele>
        <time>2015-02-18T15:20:57Z</time>
      </trkpt>
      <trkpt lat="43.42405" lon="6.10512">
        <ele>262.20001220703</ele>
        <time>2015-02-18T15:20:58Z</time>
      </trkpt>
      <trkpt lat="43.42397" lon="6.10536">
        <ele>260.39999389648</ele>
        <time>2015-02-18T15:21:00Z</time>
      </trkpt>
      <trkpt lat="43.42387" lon="6.10558">
        <ele>258.20001220703</ele>
        <time>2015-02-18T15:21:02Z</time>
      </trkpt>
      <trkpt lat="43.42382" lon="6.10568">
        <ele>256.79998779297</ele>
        <time>2015-02-18T15:21:03Z</time>
      </trkpt>
      <trkpt lat="43.42369" lon="6.10594">
        <ele>254.60000610352</ele>
        <time>2015-02-18T15:21:06Z</time>
      </trkpt>
      <trkpt lat="43.4236" lon="6.10623">
        <ele>253.60000610352</ele>
        <time>2015-02-18T15:21:09Z</time>
      </trkpt>
      <trkpt lat="43.42355" lon="6.10643">
        <ele>251.80000305176</ele>
        <time>2015-02-18T15:21:11Z</time>
      </trkpt>
      <trkpt lat="43.4235" lon="6.10653">
        <ele>250.60000610352</ele>
        <time>2015-02-18T15:21:12Z</time>
      </trkpt>
      <trkpt lat="43.42344" lon="6.10663">
        <ele>250</ele>
        <time>2015-02-18T15:21:13Z</time>
      </trkpt>
      <trkpt lat="43.42333" lon="6.10683">
        <ele>248.80000305176</ele>
        <time>2015-02-18T15:21:15Z</time>
      </trkpt>
      <trkpt lat="43.42327" lon="6.10693">
        <ele>247.60000610352</ele>
        <time>2015-02-18T15:21:16Z</time>
      </trkpt>
      <trkpt lat="43.42317" lon="6.10711">
        <ele>246</ele>
        <time>2015-02-18T15:21:18Z</time>
      </trkpt>
      <trkpt lat="43.42309" lon="6.10727">
        <ele>244.19999694824</ele>
        <time>2015-02-18T15:21:20Z</time>
      </trkpt>
      <trkpt lat="43.42305" lon="6.10734">
        <ele>243.19999694824</ele>
        <time>2015-02-18T15:21:21Z</time>
      </trkpt>
      <trkpt lat="43.42299" lon="6.10739">
        <ele>242.39999389648</ele>
        <time>2015-02-18T15:21:22Z</time>
      </trkpt>
      <trkpt lat="43.42294" lon="6.10743">
        <ele>242.19999694824</ele>
        <time>2015-02-18T15:21:23Z</time>
      </trkpt>
      <trkpt lat="43.42273" lon="6.10739">
        <ele>240.80000305176</ele>
        <time>2015-02-18T15:21:26Z</time>
      </trkpt>
      <trkpt lat="43.4226" lon="6.10729">
        <ele>239.19999694824</ele>
        <time>2015-02-18T15:21:28Z</time>
      </trkpt>
      <trkpt lat="43.42253" lon="6.10724">
        <ele>238.80000305176</ele>
        <time>2015-02-18T15:21:29Z</time>
      </trkpt>
      <trkpt lat="43.42246" lon="6.10718">
        <ele>238.80000305176</ele>
        <time>2015-02-18T15:21:30Z</time>
      </trkpt>
      <trkpt lat="43.4224" lon="6.10712">
        <ele>238.60000610352</ele>
        <time>2015-02-18T15:21:31Z</time>
      </trkpt>
      <trkpt lat="43.4222" lon="6.10694">
        <ele>236.80000305176</ele>
        <time>2015-02-18T15:21:34Z</time>
      </trkpt>
      <trkpt lat="43.42213" lon="6.10688">
        <ele>235.19999694824</ele>
        <time>2015-02-18T15:21:35Z</time>
      </trkpt>
      <trkpt lat="43.42199" lon="6.10677">
        <ele>234.39999389648</ele>
        <time>2015-02-18T15:21:37Z</time>
      </trkpt>
      <trkpt lat="43.42192" lon="6.10671">
        <ele>234</ele>
        <time>2015-02-18T15:21:38Z</time>
      </trkpt>
      <trkpt lat="43.42177" lon="6.10661">
        <ele>232.80000305176</ele>
        <time>2015-02-18T15:21:40Z</time>
      </trkpt>
      <trkpt lat="43.4217" lon="6.10657">
        <ele>232.39999389648</ele>
        <time>2015-02-18T15:21:41Z</time>
      </trkpt>
      <trkpt lat="43.42162" lon="6.10654">
        <ele>232.19999694824</ele>
        <time>2015-02-18T15:21:42Z</time>
      </trkpt>
      <trkpt lat="43.42153" lon="6.10651">
        <ele>231.39999389648</ele>
        <time>2015-02-18T15:21:43Z</time>
      </trkpt>
      <trkpt lat="43.42136" lon="6.10651">
        <ele>230</ele>
        <time>2015-02-18T15:21:45Z</time>
      </trkpt>
      <trkpt lat="43.42128" lon="6.10652">
        <ele>229.60000610352</ele>
        <time>2015-02-18T15:21:46Z</time>
      </trkpt>
      <trkpt lat="43.42121" lon="6.10653">
        <ele>229</ele>
        <time>2015-02-18T15:21:47Z</time>
      </trkpt>
      <trkpt lat="43.42105" lon="6.10658">
        <ele>227</ele>
        <time>2015-02-18T15:21:49Z</time>
      </trkpt>
      <trkpt lat="43.42096" lon="6.10662">
        <ele>225.80000305176</ele>
        <time>2015-02-18T15:21:50Z</time>
      </trkpt>
      <trkpt lat="43.42079" lon="6.10672">
        <ele>224.60000610352</ele>
        <time>2015-02-18T15:21:52Z</time>
      </trkpt>
      <trkpt lat="43.42063" lon="6.10678">
        <ele>222.60000610352</ele>
        <time>2015-02-18T15:21:54Z</time>
      </trkpt>
      <trkpt lat="43.4205" lon="6.10683">
        <ele>221</ele>
        <time>2015-02-18T15:21:56Z</time>
      </trkpt>
      <trkpt lat="43.42045" lon="6.10685">
        <ele>220</ele>
        <time>2015-02-18T15:21:57Z</time>
      </trkpt>
      <trkpt lat="43.4204" lon="6.10686">
        <ele>218.80000305176</ele>
        <time>2015-02-18T15:21:58Z</time>
      </trkpt>
      <trkpt lat="43.42036" lon="6.10685">
        <ele>218.39999389648</ele>
        <time>2015-02-18T15:21:59Z</time>
      </trkpt>
      <trkpt lat="43.42028" lon="6.10678">
        <ele>217.60000610352</ele>
        <time>2015-02-18T15:22:01Z</time>
      </trkpt>
      <trkpt lat="43.42022" lon="6.10664">
        <ele>216.19999694824</ele>
        <time>2015-02-18T15:22:03Z</time>
      </trkpt>
      <trkpt lat="43.4202" lon="6.10656">
        <ele>215.60000610352</ele>
        <time>2015-02-18T15:22:04Z</time>
      </trkpt>
      <trkpt lat="43.42017" lon="6.10647">
        <ele>214.80000305176</ele>
        <time>2015-02-18T15:22:05Z</time>
      </trkpt>
      <trkpt lat="43.42015" lon="6.10637">
        <ele>213.39999389648</ele>
        <time>2015-02-18T15:22:06Z</time>
      </trkpt>
      <trkpt lat="43.42013" lon="6.10627">
        <ele>212.19999694824</ele>
        <time>2015-02-18T15:22:07Z</time>
      </trkpt>
      <trkpt lat="43.42009" lon="6.10609">
        <ele>210.60000610352</ele>
        <time>2015-02-18T15:22:09Z</time>
      </trkpt>
      <trkpt lat="43.42006" lon="6.10593">
        <ele>209.19999694824</ele>
        <time>2015-02-18T15:22:11Z</time>
      </trkpt>
      <trkpt lat="43.42003" lon="6.10581">
        <ele>207.80000305176</ele>
        <time>2015-02-18T15:22:13Z</time>
      </trkpt>
      <trkpt lat="43.42002" lon="6.10576">
        <ele>206.80000305176</ele>
        <time>2015-02-18T15:22:14Z</time>
      </trkpt>
      <trkpt lat="43.42001" lon="6.10569">
        <ele>205.60000610352</ele>
        <time>2015-02-18T15:22:16Z</time>
      </trkpt>
      <trkpt lat="43.42001" lon="6.10568">
        <ele>205.19999694824</ele>
        <time>2015-02-18T15:22:17Z</time>
      </trkpt>
      <trkpt lat="43.42" lon="6.10567">
        <ele>204.39999389648</ele>
        <time>2015-02-18T15:22:19Z</time>
      </trkpt>
      <trkpt lat="43.42" lon="6.10565">
        <ele>204.19999694824</ele>
        <time>2015-02-18T15:22:24Z</time>
      </trkpt>
      <trkpt lat="43.42001" lon="6.10563">
        <ele>204.19999694824</ele>
        <time>2015-02-18T15:22:25Z</time>
      </trkpt>
      <trkpt lat="43.42004" lon="6.10558">
        <ele>204</ele>
        <time>2015-02-18T15:22:28Z</time>
      </trkpt>
      <trkpt lat="43.42004" lon="6.10558">
        <ele>204</ele>
        <time>2015-02-18T15:22:29Z</time>
      </trkpt>
      <trkpt lat="43.42" lon="6.10553">
        <ele>203.19999694824</ele>
        <time>2015-02-18T15:22:36Z</time>
      </trkpt>
      <trkpt lat="43.41994" lon="6.10543">
        <ele>202</ele>
        <time>2015-02-18T15:22:40Z</time>
      </trkpt>
      <trkpt lat="43.41993" lon="6.10541">
        <ele>201.60000610352</ele>
        <time>2015-02-18T15:22:41Z</time>
      </trkpt>
      <trkpt lat="43.41993" lon="6.10538">
        <ele>201</ele>
        <time>2015-02-18T15:22:44Z</time>
      </trkpt>
      <trkpt lat="43.41993" lon="6.10537">
        <ele>201</ele>
        <time>2015-02-18T15:22:46Z</time>
      </trkpt>
      <trkpt lat="43.41993" lon="6.10537">
        <ele>200.80000305176</ele>
        <time>2015-02-18T15:22:57Z</time>
      </trkpt>
      <trkpt lat="43.41993" lon="6.10537">
        <ele>201</ele>
        <time>2015-02-18T15:23:15Z</time>
      </trkpt>
      <trkpt lat="43.41993" lon="6.10537">
        <ele>200.80000305176</ele>
        <time>2015-02-18T15:23:55Z</time>
      </trkpt>
      <trkpt lat="43.41993" lon="6.10536">
        <ele>200.60000610352</ele>
        <time>2015-02-18T15:23:59Z</time>
      </trkpt>
      <trkpt lat="43.41992" lon="6.10533">
        <ele>200.39999389648</ele>
        <time>2015-02-18T15:24:02Z</time>
      </trkpt>
      <trkpt lat="43.41991" lon="6.10525">
        <ele>200.39999389648</ele>
        <time>2015-02-18T15:24:05Z</time>
      </trkpt>
      <trkpt lat="43.41991" lon="6.10513">
        <ele>200.39999389648</ele>
        <time>2015-02-18T15:24:09Z</time>
      </trkpt>
      <trkpt lat="43.4199" lon="6.10505">
        <ele>200.39999389648</ele>
        <time>2015-02-18T15:24:11Z</time>
      </trkpt>
      <trkpt lat="43.4199" lon="6.10472">
        <ele>200.39999389648</ele>
        <time>2015-02-18T15:24:18Z</time>
      </trkpt>
      <trkpt lat="43.41991" lon="6.10441">
        <ele>200.39999389648</ele>
        <time>2015-02-18T15:24:24Z</time>
      </trkpt>
      <trkpt lat="43.41992" lon="6.1043">
        <ele>200.39999389648</ele>
        <time>2015-02-18T15:24:26Z</time>
      </trkpt>
      <trkpt lat="43.41996" lon="6.10403">
        <ele>200.80000305176</ele>
        <time>2015-02-18T15:24:31Z</time>
      </trkpt>
      <trkpt lat="43.41998" lon="6.10392">
        <ele>201</ele>
        <time>2015-02-18T15:24:33Z</time>
      </trkpt>
      <trkpt lat="43.42" lon="6.10373">
        <ele>201.39999389648</ele>
        <time>2015-02-18T15:24:36Z</time>
      </trkpt>
      <trkpt lat="43.42004" lon="6.10352">
        <ele>201.19999694824</ele>
        <time>2015-02-18T15:24:39Z</time>
      </trkpt>
      <trkpt lat="43.42005" lon="6.10345">
        <ele>201.19999694824</ele>
        <time>2015-02-18T15:24:40Z</time>
      </trkpt>
      <trkpt lat="43.4201" lon="6.10308">
        <ele>201.19999694824</ele>
        <time>2015-02-18T15:24:45Z</time>
      </trkpt>
      <trkpt lat="43.42014" lon="6.10278">
        <ele>201.39999389648</ele>
        <time>2015-02-18T15:24:49Z</time>
      </trkpt>
      <trkpt lat="43.42019" lon="6.10243">
        <ele>202</ele>
        <time>2015-02-18T15:24:54Z</time>
      </trkpt>
      <trkpt lat="43.42022" lon="6.10222">
        <ele>202.19999694824</ele>
        <time>2015-02-18T15:24:57Z</time>
      </trkpt>
      <trkpt lat="43.42028" lon="6.10169">
        <ele>203</ele>
        <time>2015-02-18T15:25:05Z</time>
      </trkpt>
      <trkpt lat="43.4203" lon="6.10157">
        <ele>203.19999694824</ele>
        <time>2015-02-18T15:25:07Z</time>
      </trkpt>
      <trkpt lat="43.42034" lon="6.10125">
        <ele>203.39999389648</ele>
        <time>2015-02-18T15:25:12Z</time>
      </trkpt>
      <trkpt lat="43.42041" lon="6.10076">
        <ele>203.80000305176</ele>
        <time>2015-02-18T15:25:19Z</time>
      </trkpt>
      <trkpt lat="43.42046" lon="6.10044">
        <ele>204.19999694824</ele>
        <time>2015-02-18T15:25:24Z</time>
      </trkpt>
      <trkpt lat="43.42047" lon="6.10038">
        <ele>204</ele>
        <time>2015-02-18T15:25:25Z</time>
      </trkpt>
      <trkpt lat="43.4205" lon="6.10021">
        <ele>204.19999694824</ele>
        <time>2015-02-18T15:25:28Z</time>
      </trkpt>
      <trkpt lat="43.42056" lon="6.09997">
        <ele>204.19999694824</ele>
        <time>2015-02-18T15:25:32Z</time>
      </trkpt>
      <trkpt lat="43.42068" lon="6.09943">
        <ele>204.19999694824</ele>
        <time>2015-02-18T15:25:40Z</time>
      </trkpt>
      <trkpt lat="43.42083" lon="6.09904">
        <ele>204</ele>
        <time>2015-02-18T15:25:46Z</time>
      </trkpt>
      <trkpt lat="43.42089" lon="6.09884">
        <ele>204</ele>
        <time>2015-02-18T15:25:49Z</time>
      </trkpt>
      <trkpt lat="43.42092" lon="6.09872">
        <ele>203.60000610352</ele>
        <time>2015-02-18T15:25:51Z</time>
      </trkpt>
      <trkpt lat="43.42093" lon="6.09865">
        <ele>203.60000610352</ele>
        <time>2015-02-18T15:25:52Z</time>
      </trkpt>
      <trkpt lat="43.42094" lon="6.0985">
        <ele>203.39999389648</ele>
        <time>2015-02-18T15:25:54Z</time>
      </trkpt>
      <trkpt lat="43.42094" lon="6.09835">
        <ele>203.39999389648</ele>
        <time>2015-02-18T15:25:56Z</time>
      </trkpt>
      <trkpt lat="43.42094" lon="6.09814">
        <ele>203.39999389648</ele>
        <time>2015-02-18T15:25:59Z</time>
      </trkpt>
      <trkpt lat="43.42091" lon="6.09784">
        <ele>203.60000610352</ele>
        <time>2015-02-18T15:26:03Z</time>
      </trkpt>
      <trkpt lat="43.42087" lon="6.09764">
        <ele>203.60000610352</ele>
        <time>2015-02-18T15:26:06Z</time>
      </trkpt>
      <trkpt lat="43.42082" lon="6.09745">
        <ele>203.39999389648</ele>
        <time>2015-02-18T15:26:09Z</time>
      </trkpt>
      <trkpt lat="43.4208" lon="6.09739">
        <ele>203.60000610352</ele>
        <time>2015-02-18T15:26:10Z</time>
      </trkpt>
      <trkpt lat="43.42063" lon="6.0971">
        <ele>203.39999389648</ele>
        <time>2015-02-18T15:26:15Z</time>
      </trkpt>
      <trkpt lat="43.42034" lon="6.09679">
        <ele>203.19999694824</ele>
        <time>2015-02-18T15:26:22Z</time>
      </trkpt>
      <trkpt lat="43.4202" lon="6.0967">
        <ele>203.19999694824</ele>
        <time>2015-02-18T15:26:25Z</time>
      </trkpt>
      <trkpt lat="43.42005" lon="6.09663">
        <ele>203</ele>
        <time>2015-02-18T15:26:28Z</time>
      </trkpt>
      <trkpt lat="43.41977" lon="6.09658">
        <ele>202.19999694824</ele>
        <time>2015-02-18T15:26:33Z</time>
      </trkpt>
      <trkpt lat="43.41971" lon="6.09658">
        <ele>202</ele>
        <time>2015-02-18T15:26:34Z</time>
      </trkpt>
      <trkpt lat="43.4195" lon="6.09657">
        <ele>202</ele>
        <time>2015-02-18T15:26:37Z</time>
      </trkpt>
      <trkpt lat="43.41946" lon="6.09657">
        <ele>202</ele>
        <time>2015-02-18T15:26:38Z</time>
      </trkpt>
      <trkpt lat="43.41921" lon="6.09653">
        <ele>202.19999694824</ele>
        <time>2015-02-18T15:26:43Z</time>
      </trkpt>
      <trkpt lat="43.41891" lon="6.0965">
        <ele>202.80000305176</ele>
        <time>2015-02-18T15:26:49Z</time>
      </trkpt>
      <trkpt lat="43.41862" lon="6.09647">
        <ele>202.60000610352</ele>
        <time>2015-02-18T15:26:55Z</time>
      </trkpt>
      <trkpt lat="43.41846" lon="6.09644">
        <ele>202.80000305176</ele>
        <time>2015-02-18T15:26:59Z</time>
      </trkpt>
      <trkpt lat="43.41844" lon="6.09643">
        <ele>202.80000305176</ele>
        <time>2015-02-18T15:27:00Z</time>
      </trkpt>
      <trkpt lat="43.41837" lon="6.0964">
        <ele>202.60000610352</ele>
        <time>2015-02-18T15:27:04Z</time>
      </trkpt>
      <trkpt lat="43.41833" lon="6.09639">
        <ele>202.60000610352</ele>
        <time>2015-02-18T15:27:06Z</time>
      </trkpt>
      <trkpt lat="43.4183" lon="6.09638">
        <ele>202</ele>
        <time>2015-02-18T15:27:10Z</time>
      </trkpt>
      <trkpt lat="43.41829" lon="6.09637">
        <ele>202.19999694824</ele>
        <time>2015-02-18T15:27:17Z</time>
      </trkpt>
      <trkpt lat="43.41819" lon="6.09629">
        <ele>202</ele>
        <time>2015-02-18T15:27:21Z</time>
      </trkpt>
      <trkpt lat="43.41806" lon="6.09607">
        <ele>202.19999694824</ele>
        <time>2015-02-18T15:27:26Z</time>
      </trkpt>
      <trkpt lat="43.41803" lon="6.09603">
        <ele>202.60000610352</ele>
        <time>2015-02-18T15:27:27Z</time>
      </trkpt>
      <trkpt lat="43.41787" lon="6.09567">
        <ele>202.60000610352</ele>
        <time>2015-02-18T15:27:33Z</time>
      </trkpt>
      <trkpt lat="43.41767" lon="6.09521">
        <ele>202.39999389648</ele>
        <time>2015-02-18T15:27:40Z</time>
      </trkpt>
      <trkpt lat="43.41758" lon="6.0949">
        <ele>202.39999389648</ele>
        <time>2015-02-18T15:27:44Z</time>
      </trkpt>
      <trkpt lat="43.41755" lon="6.09474">
        <ele>202.39999389648</ele>
        <time>2015-02-18T15:27:46Z</time>
      </trkpt>
      <trkpt lat="43.41749" lon="6.09447">
        <ele>202.60000610352</ele>
        <time>2015-02-18T15:27:49Z</time>
      </trkpt>
      <trkpt lat="43.41741" lon="6.09411">
        <ele>202.39999389648</ele>
        <time>2015-02-18T15:27:53Z</time>
      </trkpt>
      <trkpt lat="43.41729" lon="6.09346">
        <ele>202.80000305176</ele>
        <time>2015-02-18T15:28:00Z</time>
      </trkpt>
      <trkpt lat="43.41726" lon="6.09291">
        <ele>203</ele>
        <time>2015-02-18T15:28:06Z</time>
      </trkpt>
      <trkpt lat="43.41725" lon="6.09282">
        <ele>203</ele>
        <time>2015-02-18T15:28:07Z</time>
      </trkpt>
      <trkpt lat="43.41724" lon="6.09227">
        <ele>203.39999389648</ele>
        <time>2015-02-18T15:28:13Z</time>
      </trkpt>
      <trkpt lat="43.41723" lon="6.092">
        <ele>203.60000610352</ele>
        <time>2015-02-18T15:28:16Z</time>
      </trkpt>
      <trkpt lat="43.41722" lon="6.09134">
        <ele>203.80000305176</ele>
        <time>2015-02-18T15:28:24Z</time>
      </trkpt>
      <trkpt lat="43.41723" lon="6.09057">
        <ele>203.60000610352</ele>
        <time>2015-02-18T15:28:34Z</time>
      </trkpt>
      <trkpt lat="43.41724" lon="6.09036">
        <ele>203.19999694824</ele>
        <time>2015-02-18T15:28:37Z</time>
      </trkpt>
      <trkpt lat="43.41726" lon="6.09017">
        <ele>203.19999694824</ele>
        <time>2015-02-18T15:28:40Z</time>
      </trkpt>
      <trkpt lat="43.41726" lon="6.09012">
        <ele>203.19999694824</ele>
        <time>2015-02-18T15:28:41Z</time>
      </trkpt>
      <trkpt lat="43.41729" lon="6.08995">
        <ele>203.19999694824</ele>
        <time>2015-02-18T15:28:44Z</time>
      </trkpt>
      <trkpt lat="43.41732" lon="6.08977">
        <ele>203.19999694824</ele>
        <time>2015-02-18T15:28:47Z</time>
      </trkpt>
      <trkpt lat="43.41735" lon="6.08938">
        <ele>203.39999389648</ele>
        <time>2015-02-18T15:28:53Z</time>
      </trkpt>
      <trkpt lat="43.41734" lon="6.08888">
        <ele>203.60000610352</ele>
        <time>2015-02-18T15:29:01Z</time>
      </trkpt>
      <trkpt lat="43.41724" lon="6.0886">
        <ele>203.80000305176</ele>
        <time>2015-02-18T15:29:06Z</time>
      </trkpt>
      <trkpt lat="43.41715" lon="6.08841">
        <ele>203.60000610352</ele>
        <time>2015-02-18T15:29:10Z</time>
      </trkpt>
      <trkpt lat="43.41706" lon="6.08825">
        <ele>203.39999389648</ele>
        <time>2015-02-18T15:29:13Z</time>
      </trkpt>
      <trkpt lat="43.41681" lon="6.08779">
        <ele>203.60000610352</ele>
        <time>2015-02-18T15:29:21Z</time>
      </trkpt>
      <trkpt lat="43.41662" lon="6.08741">
        <ele>204</ele>
        <time>2015-02-18T15:29:28Z</time>
      </trkpt>
      <trkpt lat="43.41644" lon="6.08708">
        <ele>204</ele>
        <time>2015-02-18T15:29:35Z</time>
      </trkpt>
      <trkpt lat="43.41628" lon="6.08677">
        <ele>204.19999694824</ele>
        <time>2015-02-18T15:29:41Z</time>
      </trkpt>
      <trkpt lat="43.4161" lon="6.0863">
        <ele>204.19999694824</ele>
        <time>2015-02-18T15:29:49Z</time>
      </trkpt>
      <trkpt lat="43.41608" lon="6.08617">
        <ele>204.39999389648</ele>
        <time>2015-02-18T15:29:51Z</time>
      </trkpt>
      <trkpt lat="43.41606" lon="6.08599">
        <ele>204.60000610352</ele>
        <time>2015-02-18T15:29:54Z</time>
      </trkpt>
      <trkpt lat="43.41599" lon="6.08556">
        <ele>205.39999389648</ele>
        <time>2015-02-18T15:30:02Z</time>
      </trkpt>
      <trkpt lat="43.41594" lon="6.08517">
        <ele>204.80000305176</ele>
        <time>2015-02-18T15:30:09Z</time>
      </trkpt>
      <trkpt lat="43.4159" lon="6.08492">
        <ele>205</ele>
        <time>2015-02-18T15:30:13Z</time>
      </trkpt>
      <trkpt lat="43.41588" lon="6.0848">
        <ele>205</ele>
        <time>2015-02-18T15:30:15Z</time>
      </trkpt>
      <trkpt lat="43.41581" lon="6.08426">
        <ele>205</ele>
        <time>2015-02-18T15:30:24Z</time>
      </trkpt>
      <trkpt lat="43.41576" lon="6.084">
        <ele>205</ele>
        <time>2015-02-18T15:30:28Z</time>
      </trkpt>
      <trkpt lat="43.41572" lon="6.08382">
        <ele>204.80000305176</ele>
        <time>2015-02-18T15:30:31Z</time>
      </trkpt>
      <trkpt lat="43.41566" lon="6.08347">
        <ele>204.39999389648</ele>
        <time>2015-02-18T15:30:37Z</time>
      </trkpt>
      <trkpt lat="43.41563" lon="6.08335">
        <ele>204.39999389648</ele>
        <time>2015-02-18T15:30:39Z</time>
      </trkpt>
      <trkpt lat="43.41559" lon="6.08309">
        <ele>204.39999389648</ele>
        <time>2015-02-18T15:30:43Z</time>
      </trkpt>
      <trkpt lat="43.4155" lon="6.0827">
        <ele>204.39999389648</ele>
        <time>2015-02-18T15:30:49Z</time>
      </trkpt>
      <trkpt lat="43.41546" lon="6.08258">
        <ele>204.60000610352</ele>
        <time>2015-02-18T15:30:51Z</time>
      </trkpt>
      <trkpt lat="43.41515" lon="6.08192">
        <ele>205.39999389648</ele>
        <time>2015-02-18T15:31:05Z</time>
      </trkpt>
      <trkpt lat="43.41513" lon="6.08187">
        <ele>205.60000610352</ele>
        <time>2015-02-18T15:31:06Z</time>
      </trkpt>
      <trkpt lat="43.41505" lon="6.0817">
        <ele>206</ele>
        <time>2015-02-18T15:31:10Z</time>
      </trkpt>
      <trkpt lat="43.41502" lon="6.08165">
        <ele>206</ele>
        <time>2015-02-18T15:31:11Z</time>
      </trkpt>
      <trkpt lat="43.41491" lon="6.08146">
        <ele>206</ele>
        <time>2015-02-18T15:31:15Z</time>
      </trkpt>
      <trkpt lat="43.41472" lon="6.08118">
        <ele>205.60000610352</ele>
        <time>2015-02-18T15:31:21Z</time>
      </trkpt>
      <trkpt lat="43.41455" lon="6.08089">
        <ele>205.39999389648</ele>
        <time>2015-02-18T15:31:27Z</time>
      </trkpt>
      <trkpt lat="43.41451" lon="6.08083">
        <ele>205.39999389648</ele>
        <time>2015-02-18T15:31:28Z</time>
      </trkpt>
      <trkpt lat="43.41438" lon="6.08062">
        <ele>205.39999389648</ele>
        <time>2015-02-18T15:31:32Z</time>
      </trkpt>
      <trkpt lat="43.41422" lon="6.08034">
        <ele>205.60000610352</ele>
        <time>2015-02-18T15:31:37Z</time>
      </trkpt>
      <trkpt lat="43.41415" lon="6.08023">
        <ele>205.60000610352</ele>
        <time>2015-02-18T15:31:39Z</time>
      </trkpt>
      <trkpt lat="43.41405" lon="6.08004">
        <ele>205.60000610352</ele>
        <time>2015-02-18T15:31:42Z</time>
      </trkpt>
      <trkpt lat="43.41394" lon="6.07986">
        <ele>205.60000610352</ele>
        <time>2015-02-18T15:31:45Z</time>
      </trkpt>
      <trkpt lat="43.41391" lon="6.07981">
        <ele>205.60000610352</ele>
        <time>2015-02-18T15:31:46Z</time>
      </trkpt>
      <trkpt lat="43.41387" lon="6.07975">
        <ele>205.60000610352</ele>
        <time>2015-02-18T15:31:47Z</time>
      </trkpt>
      <trkpt lat="43.41366" lon="6.07946">
        <ele>205.80000305176</ele>
        <time>2015-02-18T15:31:53Z</time>
      </trkpt>
      <trkpt lat="43.41341" lon="6.07923">
        <ele>206.19999694824</ele>
        <time>2015-02-18T15:31:59Z</time>
      </trkpt>
      <trkpt lat="43.41337" lon="6.07917">
        <ele>206.19999694824</ele>
        <time>2015-02-18T15:32:00Z</time>
      </trkpt>
      <trkpt lat="43.41333" lon="6.07898">
        <ele>206.19999694824</ele>
        <time>2015-02-18T15:32:03Z</time>
      </trkpt>
      <trkpt lat="43.41331" lon="6.07892">
        <ele>206.39999389648</ele>
        <time>2015-02-18T15:32:04Z</time>
      </trkpt>
      <trkpt lat="43.41327" lon="6.07877">
        <ele>206.19999694824</ele>
        <time>2015-02-18T15:32:06Z</time>
      </trkpt>
      <trkpt lat="43.41325" lon="6.0787">
        <ele>206.19999694824</ele>
        <time>2015-02-18T15:32:07Z</time>
      </trkpt>
      <trkpt lat="43.4132" lon="6.07855">
        <ele>206.39999389648</ele>
        <time>2015-02-18T15:32:09Z</time>
      </trkpt>
      <trkpt lat="43.41319" lon="6.07847">
        <ele>206.39999389648</ele>
        <time>2015-02-18T15:32:10Z</time>
      </trkpt>
      <trkpt lat="43.41314" lon="6.07831">
        <ele>205.80000305176</ele>
        <time>2015-02-18T15:32:12Z</time>
      </trkpt>
      <trkpt lat="43.4131" lon="6.07816">
        <ele>205.60000610352</ele>
        <time>2015-02-18T15:32:14Z</time>
      </trkpt>
      <trkpt lat="43.41302" lon="6.07786">
        <ele>205.80000305176</ele>
        <time>2015-02-18T15:32:18Z</time>
      </trkpt>
      <trkpt lat="43.41292" lon="6.07743">
        <ele>206</ele>
        <time>2015-02-18T15:32:24Z</time>
      </trkpt>
      <trkpt lat="43.41291" lon="6.07735">
        <ele>206</ele>
        <time>2015-02-18T15:32:25Z</time>
      </trkpt>
      <trkpt lat="43.41291" lon="6.07709">
        <ele>206.39999389648</ele>
        <time>2015-02-18T15:32:29Z</time>
      </trkpt>
      <trkpt lat="43.41293" lon="6.07688">
        <ele>206.80000305176</ele>
        <time>2015-02-18T15:32:32Z</time>
      </trkpt>
      <trkpt lat="43.41294" lon="6.07681">
        <ele>206.80000305176</ele>
        <time>2015-02-18T15:32:33Z</time>
      </trkpt>
      <trkpt lat="43.41296" lon="6.07675">
        <ele>206.80000305176</ele>
        <time>2015-02-18T15:32:34Z</time>
      </trkpt>
      <trkpt lat="43.41303" lon="6.0765">
        <ele>206.60000610352</ele>
        <time>2015-02-18T15:32:38Z</time>
      </trkpt>
      <trkpt lat="43.41311" lon="6.07625">
        <ele>207</ele>
        <time>2015-02-18T15:32:42Z</time>
      </trkpt>
      <trkpt lat="43.41319" lon="6.07599">
        <ele>207.19999694824</ele>
        <time>2015-02-18T15:32:46Z</time>
      </trkpt>
      <trkpt lat="43.4132" lon="6.07593">
        <ele>207.19999694824</ele>
        <time>2015-02-18T15:32:47Z</time>
      </trkpt>
      <trkpt lat="43.41324" lon="6.07579">
        <ele>207.39999389648</ele>
        <time>2015-02-18T15:32:49Z</time>
      </trkpt>
      <trkpt lat="43.41325" lon="6.07573">
        <ele>207.19999694824</ele>
        <time>2015-02-18T15:32:50Z</time>
      </trkpt>
      <trkpt lat="43.41332" lon="6.07549">
        <ele>207.39999389648</ele>
        <time>2015-02-18T15:32:54Z</time>
      </trkpt>
      <trkpt lat="43.41337" lon="6.07528">
        <ele>207.60000610352</ele>
        <time>2015-02-18T15:32:58Z</time>
      </trkpt>
      <trkpt lat="43.41342" lon="6.07505">
        <ele>207.80000305176</ele>
        <time>2015-02-18T15:33:02Z</time>
      </trkpt>
      <trkpt lat="43.41351" lon="6.07462">
        <ele>208</ele>
        <time>2015-02-18T15:33:09Z</time>
      </trkpt>
      <trkpt lat="43.41352" lon="6.07456">
        <ele>208</ele>
        <time>2015-02-18T15:33:10Z</time>
      </trkpt>
      <trkpt lat="43.41356" lon="6.07432">
        <ele>208.39999389648</ele>
        <time>2015-02-18T15:33:14Z</time>
      </trkpt>
      <trkpt lat="43.41359" lon="6.07414">
        <ele>208.39999389648</ele>
        <time>2015-02-18T15:33:17Z</time>
      </trkpt>
      <trkpt lat="43.41365" lon="6.07386">
        <ele>209</ele>
        <time>2015-02-18T15:33:22Z</time>
      </trkpt>
      <trkpt lat="43.41369" lon="6.0737">
        <ele>209</ele>
        <time>2015-02-18T15:33:25Z</time>
      </trkpt>
      <trkpt lat="43.4137" lon="6.07364">
        <ele>209.19999694824</ele>
        <time>2015-02-18T15:33:26Z</time>
      </trkpt>
      <trkpt lat="43.41376" lon="6.07337">
        <ele>209.39999389648</ele>
        <time>2015-02-18T15:33:31Z</time>
      </trkpt>
      <trkpt lat="43.41381" lon="6.07317">
        <ele>210</ele>
        <time>2015-02-18T15:33:35Z</time>
      </trkpt>
      <trkpt lat="43.41383" lon="6.07309">
        <ele>210</ele>
        <time>2015-02-18T15:33:37Z</time>
      </trkpt>
      <trkpt lat="43.41385" lon="6.07303">
        <ele>210</ele>
        <time>2015-02-18T15:33:39Z</time>
      </trkpt>
      <trkpt lat="43.41388" lon="6.07289">
        <ele>210.39999389648</ele>
        <time>2015-02-18T15:33:43Z</time>
      </trkpt>
      <trkpt lat="43.41413" lon="6.07215">
        <ele>210.80000305176</ele>
        <time>2015-02-18T15:33:58Z</time>
      </trkpt>
      <trkpt lat="43.41419" lon="6.07196">
        <ele>211</ele>
        <time>2015-02-18T15:34:01Z</time>
      </trkpt>
      <trkpt lat="43.41436" lon="6.07145">
        <ele>211.19999694824</ele>
        <time>2015-02-18T15:34:09Z</time>
      </trkpt>
      <trkpt lat="43.41444" lon="6.07121">
        <ele>211.39999389648</ele>
        <time>2015-02-18T15:34:13Z</time>
      </trkpt>
      <trkpt lat="43.41452" lon="6.07101">
        <ele>211.60000610352</ele>
        <time>2015-02-18T15:34:17Z</time>
      </trkpt>
      <trkpt lat="43.41467" lon="6.07072">
        <ele>211.80000305176</ele>
        <time>2015-02-18T15:34:24Z</time>
      </trkpt>
      <trkpt lat="43.41475" lon="6.07071">
        <ele>212.19999694824</ele>
        <time>2015-02-18T15:34:27Z</time>
      </trkpt>
      <trkpt lat="43.4148" lon="6.07073">
        <ele>212.39999389648</ele>
        <time>2015-02-18T15:34:29Z</time>
      </trkpt>
      <trkpt lat="43.41494" lon="6.07081">
        <ele>212.80000305176</ele>
        <time>2015-02-18T15:34:34Z</time>
      </trkpt>
      <trkpt lat="43.41507" lon="6.07082">
        <ele>213</ele>
        <time>2015-02-18T15:34:38Z</time>
      </trkpt>
      <trkpt lat="43.41522" lon="6.07079">
        <ele>213.19999694824</ele>
        <time>2015-02-18T15:34:42Z</time>
      </trkpt>
      <trkpt lat="43.41532" lon="6.07076">
        <ele>213.39999389648</ele>
        <time>2015-02-18T15:34:45Z</time>
      </trkpt>
      <trkpt lat="43.41541" lon="6.07083">
        <ele>213.80000305176</ele>
        <time>2015-02-18T15:34:49Z</time>
      </trkpt>
      <trkpt lat="43.41543" lon="6.07089">
        <ele>214.19999694824</ele>
        <time>2015-02-18T15:34:51Z</time>
      </trkpt>
      <trkpt lat="43.41544" lon="6.07102">
        <ele>214</ele>
        <time>2015-02-18T15:34:54Z</time>
      </trkpt>
      <trkpt lat="43.41551" lon="6.07119">
        <ele>213.80000305176</ele>
        <time>2015-02-18T15:34:59Z</time>
      </trkpt>
      <trkpt lat="43.41554" lon="6.0712">
        <ele>213.80000305176</ele>
        <time>2015-02-18T15:35:00Z</time>
      </trkpt>
      <trkpt lat="43.41562" lon="6.07118">
        <ele>213.80000305176</ele>
        <time>2015-02-18T15:35:02Z</time>
      </trkpt>
      <trkpt lat="43.41582" lon="6.07111">
        <ele>214.39999389648</ele>
        <time>2015-02-18T15:35:08Z</time>
      </trkpt>
      <trkpt lat="43.41584" lon="6.07108">
        <ele>214.60000610352</ele>
        <time>2015-02-18T15:35:09Z</time>
      </trkpt>
      <trkpt lat="43.41585" lon="6.071">
        <ele>214.60000610352</ele>
        <time>2015-02-18T15:35:11Z</time>
      </trkpt>
      <trkpt lat="43.41584" lon="6.07088">
        <ele>214.60000610352</ele>
        <time>2015-02-18T15:35:14Z</time>
      </trkpt>
      <trkpt lat="43.41583" lon="6.07074">
        <ele>214.60000610352</ele>
        <time>2015-02-18T15:35:17Z</time>
      </trkpt>
      <trkpt lat="43.4158" lon="6.07046">
        <ele>214.39999389648</ele>
        <time>2015-02-18T15:35:24Z</time>
      </trkpt>
      <trkpt lat="43.4158" lon="6.07042">
        <ele>214.80000305176</ele>
        <time>2015-02-18T15:35:28Z</time>
      </trkpt>
      <trkpt lat="43.4158" lon="6.07042">
        <ele>214.39999389648</ele>
        <time>2015-02-18T15:35:50Z</time>
      </trkpt>
      <trkpt lat="43.4158" lon="6.07041">
        <ele>214.60000610352</ele>
        <time>2015-02-18T15:36:35Z</time>
      </trkpt>
    </trkseg>
  </trk>
</gpx>